GFSNE_prec_radar_000.txt.gz
Reflectivity
-20 -20 -20 -20 -20 -20 3 20 21 22 2 -1 10 -9 -5 12 9 23 13 -6 9 2 -20 -20 -20 -20 -20 19 25 29 28 -14 -20 -20 -20 -20 -20 -20
-20 -20 -20 -20 -20 -20 -13 10 22 26 16 4 5 24 18 -5 -6 6 9 28 2 17 12 -20 -20 -14 -20 -5 20 11 25 22 -7 -20 -20 -20 -20 -20
-20 -20 -20 -20 -20 -20 -20 -20 -11 5 24 -20 14 5 24 18 19 8 6 2 13 12 -20 -20 -20 -4 9 -2 -20 11 12 11 -18 14 13 4 -20 -20
-20 -20 -20 -20 -20 -20 -20 -19 -8 -12 24 5 -20 -0 -4 14 18 16 15 18 18 23 23 -20 -20 -0 18 18 -4 37 28 18 -19 22 13 14 20 -17
-20 -20 -20 -20 -20 -20 -20 -1 -8 -4 4 11 -16 -5 0 7 5 16 15 13 20 34 33 24 -19 -5 24 25 27 8 16 38 14 37 21 10 -3 -20
-20 -20 -20 -20 -20 -20 -20 -6 -5 8 10 12 18 4 -13 -11 18 14 14 -20 -1 21 33 26 3 19 21 32 39 36 28 34 37 33 24 16 12 -17
-20 -20 -20 -20 -20 -3 -17 -20 -19 -1 -17 9 4 12 21 18 6 -1 -17 -20 -18 28 38 32 23 18 30 37 40 25 22 24 35 36 30 12 -3 -20
-20 -20 -20 -20 -20 -20 -20 -20 -20 9 12 9 -20 7 -0 8 6 12 17 11 14 -20 17 31 20 12 31 33 32 25 35 37 35 33 18 23 -16 -16
-20 -20 -20 -20 -20 -20 -20 -20 -20 -14 11 12 -0 13 13 -2 19 23 5 9 20 7 -0 40 11 22 30 24 36 35 36 33 35 33 22 -1 -20 -7
-20 -20 -20 -20 -20 -20 -20 -20 -20 -20 -12 1 -3 -2 -17 -20 -6 -3 10 -8 2 24 15 18 9 13 9 21 33 34 36 35 35 20 7 -1 -5 -20
-20 -20 -20 -20 -20 -20 -20 -10 -20 -20 -20 19 19 4 -11 11 12 12 15 19 12 23 21 36 11 -8 17 31 33 36 36 36 22 14 -18 -2 -1 -8
-20 -20 -8 -1 -20 -20 -5 -18 -3 -4 4 0 -20 -20 10 11 17 9 25 26 26 24 26 31 23 22 20 22 27 29 36 27 12 -20 -3 -1 -3 -20
1 3 -20 -20 -20 -19 -4 10 10 13 9 -9 -20 -13 7 -14 -17 -16 13 28 11 35 27 31 23 19 21 22 27 24 18 8 -4 -20 -20 -14 -14 -20
7 -20 -20 -6 -4 5 10 14 14 14 16 11 -20 -11 2 4 11 4 12 22 28 28 25 25 15 13 23 26 26 15 -14 -20 -17 -13 -20 -20 -20 -20
-1 10 -0 12 9 9 6 8 13 11 5 -6 -8 -10 -10 4 -12 11 21 22 14 17 14 19 21 25 28 26 16 9 3 9 -7 -20 -20 -20 -20 -20
3 -20 7 1 -20 -6 -20 -13 -0 9 19 20 -1 -9 -12 7 -2 16 24 22 17 19 23 24 23 22 20 17 9 10 9 -13 -20 -20 -20 -20 -20 -20
-20 -20 -2 -10 -12 -20 -20 -4 -20 -13 3 -5 -2 -14 -13 12 11 22 26 24 22 19 20 22 20 13 5 3 -5 -12 -20 -20 -20 -20 -20 -20 -20 -20
-15 -1 3 -20 -2 -20 -20 -14 2 -15 -3 -12 -12 -2 8 12 13 20 26 22 20 17 19 17 10 -3 -19 -20 -20 -20 -20 -20 -20 -20 -20 -20 -20 -20
-20 9 1 -8 -1 4 -20 -16 -17 -19 17 12 10 -4 -5 12 18 20 22 20 21 18 14 6 -20 -20 -20 -20 -20 -20 -20 -20 -20 -20 -20 -20 -20 -20
-20 7 -4 -6 -3 -7 -17 -18 -17 3 11 16 17 17 15 16 18 21 21 17 15 7 -19 -20 -20 -20 -20 -20 -20 -20 -20 -20 -20 -20 -20 -20 -20 -20
1 -20 -20 -14 -20 4 -20 -19 -3 16 18 19 16 18 19 18 21 19 17 14 2 -19 -20 -20 -20 -20 -20 -20 -20 -20 -20 -20 -20 -20 -20 -20 -20 -19
-9 -20 -20 -20 6 -20 -20 -20 7 16 16 16 15 20 17 19 17 14 9 -3 -20 -20 -20 -20 -20 -20 -20 -20 -20 -20 -20 -20 -20 -20 -20 -20 -20 -20
-20 -20 -20 -20 -19 -20 -20 -6 14 18 18 17 20 20 16 17 11 -14 -20 -20 -20 -20 -20 -20 -20 -20 -20 -20 -20 -20 -20 -20 -20 -20 -20 -2 -17 -8

GFSNE_prec_radar_003.txt.gz
Reflectivity
-20 -20 -20 -20 -20 -20 -20 15 17 18 -18 -17 5 6 5 18 22 18 -20 -20 25 24 18 28 2 -9 -16 -20 -20 -20 16 23 25 26 26 8 26 -20
-20 -20 -20 -20 -20 -20 -20 -0 9 20 13 -11 -2 -9 -2 -14 -20 19 -20 -20 -20 0 28 31 32 28 25 0 -20 -2 -20 1 -2 25 26 14 23 -5
-20 -20 -20 -20 -20 -20 -20 -20 -20 -7 14 -18 -13 -20 -14 4 3 9 0 17 -1 -20 -20 26 27 34 32 21 24 0 -9 20 19 21 25 2 21 11
-20 -20 -20 -20 -20 -20 -20 -20 -20 -20 11 10 -20 -20 -5 -2 2 6 11 14 -19 -20 -20 -20 -19 18 24 32 21 -15 18 20 1 20 -3 14 19 23
-20 -20 -3 -20 -20 -20 -20 -15 -20 -20 -20 -5 -5 -20 -19 7 12 1 16 -20 -12 15 -20 10 -16 -20 26 21 37 18 15 19 10 19 24 33 34 40
-20 -18 -20 -20 -20 -20 -17 -20 -20 -20 -16 2 -0 -2 -1 -1 11 -12 -9 31 18 7 14 -20 -16 -20 -10 27 33 -2 14 13 41 31 34 27 26 28
-20 -20 -20 -20 -20 -20 -17 -20 -20 -20 1 -9 1 3 -10 -3 7 10 9 9 10 -20 -20 -17 -20 -20 -20 -5 -11 36 32 23 24 37 36 35 34 32
-20 -20 -20 -20 -20 -20 -20 -20 -20 -20 -12 4 3 7 5 -3 12 20 7 -18 -20 -13 4 -14 -20 -20 -20 -20 11 35 15 16 28 32 32 34 34 31
-20 -20 -20 -20 -20 -20 -20 -20 -20 -20 -20 2 14 11 -2 6 14 8 -2 10 3 -12 -5 -3 -20 -20 -20 13 26 19 31 30 34 33 32 32 33 27
-20 -20 -20 -20 -20 -1 -0 2 -20 -20 -20 -20 6 22 14 7 24 20 2 18 1 -19 -17 -10 -17 -4 -20 21 31 21 27 31 30 32 32 30 35 36
-20 -20 -20 -20 -20 3 6 6 -20 -20 -20 14 12 9 -3 8 10 16 14 23 16 -6 -4 -10 -16 7 8 25 31 30 31 32 29 29 32 34 21 17
-1 -20 -20 -20 -3 8 6 0 26 16 24 9 -20 -12 2 11 10 6 14 14 8 15 4 18 18 11 10 25 36 35 33 33 32 33 30 28 24 13
17 -20 -20 -2 13 3 6 14 12 10 -8 -14 -19 -20 -16 -15 -8 -5 4 24 19 21 14 32 31 21 13 20 24 23 24 32 32 29 25 20 8 8
4 2 3 7 -8 4 -17 1 -4 7 -10 4 -20 -15 -14 -14 -10 -7 -15 9 19 13 12 25 18 16 21 22 23 25 24 20 21 28 19 12 12 14
7 14 -18 -20 -2 -20 -20 4 6 -7 7 -17 -2 -6 4 -7 -5 -20 -8 -7 7 18 19 21 22 25 24 22 22 21 22 19 17 13 13 -1 -20 -20
25 -20 -20 -20 -20 -20 -20 1 3 2 -3 2 6 -8 -6 -17 -18 1 2 12 20 19 17 22 22 22 22 24 24 22 19 15 16 11 1 -20 -20 -20
2 -20 -20 -20 -20 -20 -8 3 -20 -20 -19 -20 8 8 -16 -20 -20 6 19 21 21 16 21 21 21 20 18 19 20 19 16 8 1 -9 -20 -20 -20 -20
-19 -20 -20 -6 -20 -20 5 0 -20 -20 -20 -4 8 -3 -13 0 11 17 21 22 20 19 21 22 20 20 19 16 8 -6 -18 -20 -20 -20 -20 -20 -20 -20
-20 -20 5 -20 -20 -20 -20 -20 -20 -20 -8 9 13 13 10 5 13 15 22 22 22 22 20 18 16 10 1 -9 -20 -20 -20 -20 -20 -20 -20 -20 -20 -20
1 7 0 -19 -20 -20 -20 -19 -19 -14 4 8 16 14 13 12 16 18 22 22 18 17 13 4 -10 -20 -20 -20 -20 -20 -20 -20 -20 -20 -20 -20 -20 -20
8 -1 -2 -7 -20 -20 -20 -20 -14 -0 15 16 16 19 16 15 17 20 21 19 14 4 -20 -20 -20 -17 -20 -20 -20 -20 -20 -20 -20 -20 -20 -20 -20 -20
-1 -20 -1 -19 -20 -20 -18 -17 -4 6 13 15 19 20 19 19 19 20 15 14 12 -2 -11 -19 -20 -20 -20 -20 -20 -20 -20 -20 -20 -20 -20 -20 -18 -20
-20 -20 -20 -20 -20 -20 -20 -12 3 13 17 20 21 20 21 18 13 15 15 11 5 -3 -20 -20 -20 -20 -20 -20 -20 -20 -20 -20 -20 -20 -20 -4 -12 -20

GFSNE_prec_radar_009.txt.gz
Reflectivity
-20 -20 -20 -20 -20 -20 -18 16 -4 16 -20 -20 -20 -20 -8 -19 -20 -20 -20 -20 -20 5 7 -17 -1 15 14 2 -18 8 -8 30 44 35 26 27 29 21
-20 -20 -20 -20 -20 -19 -20 -20 -6 -10 -19 -20 -20 -20 -20 -20 -20 -20 -20 -20 -20 -20 -12 8 14 11 4 8 5 21 12 3 15 20 32 24 32 24
-20 -20 -20 -20 -20 -20 -20 -20 -20 -20 -20 -20 -10 -20 -20 -20 -20 -20 -20 -20 -20 -20 -20 -20 -5 4 13 2 -1 -10 15 11 23 21 21 34 29 29
-20 -20 -20 -20 -20 -20 -20 -20 -20 -20 -5 14 9 -20 -20 -2 4 -20 -20 -5 -20 -20 -20 -4 -18 -20 -6 9 -4 3 -17 19 19 18 23 37 34 29
-20 -20 -20 -20 -20 -20 -20 -20 5 1 10 13 7 -10 5 4 0 -4 0 -20 -20 -20 -20 -20 4 -20 -20 -15 -14 6 6 -13 9 10 -1 20 26 37
-20 -20 -20 -20 -20 -20 -20 7 7 8 8 15 11 -4 -2 -19 -5 -16 -19 -20 -20 -2 10 16 -20 -20 -20 -20 -20 5 11 13 12 8 11 5 12 22
-20 -20 -20 -20 -20 -20 8 9 12 11 13 10 12 15 4 -20 -20 -20 3 -3 -7 -14 3 2 7 -14 -13 15 11 5 6 2 6 -16 -6 8 12 15
-20 -20 -20 -20 -20 7 11 11 9 20 15 24 15 13 7 10 11 -6 1 18 32 -17 6 -20 4 5 -20 -20 11 -20 -7 0 9 -11 -20 -20 -20 4
-20 -20 -20 -15 5 11 5 8 20 -2 -20 7 13 15 6 -2 15 18 32 14 -1 -15 10 -12 4 11 3 -4 -6 -20 -7 4 -9 -5 1 -2 -20 -15
-20 -20 -15 5 14 3 6 30 -20 -20 -20 4 6 6 11 14 13 18 11 12 4 -5 11 10 3 -13 2 9 -15 -20 -20 -20 -20 -20 -20 0 -20 -20
-20 -20 13 6 -16 8 23 -18 -20 -20 -20 -20 4 4 3 4 7 14 12 13 -6 6 10 7 6 21 7 -18 -12 5 -20 -20 -20 -20 -10 -17 19 -2
-18 10 -7 -2 -18 18 1 -20 -20 -20 3 -1 -12 -20 -20 -19 3 3 22 19 11 8 9 18 10 5 6 -20 -20 -20 9 -13 -19 21 14 7 6 4
13 3 -20 -15 29 10 -20 -20 -16 4 -16 -20 -15 -3 -1 -0 7 3 18 21 17 8 10 19 -1 -20 5 -9 -20 5 20 8 13 20 25 23 10 20
7 -7 -4 26 -15 -20 -20 -6 -10 3 -20 2 3 5 7 3 1 2 -2 16 15 16 16 -15 7 -13 3 2 -18 -2 20 18 9 10 17 22 29 36
10 16 -17 -20 -20 -20 -20 -18 -18 -3 4 6 -16 6 4 -16 -16 2 -3 9 -18 -10 3 -17 -2 -11 7 6 -13 -6 14 22 29 21 29 20 20 28
16 -20 -20 -20 3 -20 -20 -20 -3 2 4 -2 4 7 3 2 -12 -1 12 4 10 -2 -1 -0 4 5 -0 6 4 1 11 17 20 18 12 19 26 27
-8 -20 -20 8 -3 -13 -20 -14 -3 -12 -18 -19 -4 4 -5 -20 -20 -4 11 9 8 6 8 4 3 11 5 7 2 11 14 16 18 18 16 15 13 15
-19 -20 -0 6 6 3 2 3 -20 -20 -18 -18 4 3 -7 -4 -7 8 3 12 13 10 9 0 1 10 11 14 15 14 16 15 19 20 19 15 19 20
-20 1 7 7 6 5 4 -14 -20 -20 -5 2 -2 2 -4 -8 4 8 10 11 11 11 11 7 9 9 15 14 16 19 16 17 15 14 13 13 13 13
4 9 9 8 6 5 -20 -20 -16 -13 -11 5 10 5 9 9 12 10 9 12 13 7 6 8 8 10 10 3 5 1 -4 -4 -1 0 1 -0 -1 -5
8 8 7 6 6 -11 -20 -19 -5 5 13 11 4 12 4 15 11 9 6 6 -16 -0 4 4 1 -0 -10 -20 -20 -20 -20 -20 -20 -20 -20 -20 -20 -20
8 7 6 5 3 -20 -19 4 5 5 8 8 13 9 -1 2 5 2 -4 -15 -20 -19 -17 -17 -20 -20 -20 -20 -20 -20 -20 -20 -20 -20 -20 -20 -20 -20
7 7 6 3 -20 -20 -10 3 8 8 9 9 -2 -4 -19 -20 -20 -20 -20 -20 -20 -20 -20 -20 -20 -20 -20 -20 -20 -20 -20 -20 -20 -11 -20 -20 -20 -0

GFSNE_prec_radar_012.txt.gz
Reflectivity
-20 -20 -20 -20 -20 -20 -20 -20 -20 -4 -19 -20 -20 -20 -20 -20 -20 -20 -20 -20 -20 -20 -20 -20 -20 -20 -20 -20 -6 3 11 23 20 16 15 29 32 35
-20 -20 -20 -20 -20 -20 -20 -20 -20 -20 -15 -20 -20 -20 -20 -20 -20 -20 -20 -20 -20 -20 -20 -20 -13 -20 -20 -20 -17 -10 7 -1 2 20 2 16 24 19
-20 -20 -20 -20 -20 -20 -20 -20 -20 -20 -14 -20 -20 -20 -20 -20 -20 -20 -20 -20 -20 -20 -20 -20 -20 -20 -20 -2 -20 -8 0 -16 -8 1 18 13 23 21
-20 -20 -20 -20 -20 -20 -20 -20 -20 -20 4 11 -20 -20 -20 -20 -20 -20 -20 -20 -20 -20 -20 -20 -20 -20 -20 -20 -4 -20 -20 -20 -15 -17 14 -6 3 8
-20 -20 -20 -20 -20 -20 -20 -20 -17 -8 13 11 4 -11 -20 -20 -20 -20 -20 -20 -20 -20 -20 -20 2 10 6 7 -20 -20 -20 -20 -20 -20 7 2 3 -10
-20 -20 -20 -20 -20 -20 -20 -0 6 9 -5 12 12 9 4 -20 -19 -19 -18 -7 -7 -20 -20 -8 -19 -2 -17 -19 -10 -15 7 -13 -13 -3 8 -0 -10 -17
-20 -20 -20 -20 -20 -7 6 2 11 -5 9 15 15 9 -20 -20 -4 -6 7 -20 -20 -19 15 6 9 11 -10 -20 -20 -20 -14 2 12 4 -7 12 -19 -6
-20 -20 -20 -20 -20 -20 -16 16 9 16 19 21 16 11 -14 5 3 2 11 12 10 -20 14 4 -20 -1 -17 -20 -20 -4 -6 11 11 12 -10 -8 -11 8
-20 -20 -20 -20 -13 -0 -17 -20 17 21 14 3 9 7 -2 5 11 12 15 12 6 -15 15 -5 5 6 -14 1 -20 -19 8 3 11 8 -13 -20 -20 -20
-20 -20 -20 -11 -5 1 -3 11 15 5 -19 -10 3 9 14 12 10 8 12 14 12 7 12 18 10 -12 -20 -16 4 17 21 26 11 -20 -20 -20 -14 -15
-20 -20 4 -14 -20 -15 23 19 8 -8 -20 -3 5 -5 -20 -7 1 12 12 16 9 11 6 26 13 10 11 -12 -13 23 -1 -20 -20 -20 -20 -20 -0 -18
-17 6 -11 2 8 14 11 7 9 -3 6 8 -20 -20 -20 -4 -11 4 12 15 9 9 17 24 7 15 7 7 16 22 -11 -17 -17 8 1 -20 -18 -19
14 6 -14 1 6 -8 -20 6 1 6 -5 -5 -14 -3 -4 2 6 6 7 12 12 8 7 25 13 12 9 8 1 -8 -19 20 19 9 18 17 9 8
-9 8 10 9 -20 -20 6 9 -15 -9 -5 4 5 5 6 5 8 4 -0 1 4 10 -13 14 16 7 6 6 2 -18 5 32 23 -4 7 16 25 24
-12 15 6 -20 -20 -19 -6 2 -3 -0 5 9 9 8 5 2 6 5 4 -8 -18 -2 3 11 1 -3 5 4 3 8 -0 25 28 26 16 23 23 20
15 7 -20 -16 -7 -6 -19 -20 -7 0 4 9 10 8 7 4 7 5 8 9 8 13 14 -1 2 7 5 5 11 13 9 22 20 22 25 31 33 31
8 -14 -20 -20 -11 -12 -9 -12 -19 -3 7 9 9 6 5 7 6 4 5 8 16 14 10 10 11 4 16 10 10 10 -3 21 18 12 21 15 23 21
-19 -8 -6 4 5 4 2 1 -15 -20 7 7 6 7 9 9 9 6 9 16 12 10 7 7 9 9 11 9 7 9 11 18 17 17 23 4 9 26
1 6 8 6 6 6 5 3 -19 -2 7 6 6 10 10 11 11 16 13 9 10 11 9 9 6 14 15 7 13 15 14 19 18 13 -7 -15 -7 2
5 9 8 7 7 6 4 -10 6 3 3 3 10 5 12 11 14 12 11 12 4 3 3 0 8 14 16 16 11 17 19 18 14 5 9 13 16 25
7 7 8 8 7 5 -9 2 7 10 13 12 8 4 4 6 5 7 6 5 3 -5 -2 -2 -4 -3 -1 9 14 11 14 16 16 12 14 14 13 9
5 8 8 6 4 -9 4 6 6 5 8 -8 -18 -2 -2 8 -2 -20 -18 -18 -17 -20 -20 -20 -20 -20 -16 -8 -6 -3 2 4 3 3 1 -3 -0 0
8 8 7 4 -20 -1 6 8 7 -8 -16 -17 -18 2 6 -0 -20 -20 -20 -20 -20 -20 -20 -11 -8 -20 -20 -20 -20 -20 -20 -20 -20 -20 -20 -20 -16 -20

GFSNE_prec_radar_015.txt.gz
Reflectivity
-20 -20 -20 -20 -20 -20 -20 -20 -20 -20 -20 -20 -20 -20 -20 -20 -20 -20 -20 -20 -20 -20 -20 -20 -20 -20 -20 -20 -18 -20 -20 -20 -19 -12 26 14 -2 30
-20 -20 -20 -20 -20 -20 -20 -20 -20 -20 -16 -20 -20 -20 -20 -20 -20 -20 -20 -20 -20 -20 -20 -20 -20 -20 -20 -20 -5 -19 -20 -18 8 -3 8 22 29 20
-20 -20 -20 -20 -20 -20 -20 -20 -20 -20 3 -20 -20 -20 -20 -20 -20 -20 -20 -4 -20 -20 -20 -20 -20 -20 -20 -20 -20 -20 -20 -3 3 18 -1 5 17 25
-20 -20 -20 -20 -20 -20 -20 -20 -20 -20 -1 6 -20 -20 -20 -20 -20 -14 -20 -20 -20 -20 -20 -20 -11 11 -20 -20 -20 11 9 9 9 -20 -20 -20 -15 4
-20 -20 -20 -20 -20 -20 -20 -20 -20 -11 8 10 -15 -20 -20 -20 -17 -20 -20 -20 -20 -20 -8 -20 -20 -20 -20 -2 -20 -13 11 7 1 -6 15 11 -18 -12
-20 -20 -20 -20 -20 -20 -20 -4 7 9 6 11 8 0 6 -20 2 -20 -20 -20 -20 -20 -20 -20 -20 -20 -6 17 -1 -20 -19 -20 -20 -17 12 -14 -2 -14
-20 -20 -20 -20 -20 -20 -3 2 1 12 9 8 10 11 -0 -20 -20 -20 -11 -20 -20 -15 -18 -20 -8 -3 -19 -20 -20 -20 -10 -20 -20 -6 13 3 1 12
-20 -20 -20 -20 -20 -20 -20 2 9 7 7 9 22 13 -20 -20 -20 -5 8 8 4 -9 1 -20 -13 -17 -20 -20 -11 11 6 15 14 -11 -20 0 11 7
-20 -20 -20 -20 -20 -20 -20 3 -12 16 11 -0 6 1 -20 -13 9 10 11 4 -4 -20 7 -4 6 -8 9 -20 -20 -1 9 10 10 12 6 4 5 10
-20 -20 -20 -20 -20 5 7 9 14 -4 -10 -6 -9 -19 4 3 7 -6 1 10 9 -4 -2 14 -3 6 -9 -20 -20 -14 -19 -0 14 18 21 14 18 -1
-20 -20 -12 1 4 11 13 9 -19 -20 -20 -16 -16 -20 -16 -20 -12 3 2 9 2 4 -20 7 0 -4 -19 -20 -8 -2 29 -8 3 -11 -20 -0 -10 -11
-20 3 -19 -14 10 16 2 -5 -2 -9 10 -17 -20 -20 -20 -20 3 -9 8 11 8 -9 -18 -18 1 6 14 -7 -1 -16 -20 16 5 7 -12 10 13 -17
7 -1 2 -20 14 -17 -12 -14 5 6 -15 -19 -20 -18 -8 2 2 2 4 8 13 3 -20 5 10 2 7 2 12 9 -16 30 29 27 22 -14 -2 -0
7 5 2 17 -11 -20 -10 -20 -16 -3 -20 -10 -2 4 5 3 -8 -14 -20 -12 -5 1 -20 -13 14 -7 10 -14 15 10 6 21 31 29 25 18 19 22
3 7 17 -19 -20 -20 -20 4 -20 -20 -1 4 8 5 2 -7 -19 -16 -20 -20 -20 -20 -20 -20 11 12 -16 -20 -20 -19 8 13 34 29 15 19 20 -1
12 10 -20 -20 -20 -20 -20 -20 -20 -8 -5 2 3 3 -0 -11 -18 -7 10 -9 4 -17 18 -12 -20 -7 -17 -16 -10 -20 6 -15 19 20 29 27 22 21
11 -20 -20 -20 -14 -6 -20 -20 -20 -18 1 3 2 -6 -13 -4 -13 5 3 12 15 6 -5 -12 -8 -3 -7 9 -11 -2 -20 -4 17 25 31 31 33 35
-7 -15 -12 3 5 -2 -3 -10 -20 -14 2 1 -12 -5 2 5 3 3 7 12 9 6 6 3 -12 -20 -9 8 5 -9 -16 13 19 30 31 18 24 35
-3 2 7 4 0 -1 -20 -20 -17 -2 -9 -4 1 7 7 -4 10 7 11 9 3 -2 2 7 6 6 5 -5 7 12 9 17 13 5 -12 1 15 29
5 7 4 2 -1 -1 -17 -6 -5 -20 -20 -11 3 -15 -15 -14 -9 3 -20 -9 -10 -6 -1 4 3 12 12 11 5 17 15 15 12 -1 4 -15 22 29
5 3 1 -0 -10 -14 -8 -3 -12 0 8 -2 -20 -20 -16 2 3 -4 -19 -20 -20 -19 -20 -7 -1 -4 13 7 6 15 22 32 17 7 8 -2 -15 9
5 0 -4 -2 -5 1 3 -5 -8 -20 -18 -19 -20 -17 -16 -6 3 -2 1 -2 -10 -10 -20 -20 -18 -8 -5 11 8 4 5 15 24 24 17 9 4 4
-2 -0 0 -18 -5 0 -17 -19 -20 -19 -20 -19 -16 -16 -10 -5 -20 -20 -20 -20 -20 -12 -18 -4 -20 -20 -20 -20 -20 -5 2 -5 -11 -8 2 -2 -2 3

GFSNE_prec_radar_018.txt.gz
Reflectivity
-20 -20 -20 -20 -20 -20 -20 -20 -20 -20 -20 -20 -20 -20 -20 -20 -20 -8 -20 -20 -20 -20 -20 -16 -20 -20 -20 -20 -20 -20 -20 -20 -20 15 11 -20 -9 14
-20 -20 -20 -20 -20 -20 -20 -20 -20 -20 -20 -20 -20 -20 -20 -20 -20 -20 -20 -20 -20 -20 -20 -20 -20 -20 -20 -20 -20 -20 -20 -10 -20 -20 -20 -15 -3 22
-20 -20 -20 -20 -20 -20 -20 -20 -20 -20 -2 -20 -20 -20 -20 -20 -20 -20 -20 -20 -20 -20 -20 -20 -20 -20 -20 -20 0 -5 11 -20 -20 -20 -1 7 6 19
-20 -20 -20 -20 -20 -20 -20 -20 -20 -20 -20 -20 -20 -20 -20 -20 -20 -20 -20 -20 -3 -20 -20 -20 -20 -20 7 -19 -20 -20 -20 -20 9 19 18 22 21 22
-20 -20 -20 -20 -20 -20 -20 -20 -20 -20 -9 10 -20 -20 -20 -20 -20 -20 -20 -20 -20 -20 -20 -20 -20 -20 -20 -19 -0 1 -20 7 23 15 1 21 8 -20
-20 -20 -20 -20 -20 -20 -20 -20 -15 -5 -9 -20 -8 1 -20 9 18 4 -20 -20 -20 -20 -20 -12 -6 -20 -10 -6 -20 -20 -18 -20 -20 -20 -2 0 3 -3
-20 -20 -20 -20 -20 -20 -20 -5 3 -6 9 13 9 2 9 -20 -20 -20 -20 -20 -20 -20 -6 -20 -20 -20 -20 -20 -20 -20 -20 -7 11 16 21 5 1 -20
-20 -20 -20 -20 -20 -20 -20 -20 6 13 8 16 9 -11 -20 -20 -20 -20 -20 -20 1 -20 -20 -20 -20 -20 -20 -20 4 0 25 -12 -20 -20 5 13 9 6
-20 -20 -20 -20 -20 -20 -20 13 14 22 9 1 -17 -18 3 -14 1 -14 -3 12 -12 -20 -0 -20 -19 -7 -1 -20 -18 -9 5 10 -16 -11 14 7 6 7
-20 -20 -20 -20 -20 8 3 7 10 -20 -20 -10 4 8 7 1 -8 1 -18 -20 -18 -15 -0 -17 3 -20 -20 -7 8 8 -9 9 16 25 12 15 15 16
-20 -17 4 3 7 11 11 9 -16 -20 -20 -20 14 3 -20 -20 3 4 2 6 -16 -18 -20 0 -20 -20 -4 9 5 -10 28 12 -6 -5 -16 5 -1 1
-20 -20 -9 9 -13 17 11 -3 0 -20 2 4 -20 -20 -20 -20 3 4 4 10 -12 -11 -20 -20 -18 -20 -1 14 5 5 -10 -8 -12 6 7 9 1 -11
-19 -13 -12 -17 19 10 -10 1 -14 6 -2 -20 -20 -20 -20 -3 2 -0 -2 11 14 6 -20 3 12 -17 -1 -15 7 -5 -19 -17 12 25 25 16 -4 12
1 -15 -20 15 -12 2 -9 -20 4 -1 -20 -20 -20 -3 -11 -20 -20 -20 -20 -20 -18 9 6 -5 17 4 12 2 -3 -20 -15 20 15 35 38 25 -2 -0
2 0 16 -2 -0 -20 -20 3 -18 -20 -20 -5 6 -10 -16 -20 -20 -20 -20 -12 -5 8 7 13 17 1 -18 -20 -20 -12 -13 -4 22 33 24 32 9 8
4 14 -20 -20 -20 -20 -20 -20 -20 -20 0 6 1 -20 -20 -20 -20 -11 -2 -20 -6 -17 -10 -5 -20 -20 -20 -20 -2 -16 10 14 11 23 20 21 35 12
11 -20 -20 -20 -20 -20 -20 -20 -20 -17 3 -5 4 -7 -20 -20 -20 -20 -15 -13 3 10 -3 -20 -20 -20 -20 -16 -12 -19 -5 1 12 23 24 26 27 30
-18 -20 -20 -20 -20 -20 -20 -20 -15 -3 -7 -7 -20 -20 -20 -7 -17 -16 -20 -20 -3 -2 -2 -3 -20 -20 -20 -12 -3 -7 8 11 11 27 31 26 29 35
-20 -20 -0 1 -1 -20 -19 -17 -2 -10 1 -13 -16 -15 -18 -20 -19 -20 -16 -9 -19 -20 -19 -2 -16 -20 -20 -18 0 25 10 14 15 8 28 25 27 35
-20 5 2 -16 -20 -20 -11 0 -2 -19 -20 -20 -20 -20 -17 -18 -4 -16 -15 -11 -19 -20 -20 -12 -9 -15 -4 -5 1 19 28 9 6 15 14 24 30 31
2 -10 -16 -20 -20 -17 -8 -4 -11 -20 -17 -16 -17 -17 -16 -16 -19 -18 -20 -2 -2 -20 -20 -20 -20 4 4 -8 -1 -5 16 29 15 1 -3 -17 3 -1
-19 -20 -20 -20 -20 -4 -5 -19 -20 -20 -18 -17 -18 -19 -20 -17 -6 -18 -18 -18 -20 -13 -20 -20 -20 -19 8 -5 -2 6 9 10 20 21 5 -12 -19 8
-20 -19 -20 -20 -18 -19 -17 -19 -20 -20 -18 -18 -19 -20 -8 2 -20 -20 -20 -20 -20 -20 -20 -20 -20 -20 -20 -5 0 2 -4 4 9 -20 0 25 21 26

GFSNE_prec_radar_021.txt.gz
Reflectivity
-20 -20 -20 -20 -20 -20 -20 -20 -20 -20 -20 -20 -20 -20 -20 -20 -20 -20 -20 -20 -20 -20 -20 -20 -20 -20 14 -20 -20 -20 -11 16 -15 10 -2 -18 -3 -20
-20 -20 -20 -20 -20 -20 -20 -20 -20 -20 -20 -20 -20 -20 -20 -20 -20 -20 -20 -20 -20 -20 -20 -20 -14 13 2 14 -14 17 -20 -20 -20 -10 -20 20 -0 -3
-20 -20 -20 -20 -20 -20 -20 -20 -20 -20 -20 -20 -20 -20 -20 -20 -20 -20 -20 -20 -20 -20 -13 10 -13 -20 -20 -20 -20 -8 -1 14 14 7 3 13 21 8
-20 -20 -20 -20 -20 -20 -20 -20 -20 -20 -20 -20 -20 -20 -20 -20 -20 -20 -20 -20 14 -6 -20 -20 -20 -20 -20 -1 -20 7 -19 -20 -20 -20 -13 -14 -19 22
-20 -20 -20 -20 -20 -20 -20 -20 -20 -20 -7 7 -20 -20 -18 -16 -10 4 -20 -20 -20 -20 -20 -20 -20 -20 -17 6 -6 -20 -15 5 3 -19 -14 -13 24 20
-20 -20 -20 -20 -20 -20 -20 -4 -20 -20 -20 -20 7 3 -15 -19 6 -20 -20 -20 -20 -20 -20 -20 -7 2 -18 -20 -20 -20 -19 -19 -7 -6 -14 -16 11 15
-20 -20 -20 -20 -20 -20 -13 -20 -7 -12 -5 13 7 4 -20 -20 -20 -20 -15 3 -20 -20 -4 -1 -15 -20 -20 -20 -20 -20 1 -10 16 22 18 12 14 16
-20 -20 -20 -20 -20 -20 -20 1 10 12 13 15 11 -20 -20 -20 -20 -13 6 6 4 -7 -2 -20 -20 -20 -20 -20 -13 6 8 -20 -20 9 20 20 12 -20
-20 -20 -20 -20 -20 -20 -20 11 1 13 23 8 -6 -20 -0 -20 11 15 -7 5 5 -20 -15 -20 -20 -9 -20 -20 1 -16 -4 -1 3 12 6 1 2 -4
-20 -20 -20 -20 1 8 4 2 2 4 -20 -20 -10 -3 3 11 -12 -13 -11 -2 -5 -11 -20 -20 -20 -20 -20 -20 -20 3 -7 11 15 13 14 18 18 11
-20 -20 7 1 8 5 7 17 -11 -20 -20 -20 15 3 -20 -20 -14 11 6 5 -14 -20 -20 -19 -17 -20 -20 -20 -18 -3 -20 10 10 9 8 0 -12 -5
-20 -20 -11 7 -20 15 13 -11 -9 -20 -1 -6 -20 -20 -20 -20 1 0 6 13 -8 -8 -20 9 -8 -20 5 -20 -20 -20 -20 -20 1 12 3 12 14 9
-19 -20 -20 -20 20 -14 2 -13 -9 8 -15 -20 -20 -20 -20 -5 -20 -20 -14 14 16 7 -20 14 10 -19 -11 -20 -20 -20 -20 -19 -10 7 18 15 10 11
-2 -20 -11 20 -20 -20 -16 3 -10 3 -20 -20 -20 -20 -20 -20 -20 -20 -9 -7 -10 12 6 7 13 -4 -9 -20 -20 -20 -20 10 23 24 27 26 15 10
3 12 5 -20 -20 -20 -19 -4 -18 -20 -20 -5 -1 -20 -20 -20 -20 -20 -14 -0 7 9 4 12 6 6 -20 -19 -20 -20 -9 17 18 24 33 37 18 5
6 -7 -20 -20 -20 -20 -20 -20 -20 -6 8 3 -16 -20 -20 -20 -20 -20 -10 -20 -1 -1 8 10 6 -6 -19 -20 -20 -8 13 15 -13 23 22 26 20 -7
2 -20 -20 -20 -20 -20 -20 -20 -20 -20 -6 -20 -20 -20 -20 -20 -20 -20 -16 -17 1 4 -14 -20 -19 -20 -20 -20 -15 8 8 8 16 27 27 30 26 22
-19 -20 -20 -20 -20 -20 -20 -20 -20 -16 -20 -19 -20 -20 -15 -14 -17 -20 -17 0 0 -10 -14 -20 -20 -20 -20 -18 12 8 13 13 31 28 29 25 34 29
-20 -20 -20 -20 -20 -20 -20 -20 -20 -20 -18 -20 -17 -1 -15 -20 -20 -20 -20 -19 -20 -20 -19 -20 -19 -9 -20 -17 -19 27 16 15 28 29 24 29 28 28
-2 -3 -20 -20 -20 -20 -20 -19 -19 -20 -20 -17 -3 -19 -17 -19 -20 -20 -19 -18 -14 -19 -20 -20 -20 -18 -1 0 -17 18 31 11 11 13 32 27 30 30
-11 -20 -20 -20 -20 -20 -20 -19 -18 -16 -2 -10 -19 -20 -20 -20 -20 -19 -19 -12 -1 -20 -20 -20 -19 5 7 -2 -2 0 16 26 22 5 18 20 22 20
-20 -20 -20 -20 -20 -19 -19 -19 -18 -20 -20 -20 -20 -20 -20 -20 -2 -19 -20 -19 -18 -20 -20 -20 -20 8 5 -20 -19 -11 2 5 20 16 19 18 16 21
-20 -16 -20 -20 -19 -19 -20 -19 -20 -20 -20 -20 -20 -20 -20 -3 -1 -13 -20 -20 -20 -20 -20 -20 -20 -20 -20 -12 -20 -20 -20 -20 -20 -4 18 -10 9 24

GFSNE_prec_radar_024.txt.gz
Reflectivity
-20 -20 -20 -20 -20 -20 -20 -20 -20 -20 -20 -20 -20 -20 -20 -20 -20 -20 -20 -20 -20 -20 -20 -20 -20 -19 -20 2 -14 16 18 -18 8 -17 -19 14 7 5
-20 -20 -20 -20 -20 -20 -20 -20 -20 -20 -20 -20 -20 -20 -20 -20 -20 -20 -20 -20 -20 -20 -20 -19 5 -9 18 20 14 -2 14 5 -3 -13 6 -11 -20 2
-20 -20 -20 -20 -20 -20 -20 -20 -20 -20 -20 -20 -20 -20 -20 -20 -20 -20 -20 -10 3 16 -20 -20 -20 -20 -19 -20 -20 -17 -16 -17 -0 11 13 13 13 18
-20 -20 -20 -20 -20 -20 -20 -20 -20 -20 -20 -18 -20 -20 -20 -20 -20 -20 -4 -18 8 -20 -20 -20 6 -20 -20 -20 -19 -11 -8 -11 19 22 19 -1 -6 -16
-20 -20 -20 -20 -20 -20 -20 -20 -20 -14 -7 -14 -20 -20 -20 -20 -12 -20 -20 -20 -20 -20 -20 -20 -20 -20 -14 4 19 18 16 -1 -20 -19 -20 -17 6 2
-20 -20 -20 -20 -20 -20 -20 -15 -11 -20 -20 -20 4 -3 -11 9 -10 -20 -20 -20 -20 -20 -7 -20 -13 -20 -20 -20 -20 -20 -20 -20 -20 -10 -1 3 -20 -20
-20 -20 -20 -20 -20 -17 -1 -2 -5 -10 4 15 -20 6 8 -20 -20 -20 -20 -20 -5 -10 -20 -20 -20 -20 -20 -20 -20 -20 -16 -14 -19 -3 9 12 22 23
-20 -20 -20 -20 -20 4 -20 2 9 13 3 5 20 -20 -20 -20 -20 -1 7 12 -20 -20 -20 -20 -20 -20 -20 -20 -20 2 4 -1 5 12 20 7 -7 2
-20 -20 -20 -20 -5 -18 -11 -8 -7 7 20 -19 -20 -20 -16 3 14 11 -20 -15 -15 -20 -15 -20 -20 -20 -20 -20 -20 -20 1 5 0 13 14 14 15 13
-20 -20 -20 -20 -20 5 -2 10 17 -10 -20 -20 -19 -2 8 -13 -13 -19 -13 -1 -18 -20 -19 0 -20 -20 -20 -20 -20 -20 -13 1 3 11 18 17 15 13
-20 -20 -5 -1 -5 3 19 1 -20 -20 -20 -20 13 -2 -20 -20 -5 14 -1 -16 -20 -20 -4 3 -17 -20 -20 -20 -20 -20 -20 -4 4 7 11 14 14 27
-20 -20 -12 4 8 18 -8 -20 -20 -20 3 -17 -20 -20 -20 -20 -7 -12 7 12 -12 -19 -3 9 -10 -20 8 -20 -20 -20 -20 -20 -20 5 13 13 12 12
-20 -20 -20 -1 13 -20 -3 -20 -7 6 -13 -20 -20 -20 -20 -20 -20 -20 -20 12 12 -1 -20 13 8 -20 1 -17 -20 -20 -20 -13 13 14 25 31 28 22
-19 -20 -8 9 -20 -20 -9 4 7 -0 -20 -20 -20 -20 -20 -20 -20 -20 -7 -8 -14 11 7 -11 15 10 6 -11 -20 -20 -20 10 20 23 23 29 33 22
1 9 2 -19 -20 -20 -20 -5 -18 -20 -13 -16 -20 -20 -20 -20 -20 -20 -4 -2 6 13 10 -7 10 -0 -3 -20 -16 -20 -16 -15 -3 20 26 34 36 16
4 -20 -20 -20 -20 -20 -20 -20 -20 -20 -3 -9 -20 -20 -20 -20 -20 -20 -17 -20 -15 -7 2 6 -0 4 -8 -20 -19 -18 -20 18 4 27 31 31 28 20
1 -20 -20 -20 -20 -20 -20 -20 -20 -20 -20 -20 -20 -20 -20 -20 -20 -20 -14 -1 -12 -4 -20 -20 -20 -14 -20 -17 -10 -20 9 6 16 29 16 29 25 22
-19 -20 -20 -20 -20 -20 -20 -20 -20 -17 -20 -20 -20 -20 -20 -20 -20 -20 -16 -14 5 -18 -18 -20 -20 -20 -17 -13 1 10 10 9 20 36 21 21 9 15
-20 -20 -20 -20 -20 -20 -20 -20 -20 -20 -20 -20 -20 -13 0 -20 -20 -20 -20 -20 -20 -20 -20 -20 -7 -19 -16 -20 -12 18 19 17 16 28 28 19 19 30
-20 -20 -20 -20 -20 -20 -20 -20 -20 -20 -20 -20 -18 -20 -20 -9 -7 -20 -20 -19 -17 -19 -20 -20 -20 -20 -7 -1 -8 14 29 26 18 19 31 30 27 30
-20 -20 -20 -20 -20 -20 -20 -20 -20 -20 -4 -12 -20 -20 -18 -17 -20 -20 -20 -15 -7 -20 -20 -20 -12 6 12 -6 -7 -6 18 28 25 28 24 24 28 4
-20 -20 -20 -20 -20 -20 -20 -20 -20 -20 -20 -20 -20 -20 -20 -19 -14 -20 -6 -20 -20 -20 -20 -20 -20 2 -12 -20 -19 -16 -2 -10 2 13 27 28 24 20
-20 -20 -20 -20 -20 -20 -20 -20 -20 -20 -19 -19 -20 -20 -20 -20 -20 -3 -17 -20 -20 -20 -20 -20 -20 -20 -20 -19 -20 -20 -20 -20 -20 -2 26 24 23 30

GFSNE_prec_radar_027.txt.gz
Reflectivity
-20 -20 -20 -20 -20 -20 -20 -20 -20 -20 -20 -20 -20 -20 -20 -20 -20 -20 -20 -20 -20 -20 -20 -20 -18 -3 -17 -3 -20 3 13 -2 18 11 10 20 -14 -3
-20 -20 -20 -20 -20 -20 -20 -20 -20 -20 -20 -20 -20 -20 -20 -20 -20 -20 -20 -20 -20 -20 -20 -10 -20 -20 -20 -13 -4 -0 -1 13 22 19 18 13 11 -15
-20 -20 -20 -20 -20 -20 -20 -20 -20 -20 -20 -20 -20 -20 -20 -20 -20 -20 -20 -20 -8 18 -18 -20 -20 -20 -20 -3 16 17 18 -18 16 16 14 14 9 8
-20 -20 -20 -20 -20 -20 -20 -20 -20 -20 -20 -20 -20 -20 -20 -20 -20 -20 -1 27 -4 -20 -20 -20 -12 -20 5 -0 -19 -12 -5 -11 -16 -4 -9 14 17 19
-20 -20 -20 -20 -20 -20 -20 -20 -20 -17 1 -4 -20 -20 -20 -20 -20 -5 -20 -20 -20 -20 -20 -20 -20 -20 -11 -5 7 9 17 20 20 20 19 13 12 8
-20 -20 -20 -20 -20 -20 -20 -15 -10 -20 -20 -20 -14 -9 -10 -0 -4 -20 -20 -20 -20 -20 -20 -7 -6 -20 -20 -20 -20 -20 -20 -18 -19 -14 -9 -11 -19 -20
-20 -20 -20 -20 -20 -20 -0 -14 -20 -16 -13 -1 -8 15 -13 -20 -20 -20 -20 -20 -20 -6 -20 -20 -20 -20 -20 -20 -20 -20 -16 2 -4 -3 8 11 18 15
-20 -20 -20 -20 -20 -20 -2 0 8 8 6 18 -15 -20 -20 -20 -20 -20 5 -19 -20 -20 -11 -11 -20 -20 -20 -20 -20 -20 3 -18 5 13 16 16 15 14
-20 -20 -20 -20 -20 -20 -20 -10 6 21 -4 -16 -20 -20 -17 -20 10 -4 -20 -20 -20 -20 -5 -1 -20 -20 -20 -20 -20 -20 -9 5 8 9 8 12 14 12
-20 -20 -20 -20 -7 4 -5 11 -20 -20 -20 -20 -20 -5 4 -6 -19 -16 -13 1 -15 -20 2 2 -20 -20 -20 -20 -20 -20 -20 -1 3 4 7 7 9 15
-20 -20 1 6 1 9 -1 -20 -20 -20 -20 -20 12 -3 -20 -20 -16 14 -7 -15 -20 -20 -11 -20 -20 -20 -20 -20 -20 -20 -20 -0 -7 1 7 1 10 11
-20 -20 0 4 7 15 -4 -20 -20 -20 4 -9 -20 -20 -20 -20 -20 -6 9 10 -15 -17 -20 3 -14 -15 6 -20 -20 -20 -20 -20 -20 -12 6 6 8 12
-20 -20 -20 -0 9 -20 4 -20 -16 6 -17 -20 -20 -20 -20 -20 -20 -20 -16 12 14 2 -20 13 8 -20 -15 -20 -20 -20 -20 -20 -19 1 22 27 24 25
-19 -20 -19 8 -1 -14 -18 1 6 -1 -20 -20 -20 -20 -20 -20 -20 -20 -20 -20 1 15 5 2 16 -0 1 -12 -20 -17 6 11 -8 -10 -13 -4 21 33
-18 -2 -0 -20 -20 -20 -20 -10 -18 -20 -20 -20 -20 -20 -20 -20 -20 -20 -20 -20 -1 11 2 -18 -8 -14 2 7 -6 -20 9 -3 5 15 11 31 34 33
-20 -20 -20 -20 -20 -20 -20 -20 -20 -20 -19 -20 -20 -20 -20 -20 -20 -20 -20 -20 -20 -20 -4 -11 2 2 -0 -7 14 2 4 19 12 6 22 31 32 24
-1 -20 -20 -20 -20 -20 -20 -20 -20 -20 -20 -20 -20 -20 -20 -20 -20 -20 -20 -20 -20 -20 -20 -20 -20 -7 -9 5 5 1 2 11 29 20 19 28 24 22
-20 -20 -20 -20 -20 -20 -20 -20 -20 -20 -20 -20 -20 -20 -20 -20 -20 -20 -20 -20 -15 -20 -20 -20 -20 -16 -5 -16 2 10 5 18 29 29 22 19 1 19
-20 -20 -20 -20 -20 -20 -20 -20 -20 -20 -20 -20 -20 -20 -20 -20 -20 -20 -20 -20 -20 -20 -20 -19 -18 -20 -20 -20 -2 7 17 31 24 16 19 11 -2 17
-20 -20 -20 -20 -20 -20 -20 -20 -20 -20 -20 -20 -20 -20 -20 -20 -20 -20 -20 -20 -15 -19 -20 -20 -20 -19 4 8 9 7 21 24 20 11 7 28 31 25
-20 -20 -20 -20 -20 -20 -20 -20 -20 -20 -4 -10 -20 -20 -20 -20 -20 -20 -20 -20 -11 -20 -20 -20 -20 4 3 -7 -20 -17 8 24 30 24 17 12 18 -4
-20 -20 -20 -20 -20 -20 -20 -20 -20 -20 -20 -20 -20 -20 -20 -20 -20 -20 -20 -12 -20 -20 -20 -20 -20 -20 -20 -20 -20 -20 -20 -16 24 25 25 28 21 22
-20 -20 -20 -20 -20 -20 -20 -20 -20 -20 -20 -20 -20 -20 -20 -16 -20 -20 -20 -20 -20 -20 -20 -20 -20 -20 -20 -20 -20 -20 -20 -20 -9 11 30 34 29 30

GFSNE_prec_radar_033.txt.gz
Reflectivity
-20 -20 -20 -20 -20 -20 -20 -20 -20 -20 -20 -20 -20 -20 -20 -20 -20 -20 -20 -20 -20 -20 -20 -20 -20 -17 -13 15 10 21 20 13 6 -16 -3 -12 4 22
-20 -20 -20 -20 -20 -20 -20 -20 -20 -20 -20 -20 -20 -20 -20 -20 -20 -20 -20 -20 -20 -20 -20 6 -5 -18 1 11 -5 -4 4 8 8 14 18 20 20 0
-20 -20 -20 -20 -20 -20 -20 -20 -20 -20 -20 -20 -20 -20 -20 -20 -20 -20 -20 -20 -6 -20 -20 -20 -20 -17 -20 -8 -3 4 13 17 5 18 19 20 23 23
-20 -20 -20 -20 -20 -20 -20 -20 -20 -20 -20 -20 -20 -20 -20 -20 -20 4 5 -20 -19 -20 -20 -20 1 -19 -20 -20 4 6 7 7 11 19 18 15 15 17
-20 -20 -20 -20 -20 -20 -20 -20 -20 -20 -6 9 -20 -20 -15 5 -4 -20 -20 -20 -20 -20 -20 -20 -20 -20 -14 -12 -11 -12 -0 -8 5 -2 3 -8 16 17
-20 -20 -20 -20 -20 -20 -20 -10 -6 6 -16 3 -19 8 -12 -20 -20 -20 -20 -20 -20 -20 -20 -13 -20 -20 -20 -20 -17 -11 -10 4 -7 -19 -7 0 11 12
-20 -20 -20 -20 -20 -18 0 1 -0 4 7 9 9 -4 -20 -20 -20 -20 -20 -4 2 -1 -20 -20 -20 -20 -20 -20 -20 -20 -20 2 5 -1 4 10 12 12
-20 -20 -20 -20 -20 -15 1 4 7 4 16 11 5 -6 -20 -20 -20 -20 9 9 -15 -20 -20 -20 -20 -20 -20 -20 -20 -20 -7 2 -9 -7 9 11 10 14
-20 -20 -20 -20 -20 -20 -20 7 -1 18 -1 -18 -6 -20 -20 -20 -3 10 6 9 -6 -20 -19 -20 -20 -20 -20 -20 -20 -20 -8 1 5 6 9 8 13 13
-20 -20 -20 -20 -20 1 -10 13 -8 -20 -20 -20 -20 -20 7 7 -7 4 6 9 -1 -20 -20 -20 -20 -20 -20 -20 -20 -20 -20 -15 0 4 8 10 11 8
-20 -20 -20 -20 -2 5 8 5 -20 -20 -20 -20 3 6 -19 -20 -14 1 3 -15 -20 -20 -20 -20 -20 -20 -20 -20 -20 -20 -15 3 -8 -7 6 9 11 12
-20 -20 -20 2 2 12 -5 1 -0 -20 -18 5 -20 -20 -20 -20 -20 -20 3 2 -20 -15 -20 -7 -20 -5 -2 -16 -20 -20 -20 -10 -20 -20 1 8 12 19
-20 -20 -15 -15 9 -13 -5 -20 -19 0 -2 -20 -20 -20 -20 -20 -20 -20 -15 13 8 -10 -20 12 -0 -20 -5 -20 -20 -20 -20 -10 -6 -20 -20 -19 0 18
-8 -5 -20 7 -3 -14 -20 -12 4 -2 -20 -20 -20 -14 -20 -20 -20 -20 -20 -20 -11 9 -7 -11 11 -1 1 -16 -20 -20 -20 -1 9 4 -16 -19 -20 2
0 1 2 -19 -20 -20 -20 -19 -20 -20 -20 -20 -3 -20 -20 -20 -20 -20 -20 -20 -20 -13 -10 -20 -1 -16 -9 6 5 -19 -5 -6 -0 -9 12 8 19 18
-17 -20 -20 -20 -20 -20 -20 -20 -20 -20 -19 3 -20 -20 -20 -20 -20 -20 -20 -20 -20 -20 1 -3 -0 6 8 -20 -18 -20 -4 10 21 19 15 21 26 22
-6 -20 -20 -20 -20 -20 -20 -20 -20 -20 -20 -20 -20 -20 -20 -20 -20 -20 -20 -20 -20 -20 -20 -14 -18 -14 -18 -12 -20 -6 -12 -17 17 27 23 13 -2 4
-19 -20 -20 -20 -20 -20 -20 -20 -20 -20 -20 -20 -20 -20 -20 -20 -20 -20 -20 -20 -20 -20 -20 -19 -20 -19 -15 0 -19 -11 -19 -20 4 24 21 -12 -15 -6
-20 -20 -20 -20 -20 -20 -20 -20 -20 -20 -20 -20 -20 -20 -20 -20 -19 -20 -20 -20 -20 -20 -20 -19 -20 -18 -20 -20 -20 -5 10 -18 -17 5 22 -11 1 2
-20 -20 -20 -20 -20 -20 -20 -20 -20 -20 -20 -20 -20 -20 -20 -20 -20 -20 -20 -20 -20 -18 -20 -20 -20 -20 -1 5 6 -20 9 8 -9 -0 11 21 8 8
-20 -20 -20 -20 -20 -20 -20 -20 -20 -20 -6 -5 -20 -20 -20 -20 -20 -20 -20 -20 -13 -20 -20 -20 -20 -20 -20 -20 -20 -20 -20 -15 9 13 -6 -4 -19 -18
-20 -20 -20 -20 -20 -20 -20 -20 -20 -20 -20 -20 -20 -20 -20 -19 -13 -20 -20 -6 -20 -20 -20 -20 -20 -20 -20 -20 -20 -20 -20 -20 -6 -1 -20 21 15 10
-20 -20 -20 -20 -20 -20 -20 -20 -20 -20 -18 -19 -20 -20 -20 -4 -20 -20 -20 -20 -20 -20 -20 -20 -20 -20 -20 -20 -20 -20 -20 -20 -20 -20 -20 6 15 25

GFSNE_prec_radar_036.txt.gz
Reflectivity
-20 -20 -20 -20 -20 -20 -20 -20 -20 -20 -20 -20 -20 -20 -20 -20 -20 -20 -20 -20 -20 -20 -20 -20 -14 -20 -20 -20 -1 -5 -18 -15 13 -10 10 18 13 -20
-20 -20 -20 -20 -20 -20 -20 -20 -20 -20 -20 -20 -20 -20 -20 -20 -20 -20 -20 -20 -20 -13 -20 -20 -7 -20 -20 -19 -20 -18 -20 -15 -0 16 19 -19 -9 -2
-20 -20 -20 -20 -20 -20 -20 -20 -20 -20 -20 -20 -20 -20 -20 -20 -20 -20 -20 -20 -20 -20 -20 -20 -15 -12 -20 -18 5 -0 8 6 13 -1 19 19 19 19
-20 -20 -20 -20 -20 -20 -20 -20 -20 -20 -20 -20 -20 -20 -20 -20 -20 -20 -20 -20 -20 -20 -20 -20 -10 -20 -20 -17 -4 -16 -18 7 7 12 14 19 19 19
-20 -20 -20 -20 -20 -20 -20 -20 -20 -20 -18 -2 -9 -20 -18 -20 -16 -20 -20 -20 -20 -20 -20 -20 -20 -20 -6 -4 -20 -3 2 -0 -0 -4 8 -12 -1 9
-20 -20 -20 -20 -20 -20 -20 -20 -20 -14 -17 -3 2 -10 11 -9 -20 -20 -20 -20 -20 -20 -20 -20 -20 -20 -20 -20 -20 -20 -20 -0 3 6 7 -13 1 11
-20 -20 -20 -20 -20 -20 -20 -20 -8 -10 7 12 12 14 -20 -20 -20 -20 -12 -8 -8 -15 -20 -20 -20 -20 -20 -20 -20 -20 -20 -7 -4 -1 5 9 10 12
-20 -20 -20 -20 -20 -20 -12 -20 1 8 14 18 13 4 -20 -20 -20 -4 6 12 -20 -20 -20 -20 -20 -20 -20 -20 -20 -20 -20 -18 -4 3 6 7 10 12
-20 -20 -20 -20 -20 -20 -20 -20 10 12 13 6 5 -20 -18 -20 -11 12 9 6 6 -20 -4 -20 -20 -20 -20 -20 -20 -20 -20 -20 -3 2 5 8 9 11
-20 -20 -20 -20 -20 -17 2 11 12 4 -20 -20 -20 -20 -1 8 9 -1 6 3 -2 -20 -20 -20 -20 -20 -20 -20 -20 -20 -20 -20 -18 -5 5 11 12 12
-20 -20 -20 -20 -20 4 8 14 -2 -20 -20 -20 -18 5 5 -16 -14 -1 6 9 -20 -20 -20 -20 -20 -20 -20 -20 -20 -20 -20 -20 -20 -18 5 12 16 15
-20 -20 -20 -19 -20 7 2 -1 0 -20 -20 -8 4 -20 -20 -20 -20 -10 3 8 -18 -16 -20 -10 5 -10 -16 -20 -20 -20 -20 -20 -20 -20 -5 12 11 11
-20 -20 -20 -20 5 1 -5 -20 -20 -4 6 -9 -20 -20 -20 -20 -20 -17 -15 8 5 -18 -20 8 6 3 6 -20 -20 -20 -20 -20 -20 -20 -17 -4 4 15
-20 -20 -20 -4 1 -15 -20 -20 -2 4 -20 -20 -20 -13 -5 -1 -3 -5 -9 1 3 -4 -9 2 13 6 -5 -15 -20 -20 -20 -20 -20 -18 -5 13 16 13
1 1 2 -18 -20 -20 -20 -20 -18 -20 -20 -8 1 3 1 1 1 -0 -1 -1 -18 -2 -15 -20 4 1 6 -7 -19 -20 -19 -20 -20 -20 -2 4 20 20
3 4 -20 -20 -20 -20 -20 -20 -20 -20 -20 -1 -3 -1 -1 3 2 1 5 3 -2 -20 -20 -20 -6 7 5 3 -18 -20 -20 -10 -20 -17 2 -15 13 -5
1 -20 -20 -20 -20 -20 -20 -20 -20 -20 -15 -20 2 2 -5 1 -9 -5 1 4 -2 -20 -20 -20 -20 -6 6 -6 -20 -20 -19 -14 -14 -19 19 8 -18 15
-20 -20 -20 -20 -20 -20 -20 -20 -20 -20 -20 -2 -17 -10 3 -7 -8 -3 -4 -20 -4 -20 -20 -20 4 3 -14 -18 -20 -20 -7 -20 -20 -16 9 12 -2 -16
-20 -20 -20 -20 -20 -20 -20 -20 -20 -20 -10 2 -17 -0 -20 2 -6 -20 -20 -19 -6 -12 -5 2 4 9 3 -20 -20 -8 -4 -17 -9 -14 6 13 4 -1
-20 -20 -20 -20 -20 -20 -8 -19 -20 -6 -11 -14 0 -11 -19 -20 -20 -20 -20 -20 -11 -20 -20 -2 5 9 6 5 1 -19 -20 6 8 -4 0 -16 14 17
-20 -20 -20 -20 -20 -18 -20 -18 -20 -20 -2 0 -19 -20 -20 1 -20 -20 -20 -20 -8 -11 -20 1 -4 2 2 -10 4 -20 -20 -19 -2 20 8 -7 -7 -2
-20 -20 -20 -20 -20 -20 -20 -20 -20 -20 -20 -20 -20 -20 -20 -16 1 -20 -20 -20 -20 -4 1 5 -7 1 -1 -3 3 -20 -20 -20 -18 -9 9 18 22 12
-20 -20 -20 -20 -20 -20 -20 -20 -20 -20 -20 -20 -19 -20 -20 -10 -20 -20 -20 -20 1 6 9 3 2 -2 0 5 -0 -20 -20 -20 -20 -16 -20 -9 16 22

GFSNE_prec_radar_039.txt.gz
Reflectivity
-20 -20 -20 -20 -20 -20 -20 -20 -20 -20 -20 -20 -20 -20 -20 -20 -20 -20 -20 -20 -20 -20 -20 -20 -20 -20 -20 -20 -1 7 -0 9 -0 7 19 22 19 -17
-20 -20 -20 -20 -20 -20 -20 -20 -20 -20 -20 -20 -20 -20 -20 -20 -20 -20 -20 -20 -20 -20 -20 -20 -20 -20 -20 -20 -16 -17 -18 5 11 14 21 20 20 21
-20 -20 -20 -20 -20 -20 -20 -20 -20 -20 -20 -20 -20 -20 -20 -20 -20 -20 -20 -20 -20 -20 -20 -20 -20 -20 -20 0 -16 6 -3 6 10 9 10 22 20 18
-20 -20 -20 -20 -20 -20 -20 -20 -20 -20 -20 -20 -20 -20 -20 -20 -20 -20 -20 -20 -20 -20 -20 -2 -20 -20 -7 -4 5 -3 3 5 0 10 -16 8 12 13
-20 -20 -20 -20 -20 -20 -20 -20 -20 -20 -20 -20 -20 -20 -20 -18 -13 -12 -20 -20 -20 -20 -20 -20 -20 -20 -20 -20 -20 -20 -16 -4 -19 -0 -17 5 7 10
-20 -20 -20 -20 -20 -20 -20 -20 -20 -20 -20 -20 -20 -20 0 4 2 -20 -20 -20 -20 -20 -20 -20 -20 -20 -20 -20 -20 -20 -20 -11 -2 -4 3 6 2 6
-20 -20 -20 -20 -20 -20 -20 -20 -19 -7 -20 -15 4 6 10 -20 -20 -20 -20 -20 -20 -20 -20 -20 -20 -20 -20 -20 -20 -20 -20 -20 -9 -6 3 6 7 11
-20 -20 -20 -20 -20 -20 -20 -20 -4 -2 4 13 11 9 -13 -20 -20 -19 -20 -5 1 -20 -20 -20 -20 -20 -20 -20 -20 -20 -20 -20 -20 4 6 3 9 9
-20 -20 -20 -20 -20 -20 -20 -20 -20 -13 10 7 6 0 -17 -20 -20 -20 4 6 -20 -20 -20 -20 -20 -20 -20 -20 -20 -20 -20 -20 -20 -20 -6 1 7 10
-20 -20 -20 -20 -20 -20 -20 -15 -8 -5 2 -19 -12 -20 -20 -18 8 19 -7 -20 -20 -20 -6 -20 -20 -20 -20 -20 -20 -20 -20 -20 -20 -20 -20 -16 4 10
-20 -20 -20 -20 -20 -20 3 3 5 -17 -20 -20 -20 -20 0 -3 -18 -20 -20 4 -20 -20 -20 -20 -20 -20 -20 -20 -20 -20 -20 -20 -20 -20 -20 -15 1 10
-20 -20 -20 -20 -5 -20 -0 -13 -19 -20 -20 -19 -20 -20 -20 -20 -20 -20 -5 5 -20 -20 -20 -2 -15 -18 -10 -20 -20 -20 -20 -20 -20 -20 -20 -20 6 18
-20 -20 -20 -20 -20 8 2 -8 -20 -10 -17 -14 -20 -20 -20 -20 -20 -14 -20 2 5 -16 -20 3 6 -20 -5 -20 -20 -20 -20 -20 -20 -20 -20 -19 5 21
-20 -20 -20 -4 7 1 -7 -20 -2 1 -20 -20 -20 -20 -11 -3 -1 -13 -14 -12 -16 -15 -20 -12 13 -5 -6 -15 -20 -20 -20 -20 -20 -20 -20 -17 6 10
-20 -4 -0 -3 -18 -20 -20 -20 -18 -20 -20 -20 -11 -14 -8 -18 -18 -8 -18 -5 -4 -18 -20 -20 -18 -19 -3 -6 -20 -20 -19 -20 -20 -20 -9 -18 -5 -17
-8 -8 -20 -20 -20 -20 -20 -20 -20 -20 -20 -20 -20 -20 -20 -20 -10 -14 -17 -6 -20 -20 -20 -20 -20 -2 5 -20 -7 -18 -20 -20 -20 -12 -13 -6 -20 -20
0 -20 -20 -20 -20 -20 -20 -20 -20 -20 -20 -7 -5 -20 -20 -20 -20 -20 -20 -19 -12 -20 -20 -20 -20 -18 -20 -20 8 -20 -20 -20 -15 -20 -0 -2 -20 -20
-20 -20 -20 -20 -20 -20 -20 -20 -20 -20 -20 -6 -20 -20 -20 -20 -20 -20 -20 -20 -19 -20 -20 -20 -20 -20 -20 2 9 -7 -19 -20 -20 -20 -18 -4 -20 -20
-20 -20 -20 -20 -20 -20 -20 -17 -20 -20 -20 -20 -20 -20 -20 -20 -20 -20 -20 -20 -20 -20 -20 -20 -18 -13 0 -20 -20 -1 3 -20 -20 -20 -2 -20 -20 -20
-20 -20 -20 -20 -20 -18 -8 -20 -20 -20 -20 -20 -20 -20 -20 -20 -20 -20 -20 -20 -20 -20 -20 -20 -18 -20 9 11 5 -20 -20 -8 2 -7 -20 -20 -20 -11
-20 -20 -20 -20 -20 -20 -20 -20 -20 -20 -8 -1 -20 -20 -20 -5 -20 -20 -20 -20 -9 -20 -20 -20 -20 6 -14 -14 -20 -20 -20 -20 -1 12 0 -9 -17 -20
-20 -20 -20 -20 -20 -20 -20 -20 -20 -20 -20 -20 -20 -20 -1 -12 -18 -20 -20 -20 -20 -20 -20 -20 -17 -20 -12 -13 -20 -20 -20 -20 -19 -20 -19 21 23 9
-20 -20 -20 -20 -20 -20 -20 -20 -20 -20 -20 -20 -9 -2 7 5 -20 -20 -20 -20 -20 -8 -2 -20 -20 -15 -18 -20 -10 -6 -20 -20 -20 -20 -20 -6 11 13

GFSNE_prec_radar_042.txt.gz
Reflectivity
-20 -20 -20 -20 -20 -20 -20 -20 -20 -20 -20 -20 -20 -20 -20 -20 -20 -20 -20 -20 -20 -20 -20 -20 -20 -20 -2 -20 -19 -8 11 9 14 16 21 21 20 21
-20 -20 -20 -20 -20 -20 -20 -20 -20 -20 -20 -20 -20 -20 -20 -20 -20 -20 -20 -20 -20 -20 -20 -20 -14 -20 -19 -20 -11 5 8 11 12 15 15 22 20 19
-20 -20 -20 -20 -20 -20 -20 -20 -20 -20 -20 -20 -20 -20 -20 -20 -20 -20 -20 -20 -20 -20 -20 -20 -20 -7 -20 -4 1 -5 -9 10 11 9 13 16 5 20
-20 -20 -20 -20 -20 -20 -20 -20 -20 -20 -20 -20 -20 -20 -20 -20 -20 -20 -20 -20 -20 -20 -20 -20 -20 -20 -20 -20 -9 2 4 5 3 2 9 6 5 11
-20 -20 -20 -20 -20 -20 -20 -20 -20 -20 -20 -20 -20 -20 -20 -20 -20 -20 -20 -20 -20 -20 -20 -20 -20 -20 -20 -20 -18 -3 -9 -19 -20 3 6 5 7 9
-20 -20 -20 -20 -20 -20 -20 -20 -20 -20 -20 -20 -20 -20 -20 -20 -19 -7 -20 -20 -20 -20 -20 -20 -6 -20 -20 -20 -20 -20 -20 -20 -20 -12 -10 6 7 9
-20 -20 -20 -20 -20 -20 -20 -20 -20 -20 -20 -20 -18 0 -8 -3 -16 -20 -20 -20 -20 -20 -20 -20 -20 -20 -20 -20 -20 -20 -20 -12 9 9 6 11 12 10
-20 -20 -20 -20 -20 -20 -20 -20 -20 -7 -2 -1 -16 7 -1 -13 -20 -20 -20 -20 -20 -20 -20 -20 -20 -20 -20 -20 -20 -20 -20 1 11 2 2 4 7 8
-20 -20 -20 -20 -20 -20 -20 -20 -20 -20 5 5 2 -11 -16 -20 -20 -20 -20 -9 -11 -20 -20 -20 -20 -20 -20 -20 -20 -20 -20 -20 -20 9 9 1 9 13
-20 -20 -20 -20 -20 -20 -20 -20 -20 -20 -20 -20 -6 -20 -20 -20 -7 15 -2 -20 -20 -20 -20 -20 -20 -20 -20 -20 -20 -20 -20 -20 -20 -20 -20 5 13 15
-20 -20 -20 -20 -20 -20 -2 -20 -20 -20 -20 -20 -20 -20 3 -0 -17 -20 -20 -20 -20 -20 -20 -20 -20 -20 -20 -20 -20 -20 -20 -20 -20 -20 -20 -15 12 8
-20 -20 -20 -20 -20 -18 4 5 -7 -20 -20 -19 -20 -20 -20 -20 -20 -20 -20 -11 -20 -20 -20 -6 -17 -20 -15 -20 -20 -20 -20 -20 -20 -20 -20 -20 -19 -0
-20 -20 -20 -20 -20 9 8 -10 -20 -10 -16 -20 -20 -20 -20 -20 -20 -20 -13 -1 -5 -19 -20 10 6 -20 -10 -20 -20 -20 -20 -20 -20 -20 -20 -20 -20 2
-20 -20 -20 2 1 -20 -8 -20 -20 -6 -20 -20 -20 -20 -20 -20 -20 -20 -20 -20 -20 -20 -20 -19 11 -7 -3 -18 -20 -20 -20 -20 -20 -20 -20 -20 -20 -1
-20 -20 -1 -4 -20 -20 -20 -20 -20 -20 -20 -20 -20 -20 -20 -20 -20 -20 -20 -20 -20 -20 -20 -20 -18 -19 -3 -4 -20 -20 -20 -20 -20 -20 -20 -20 -20 -20
-20 -20 -20 -20 -20 -20 -20 -20 -20 -20 -20 -20 -20 -20 -20 -20 -20 -20 -20 -20 -20 -20 -20 -20 -20 -16 2 -20 -4 -12 -20 -20 -20 -20 -20 -1 -20 -20
-8 -20 -20 -20 -20 -20 -20 -20 -20 -20 -20 -20 -20 -20 -20 -20 -20 -20 -20 -20 -13 -20 -20 -20 -20 -20 -20 -20 -16 -20 -20 -20 -20 -20 -20 -20 -20 -20
-20 -20 -20 -20 -20 -20 -20 -20 -20 -20 -20 -20 -20 -20 -20 -20 -20 -20 -20 -20 -20 -20 -20 -20 -20 -20 -20 -20 11 11 -5 -20 -20 -20 -20 -16 -19 -20
-20 -20 -20 -20 -20 -20 -20 -20 -20 -20 -20 -20 -20 -20 -20 -20 -20 -20 -20 -20 -20 -20 -20 -20 -20 -15 -3 -20 1 4 10 -9 -20 -20 -20 -7 -19 -20
-20 -20 -20 -20 -20 -20 -20 -20 -20 -20 -20 -20 -20 -20 -20 -11 -20 -20 -20 -20 -19 -18 -20 -20 -20 -8 11 8 3 -20 -20 -14 -10 -4 -20 -20 -20 -20
-20 -20 -20 -20 -20 -20 -20 -20 -20 -20 -20 -20 -20 -20 -20 -2 -20 -20 -20 -20 -18 -20 -20 -20 -20 -1 -10 -20 -18 -20 -20 -18 -6 8 3 -9 -20 -20
-20 -20 -20 -20 -20 -20 -20 -20 -20 -20 -20 -20 -20 -20 -19 -7 1 -13 -20 -20 -20 -20 -20 -20 -20 -20 -20 -20 -20 -20 -20 -20 -20 -20 -0 9 17 13
-20 -20 -20 -20 -20 -20 -20 -20 -20 -20 -20 -20 -20 -8 -0 6 -20 -20 -20 -20 -20 -20 -12 -20 -20 -20 -20 -20 -7 -20 -20 -20 -20 -20 -20 -20 -20 -20

GFSNE_prec_radar_045.txt.gz
Reflectivity
-20 -20 -20 -20 -20 -20 -20 -20 -20 -20 -20 -20 -20 -20 -20 -20 -20 -20 -20 -20 -20 -20 -20 -20 -20 -20 -20 -20 -1 -1 0 14 18 20 17 22 20 21
-20 -20 -20 -20 -20 -20 -20 -20 -20 -20 -20 -20 -20 -20 -20 -20 -20 -20 -20 -20 -20 -20 -20 -5 -20 -20 -12 2 -4 3 -2 8 9 12 22 20 20 19
-20 -20 -20 -20 -20 -20 -20 -20 -20 -20 -20 -20 -20 -20 -20 -20 -20 -20 -20 -20 -20 -20 -20 -20 -20 -14 -20 -18 -16 -0 -1 9 -4 9 17 21 21 20
-20 -20 -20 -20 -20 -20 -20 -20 -20 -20 -20 -20 -20 -20 -20 -20 -20 -20 -20 -20 -20 -20 -20 -20 -20 -20 -20 -20 5 4 -15 7 9 9 1 5 6 9
-8 -20 -20 -20 -20 -20 -20 -20 -20 -20 -20 -20 -20 -20 -20 -20 -20 -20 -20 -20 -20 -20 -20 -20 -20 -20 0 -3 -18 -20 -20 -20 -20 -2 8 11 10 12
-10 -5 -20 -20 -20 -20 -20 -20 -20 -20 -20 -20 -20 -20 -20 -20 -20 -20 -20 -20 -20 -20 -20 -20 -20 -20 -20 -20 -20 -20 -20 -6 0 -9 -6 10 12 14
-14 -20 -20 -20 -20 -20 -20 -20 -20 -20 -20 -20 -20 -20 -9 -20 -20 -20 -20 -20 -20 -20 -20 -20 -20 -20 -20 -20 -20 -20 -20 1 6 7 6 11 15 15
-20 -20 -20 -20 -20 -20 -20 -20 -20 -20 -20 -20 3 1 -20 -20 -20 -20 -20 -20 -20 -20 -20 -20 -20 -20 -20 -20 -20 -20 -20 -0 3 9 11 13 15 15
-20 -20 -20 -20 -20 -20 -20 -20 -20 -20 -5 6 -20 -20 -3 -20 -20 -20 -18 -12 -1 -20 -20 -20 -20 -20 -20 -20 -20 -20 -20 -10 -5 1 9 11 11 12
-20 -20 -20 -20 -20 -20 -20 -20 -20 -20 -20 -20 -19 -15 -18 -18 5 6 -9 -20 -20 -20 -20 -20 -20 -20 -20 -20 -20 -20 -20 -20 -6 -2 -17 -20 1 8
-20 -20 -20 -20 -20 -20 -20 -20 -20 -20 -20 -20 -20 -1 1 -19 -17 -10 -20 -20 -20 -20 -20 -20 -20 -20 -20 -20 -20 -20 -20 -20 -20 -20 -20 -17 -14 10
-20 -20 -20 -20 -20 -18 5 -16 -20 -20 -20 -20 -20 -20 -20 -20 -20 -20 -20 -20 -20 -19 -20 -11 -19 -20 -18 -20 -20 -20 -20 -20 -20 -20 -20 -20 -20 -20
-20 -20 -20 -20 -0 3 -1 -20 -20 -11 -20 -20 -20 -20 -20 -20 -20 -20 -20 -15 -12 -15 -20 10 5 -20 -6 -20 -20 -20 -20 -20 -20 -20 -20 -20 -20 -3
-20 -20 -20 -0 -1 -13 -15 -20 -19 -20 -20 -20 -20 -20 -20 -20 -20 -20 -20 -20 -20 -18 -20 -19 12 -15 1 -13 -20 -20 -20 -20 -20 -20 -20 -20 -20 -20
-20 -17 3 -5 -20 -20 -20 -20 -20 -20 -20 -20 -20 -20 -20 -20 -20 -20 -20 -20 -20 -20 -20 -20 -19 -20 -16 -9 -20 -20 -20 -20 -20 -20 -20 -20 -20 -20
-20 -20 -20 -20 -20 -20 -20 -20 -20 -20 -20 -20 -20 -20 -20 -20 -20 -20 -20 -20 -20 -20 -20 -20 -20 -20 -14 -19 -20 -20 -20 -20 -20 -20 -20 -20 -20 -20
-14 -20 -20 -20 -20 -20 -20 -20 -20 -20 -20 -20 -20 -20 -20 -20 -20 -20 -20 -20 -20 -20 -20 -20 -20 -20 -20 -20 -20 -20 -20 -20 -20 -20 -20 -20 -20 -20
-20 -20 -20 -20 -20 -20 -20 -20 -20 -20 -20 -20 -20 -20 -20 -20 -20 -20 -20 -17 -20 -20 -20 -20 -20 -20 -20 -20 -17 -3 -11 -20 -20 -20 -20 -18 -20 -20
-20 -20 -20 -20 -20 -20 -20 -20 -20 -20 -20 -20 -20 -20 -20 -20 -20 -20 -20 -20 -20 -20 -20 -20 -20 -4 1 -20 -2 7 15 1 -20 -20 -20 -20 -19 -20
-20 -20 -20 -20 -20 -20 -20 -20 -20 -20 -20 -20 -20 -20 -13 -5 -20 -20 -20 -20 -20 -20 -20 -20 -20 -15 7 3 6 -20 -10 7 6 -8 -20 -20 -20 -20
-20 -20 -20 -20 -20 -20 -20 -20 -20 -20 -20 -20 -20 -20 -20 -8 -20 -20 -20 -20 -19 -20 -20 -20 -20 -20 -11 -12 -19 -20 -20 -3 -9 5 -3 5 -19 -20
-20 -20 -20 -20 -20 -20 -20 -20 -20 -20 -20 -20 -20 -20 -20 -20 -20 -20 -20 -18 -20 -20 -20 -20 -20 -20 -20 -11 -20 -20 -20 -20 -20 -20 -20 -2 14 14
-20 -20 -20 -20 -20 -20 -20 -20 -20 -20 -20 -17 -18 -20 -20 -20 -20 -20 -20 -20 -20 -20 -12 -8 -20 -20 -20 -5 1 -12 -20 -20 -20 -20 -20 -20 -20 -20

GFSNE_prec_radar_048.txt.gz
Reflectivity
18 -7 -18 -20 -20 -20 -20 -20 -20 -20 -20 -20 -20 -20 -20 -20 -20 -20 -20 -20 -20 -20 -20 -20 -20 -20 -20 -20 -19 4 7 -20 -3 -16 14 14 19 19
-6 -20 -20 -20 -20 -20 -20 -20 -20 -20 -20 -20 -20 -20 -20 -20 -20 -20 -20 -20 -20 -20 -20 -19 -20 -7 -20 2 -13 -19 7 -13 9 11 12 20 13 19
3 -18 -20 -20 -20 -20 -20 -20 -20 -20 -20 -20 -20 -20 -20 -20 -20 -20 -20 -20 -20 -20 -20 -20 -20 -20 0 -20 -20 -11 2 9 14 9 10 12 20 20
22 -16 -20 14 -12 -20 -20 -20 -20 -20 -20 -20 -20 -20 -20 -20 -20 -20 -20 -20 -20 -20 -20 -20 -19 -20 -20 -2 -16 9 9 -17 -0 5 5 -5 5 -2
-15 18 14 9 -12 -19 -20 -20 -20 -20 -20 -20 -20 -20 -20 -20 -20 -20 -20 -20 -20 -20 -20 -20 -20 -20 -20 1 4 -17 -20 -19 -18 -16 -17 -9 7 8
25 9 2 -6 -20 -20 -20 -20 -20 -20 -20 -20 -20 -20 -20 -20 -20 -20 -20 -20 -20 -20 -20 -20 -20 -20 -20 -20 -20 -20 -20 -20 -11 2 5 9 8 14
14 -18 -20 -20 -20 -20 -20 -20 -20 -20 -20 -20 -20 -20 -20 -20 -20 -20 -20 -20 -20 -20 -20 -20 -20 -20 -20 -20 -20 -20 -20 -6 4 4 9 10 9 13
-20 -20 -20 -20 -20 -20 -20 -20 -20 -20 -20 -20 -20 -20 -20 -20 -20 -20 -20 -20 -20 -20 -20 -20 -20 -20 -20 -20 -20 -20 -20 -16 1 1 8 7 11 12
-20 -20 -20 -20 -20 -20 -20 -20 -20 -20 -20 5 -10 -20 -20 -20 -20 -20 -20 -2 -20 -20 -20 -20 -20 -20 -20 -20 -20 -20 -20 -9 -11 2 -13 9 8 12
-20 -20 -20 -20 -20 -20 -20 -20 -20 -20 -20 -20 -19 -18 -18 -20 -1 -9 -19 -20 -20 -20 -20 -20 -20 -20 -20 -20 -20 -20 -20 -20 -20 -4 1 -1 -5 -1
-20 -20 -20 -20 -20 -20 -20 -20 -20 -20 -20 -20 -20 -12 -5 -15 -17 -20 -20 -20 -20 -20 -20 -20 -20 -20 -20 -20 -20 -20 -20 -20 -20 -20 -20 -3 1 11
-20 -20 -20 -20 -20 -18 1 -20 -20 -20 -20 -20 -20 -20 -20 -20 -20 -20 -20 -20 -20 -20 -20 -20 -20 -20 -20 -20 -20 -20 -20 -20 -20 -20 -20 -20 -2 -20
-20 -20 -20 -20 0 2 -3 -20 -20 -16 -20 -20 -20 -20 -20 -20 -20 -20 -20 -20 -20 -20 -20 6 2 -20 -4 -20 -20 -20 -20 -20 -20 -20 -20 -20 -20 -1
-20 -20 -20 -2 -14 -20 -20 -20 -20 -20 -20 -20 -20 -20 -20 -20 -20 -20 -20 -20 -20 -20 -20 -20 13 -20 -8 -16 -20 -20 -20 -20 -20 -20 -20 -20 -20 -12
-20 -20 -18 -20 -20 -20 -20 -20 -20 -20 -20 -20 -20 -20 -20 -20 -20 -20 -20 -20 -20 -20 -20 -20 -20 -20 -13 -11 -20 -20 -20 -20 -20 -20 -20 -20 -20 -20
-20 -20 -20 -20 -20 -20 -20 -20 -20 -20 -20 -20 -20 -20 -20 -20 -20 -20 -20 -20 -20 -20 -20 -20 -20 -20 -19 -20 -18 -20 -20 -20 -20 -20 -20 -20 -20 -20
-20 -20 -20 -20 -20 -20 -20 -20 -20 -20 -20 -20 -20 -20 -20 -20 -20 -20 -20 -20 -20 -20 -20 -20 -20 -20 -20 -20 -20 -20 -20 -20 -20 -20 -20 -20 -20 -20
-20 -20 -20 -20 -20 -20 -20 -20 -20 -20 -20 -20 -20 -20 -20 -20 -20 -20 -20 -20 -20 -20 -20 -20 -20 -20 -20 -20 0 -11 -15 -20 -20 -20 -20 -18 -20 -20
-20 -20 -20 -20 -20 -20 -20 -20 -20 -20 -20 -20 -20 -20 -20 -20 -19 -20 -20 -20 -20 -20 -20 -20 -19 -3 4 -20 -14 11 19 12 -4 -19 -20 -20 -20 -20
-20 -20 -20 -20 -20 -20 -20 -20 -20 -20 -20 -20 -20 -20 -20 -20 -20 -20 -20 -20 -20 -20 -20 -20 -20 -15 4 -2 9 -1 12 9 2 -10 -20 -20 -20 -20
-20 -20 -20 -20 -20 -20 -20 -20 -20 -20 -20 -20 -20 -20 -20 -16 -20 -20 -20 -20 -19 -20 -20 -20 -20 -11 -2 -7 -17 -18 -7 4 3 11 5 -4 -20 -20
-20 -20 -20 -20 -20 -20 -20 -20 -20 -20 -20 -20 -20 -20 -20 -18 -20 -20 -20 -10 -20 -20 -20 -20 -20 -5 -17 -4 -18 -20 -20 -20 -20 -15 5 12 17 15
-20 -20 -20 -20 -20 -20 -20 -20 -20 -20 -20 -20 -20 -20 -20 -20 -20 -20 -20 -18 -19 -9 -20 -20 -19 -17 -15 -0 -7 -5 -20 -20 -20 -20 -1 4 -6 -10

GFSNE_prec_radar_051.txt.gz
Reflectivity
11 -1 20 16 9 3 -20 -20 -20 -20 -20 -20 -18 -20 -20 -20 -20 -20 -20 -20 -20 -20 -20 -20 -20 -20 -20 -20 -20 -20 -2 2 4 9 10 -5 14 19
18 12 -0 24 9 -18 -20 -20 -20 -20 -20 -20 -20 -20 -20 -20 -20 -20 -20 -20 -20 -20 -20 -20 -20 -13 -20 -20 -20 -7 -10 -12 -0 8 13 9 20 20
-5 30 -2 10 -3 -8 -20 -20 -5 -20 -20 -20 -20 -20 -20 -20 -20 -20 -20 -20 -20 -20 -20 -20 -9 -2 1 -14 -20 -9 5 8 11 13 16 15 12 13
19 11 15 26 -10 10 23 -3 -2 -20 -20 -20 -20 -20 -20 -20 -20 -20 -20 -20 -20 -20 -20 -20 -11 -20 -18 -3 -20 7 10 13 11 6 9 8 9 -1
26 39 24 26 26 6 4 12 -3 -20 -20 -20 -20 -20 -20 -20 -20 -20 -20 -20 -20 -20 -20 -20 -20 -20 -4 2 -3 -18 -20 -16 -17 -16 -20 -20 -16 3
20 21 29 23 12 9 -9 -20 -20 -20 -20 -20 -20 -20 -20 -20 -20 -20 -20 -20 -20 -20 -20 -20 -20 -20 -20 -20 -20 -20 -20 -20 -3 1 4 -5 -12 8
16 -13 -4 23 13 3 -10 -20 -20 -20 -20 -20 -20 -20 -20 -20 -20 -20 -20 -20 -20 -20 -20 -20 -20 -20 -20 -20 -20 -20 -20 -18 -0 9 7 9 7 11
14 21 20 12 -11 -20 -20 -20 -20 -20 -20 -20 -20 -20 -20 -20 -20 -20 -20 -20 -20 -20 -20 -20 -20 -20 -20 -20 -20 -20 -20 -20 1 2 11 6 9 11
-11 -5 -1 -1 -20 -20 -20 -20 -20 -20 -20 -20 -20 -20 -20 -20 -20 -20 -20 -17 -20 -20 -20 -20 -20 -20 -20 -20 -20 -20 -20 -20 -3 2 8 7 10 9
6 -8 -20 -20 -20 -20 -20 -20 -20 -20 -20 -20 -20 -20 -20 -20 -14 -8 -19 -20 -20 -20 -20 -20 -20 -20 -20 -20 -20 -20 -20 -20 -20 -4 1 2 4 2
-20 -20 -20 -20 -20 -20 -20 -20 -20 -20 -20 -20 -20 -19 -16 -16 -20 -20 -20 -20 -20 -20 -20 -20 -20 -20 -20 -20 -20 -20 -20 -20 -20 -20 -20 -4 -2 2
-20 -20 -20 -20 -20 -19 -1 -20 -20 -20 -20 -20 -20 -20 -20 -20 -20 -20 -20 -20 -20 -20 -20 -20 -20 -20 -20 -20 -20 -20 -20 -20 -20 -20 -20 -20 -20 -20
-20 -20 -20 -20 -1 0 -9 -20 -20 -14 -20 -20 -20 -20 -20 -20 -20 -20 -20 -20 -20 -20 -20 8 -2 -20 -14 -20 -20 -20 -20 -20 -20 -20 -20 -20 -20 0
-20 -20 -20 -9 -13 -20 -20 -20 -5 -6 -20 -20 -20 -20 -20 -20 -20 -20 -20 -20 -20 -20 -20 -19 12 -20 -10 -18 -20 -20 -20 -20 -20 -20 -20 -20 -20 -15
-20 -17 -19 -20 -20 -20 -20 -20 -20 -20 -20 -20 -20 -20 -20 -20 -20 -20 -20 -20 -20 -20 -20 -20 -19 -20 -15 -14 -20 -20 -20 -20 -20 -20 -20 -20 -20 -20
-20 -20 -20 -20 -20 -20 -20 -20 -20 -20 -20 -20 -20 -20 -20 -20 -20 -20 -20 -20 -20 -20 -20 -20 -20 -20 -19 -20 -17 -20 -20 -20 -20 -20 -20 -20 -20 -20
-20 -20 -20 -20 -20 -20 -20 -20 -20 -20 -20 -20 -20 -20 -20 -20 -20 -20 -20 -20 -20 -20 -20 -20 -20 -20 -20 -20 -20 -20 -20 -20 -20 -20 -20 -20 -20 -20
-20 -20 -20 -20 -20 -20 -20 -20 -20 -20 -20 -20 -20 -20 -20 -20 -20 -20 -20 -20 -20 -20 -20 -20 -20 -20 -20 -6 5 -14 -19 -20 -20 -20 -20 -13 -20 -17
-20 -20 -20 -20 -20 -20 -20 -20 -20 -20 -20 -20 -20 -20 -20 -20 -20 -20 -20 -20 -20 -20 -20 -20 -17 -1 2 -10 11 18 21 12 -2 -5 -20 -20 -20 -20
-20 -20 -20 -20 -20 -20 -20 -20 -20 -20 -20 -20 -20 -20 -20 -20 -20 -20 -20 -20 -20 -20 -20 -20 -20 5 12 7 11 -3 11 14 7 -4 -20 -20 -20 -20
-20 -20 -20 -20 -20 -20 -20 -20 -20 -20 -20 -20 -20 -20 -20 -20 -20 -20 -20 -20 -20 -20 -20 -20 -20 -14 -9 -10 -17 -20 -4 16 16 17 2 -11 -20 -20
-20 -20 -20 -20 -20 -20 -20 -20 -20 -20 -20 -20 -20 -20 -20 -20 -20 -20 -20 -20 -20 -20 -20 -20 -20 -20 -20 -8 -19 -20 -20 -12 12 10 7 8 15 10
-20 -20 -20 -20 -20 -20 -20 -20 -20 -20 -20 -20 -19 -20 -20 -20 -20 -20 -20 -20 -20 -20 -20 -20 -20 -20 -20 0 2 3 -20 -20 -20 -4 6 15 -10 -20

GFSNE_prec_radar_054.txt.gz
Reflectivity
-20 17 -15 -6 -13 31 12 -9 -18 -20 -19 -20 4 -19 -20 -20 -20 -20 -20 -20 -20 -20 -20 -20 -20 -20 -20 -0 -13 -9 -17 -20 -1 9 2 -1 12 17
-20 -20 1 16 1 -17 30 13 3 -11 -18 -20 -19 8 -18 -20 -20 -20 -20 -20 -20 -20 -20 -20 -20 -15 -8 -20 -20 -20 -7 -20 -14 1 -3 11 15 9
-20 -14 -15 13 -1 11 6 36 26 37 32 -20 -20 -19 -19 -20 -20 -20 -20 -20 -20 -20 -20 -20 -13 -7 -2 -15 -20 -4 6 -4 -20 -4 10 13 17 15
4 -10 17 14 11 27 25 37 27 0 -12 -3 -20 -20 -20 -20 -20 -20 -20 -20 -20 -20 -20 -20 -20 -20 -2 -3 -19 11 8 9 11 11 10 9 12 8
7 16 22 -3 32 21 19 12 -11 -11 -6 -16 -12 -20 -20 -20 -20 -20 -20 -20 -20 -20 -20 -20 -20 -20 -20 -8 1 -20 -20 -17 -16 -12 8 -1 -17 -20
26 15 19 21 25 28 18 3 -1 -12 -0 -12 -20 -20 -20 -20 -20 -20 -20 -20 -20 -20 -20 -20 -20 -20 -20 -20 -20 -20 -20 -20 -13 1 -0 1 -7 -12
21 24 24 34 32 24 5 -7 -18 -20 -20 -20 -20 -20 -20 -20 -20 -20 -20 -20 -20 -20 -20 -20 -20 -20 -20 -20 -20 -20 -20 -20 -3 3 -4 11 10 12
33 28 17 9 16 12 -15 -20 -20 -20 -20 -20 -20 -20 -20 -20 -20 -20 -20 -20 -20 -20 -20 -20 -20 -20 -20 -20 -20 -20 -20 -20 -14 2 10 11 10 11
26 12 -1 -2 -9 -20 -20 -20 -20 -20 -20 -20 -20 -20 -20 -20 -20 -20 -20 -20 -20 -20 -20 -20 -20 -20 -20 -20 -20 -20 -20 -20 -8 1 3 5 10 7
10 -18 -20 -20 -20 -20 -20 -20 -20 -20 -20 -20 -20 -20 -20 -20 -20 -17 -20 -20 -20 -20 -20 -20 -20 -20 -20 -20 -20 -20 -20 -20 -20 -7 0 -3 7 6
-20 -20 -20 -20 -20 -20 -20 -20 -20 -20 -20 -20 -20 -20 -17 -20 -20 -20 -20 -20 -20 -20 -20 -20 -20 -20 -20 -20 -20 -20 -20 -20 -20 -20 -20 -15 -2 -0
-20 -20 -20 -20 -20 -3 -20 -20 -20 -20 -20 -20 -20 -20 -20 -20 -20 -20 -20 -20 -20 -20 -20 -20 -20 -20 -20 -20 -20 -20 -20 -20 -20 -20 -20 -20 -13 -20
-20 -20 -20 -20 -14 -9 -9 -20 -20 -14 -20 -20 -20 -20 -20 -20 -20 -20 -20 -20 -20 -20 -20 -6 -8 -20 -18 -20 -20 -20 -20 -20 -20 -20 -20 -20 -20 -2
-20 -20 -20 -3 -20 -20 -20 -20 -4 -20 -20 -20 -20 -20 -20 -20 -20 -20 -20 -20 -20 -20 -20 -20 4 -20 -15 -20 -20 -20 -20 -20 -20 -20 -20 -20 -20 -20
-20 -20 -20 -20 -20 -20 -20 -20 -20 -20 -20 -20 -20 -20 -20 -20 -20 -20 -20 -20 -20 -20 -20 -20 -20 -20 -18 -20 -20 -20 -20 -20 -20 -20 -20 -20 -20 -20
-20 -20 -20 -20 -20 -20 -20 -20 -20 -20 -20 -20 -20 -20 -20 -20 -20 -20 -20 -20 -20 -20 -20 -20 -20 -20 -16 -18 -12 -19 -20 -20 -20 -20 -20 -20 -20 -20
-20 -20 -20 -20 -20 -20 -20 -20 -20 -20 -20 -20 -20 -20 -20 -20 -20 -20 -20 -20 -20 -20 -20 -20 -20 -20 -20 8 14 -17 -20 -20 -20 -20 -20 -20 -20 -19
-20 -20 -20 -20 -20 -20 -20 -20 -20 -20 -20 -20 -20 -20 -20 -20 -20 -20 -20 -20 -20 -20 -20 -20 -20 -20 -8 12 10 3 -14 -20 -20 -20 -20 -18 -20 2
-20 -20 -20 -20 -20 -20 -20 -20 -20 -20 -20 -20 -20 -20 -20 -20 -20 -20 -20 -20 -20 -20 -20 -20 -20 -3 -9 -20 9 18 22 7 -20 -20 -20 -20 -20 -20
-20 -20 -20 -20 -20 -20 -20 -20 -20 -20 -20 -20 -20 -20 -20 -20 -20 -20 -20 -20 -20 -20 -20 -20 -20 4 13 12 9 -20 12 15 -4 -16 -20 -19 -13 -13
-20 -20 -20 -20 -20 -20 -20 -20 -20 -20 -20 -20 -20 -20 -20 -20 -20 -20 -20 -20 -20 -20 -20 -20 -20 -1 -11 -20 -20 -20 -3 16 21 16 3 -5 -20 -20
-20 -20 -20 -20 -20 -20 -20 -20 -20 -20 -20 -20 -20 -20 -20 -20 -20 -20 -20 -20 -20 -20 -20 -20 -20 -20 -20 -15 -20 -20 -20 -17 4 6 14 17 14 4
-20 -20 -20 -20 -20 -20 -20 -20 -20 -20 -20 -20 -20 -20 -20 -20 -20 -19 -19 -20 -20 -8 -20 -20 -20 -20 -20 -19 -7 -10 -20 -20 -20 -20 4 9 -5 -20

GFSNE_prec_radar_057.txt.gz
Reflectivity
14 -19 -12 7 -20 -20 25 9 -19 -17 -2 -4 0 10 4 24 18 -14 -19 -20 -20 -20 -20 -20 -20 -20 -18 -20 -0 -18 -3 -20 -20 -3 -1 -18 3 14
-20 2 -13 -0 4 -10 -11 -20 -5 35 5 30 13 30 29 28 24 12 -9 -20 -20 -20 -20 -20 -20 -17 -12 -11 -17 -8 -7 -20 -20 -13 6 2 17 17
-20 -20 -20 -10 -17 -5 4 10 11 19 13 14 24 17 7 6 -15 -20 -20 -20 -20 -20 -20 -20 -20 -20 -16 -20 -20 -20 -0 5 -1 11 16 14 16 17
-7 35 -19 9 25 3 17 27 32 28 17 21 19 29 20 15 12 5 -18 -20 -20 -20 -20 -20 -20 -20 -20 -18 -1 -20 -19 1 5 8 10 9 7 13
8 14 -18 -20 23 17 31 35 20 14 28 18 20 22 -6 2 -5 -18 -20 -20 -20 -20 -20 -20 -20 -20 -20 -20 -9 -15 -20 -20 -11 -1 2 -20 -20 -16
-7 0 14 33 35 37 17 5 7 19 29 21 10 -8 -14 -20 -20 -20 -20 -20 -20 -20 -20 -20 -20 -20 -20 -20 -20 -20 -20 -20 -20 -11 -3 -10 -3 -1
24 38 33 27 17 14 21 27 17 9 13 -7 -16 -20 -20 -20 -20 -20 -20 -20 -20 -20 -20 -20 -20 -20 -20 -20 -20 -20 -20 -20 -20 -5 4 8 10 12
22 8 10 -6 9 10 10 9 1 -6 -20 -20 -20 -20 -20 -20 -20 -20 -7 -20 -20 -20 -20 -20 -20 -20 -20 -20 -20 -20 -20 -20 -20 0 4 6 10 12
-3 2 12 25 14 1 -18 -20 -20 -20 -20 -9 -5 -20 -20 -20 -20 -20 -14 2 -7 -20 -20 -20 -20 -20 -20 -20 -20 -20 -20 -20 -20 -5 4 4 9 9
7 0 -1 -3 -17 -20 -20 -20 -20 -20 -20 -20 -20 -20 -20 -20 -15 -6 -11 -20 -20 -20 -20 -20 -20 -20 -20 -20 -20 -20 -20 -20 -20 -12 -1 0 2 6
-9 -8 -18 -20 -20 -20 -20 -20 -20 -20 -20 -20 -20 -20 -16 -20 -20 -20 -20 -20 -20 -20 -20 -20 -20 -20 -20 -20 -20 -20 -20 -20 -20 -20 -20 -20 -1 1
-20 -20 -20 -20 -20 -20 2 -20 -20 -20 -20 -20 -20 -20 -20 -20 -20 -20 -20 -20 -19 -20 -20 -20 -20 -19 -20 -20 -20 -20 -20 -20 -20 -20 -20 -20 -20 -1
-20 -20 -20 -20 -20 -20 -20 -20 -20 -20 -20 -20 -20 -20 -20 -20 -20 -20 -20 -9 -19 -15 -20 1 -18 -20 -7 -20 -20 -20 -20 -20 -20 -20 -20 -20 -20 -1
-20 -20 -20 -20 -20 -20 -20 -20 -13 -20 -20 -20 -20 -20 -20 -20 -20 -20 -20 -20 -20 -20 -20 -12 -2 -20 -20 -20 -20 -20 -20 -20 -20 -20 -20 -20 -20 -20
-20 -20 -20 -20 -20 -20 -20 -20 -20 -20 -20 -20 -20 -20 -20 -20 -20 -20 -20 -20 -20 -20 -20 -20 -20 -20 -20 -20 -20 -20 -20 -20 -20 -20 -20 -20 -20 -20
-20 -20 -20 -20 -20 -20 -20 -20 -20 -20 -20 -20 -20 -20 -20 -20 -20 -20 -20 -20 -20 -20 -20 -20 -20 -20 -20 -20 -20 -20 -20 -20 -20 -20 -20 -20 -20 -20
-20 -20 -20 -20 -20 -20 -20 -20 -20 -20 -20 -20 -20 -20 -20 -20 -20 -20 -20 -20 -20 -20 -20 -20 -20 -20 -20 -20 -7 -20 -20 -20 -20 -20 -20 -20 -20 -20
-20 -20 -20 -20 -20 -20 -20 -20 -20 -20 -20 -20 -20 -20 -20 -20 -20 -20 -20 -20 -20 -20 -20 -20 -20 -20 -20 -19 -9 -19 -20 -20 -20 -20 -20 -10 -20 -17
-20 -20 -20 -20 -20 -20 -20 -20 -20 -20 -20 -20 -20 -20 -20 -20 -20 -20 -20 -20 -20 -20 -20 -20 -20 -4 -12 -20 -20 9 14 -9 -1 -0 -20 0 -20 -11
-20 -20 -20 -20 -20 -20 -20 -20 -20 -20 -20 -20 -20 -20 -20 -20 -20 -20 -20 -20 -20 -20 -20 -20 -20 -20 6 -0 7 -20 -1 3 3 3 1 -17 -20 -19
-20 -20 -20 -20 -20 -20 -20 -20 -20 -20 -20 -20 -20 -20 -20 -20 -20 -20 -20 -20 1 -20 -20 -20 -20 -20 -9 3 -8 -20 -14 4 0 7 -9 -4 -20 -15
-20 -20 -20 -20 -20 -20 -20 -20 -20 -20 -20 -20 -20 -20 -20 -20 -20 -20 -20 -20 -20 -20 -20 -20 -20 4 1 5 -20 -20 -20 -18 9 12 16 12 9 -0
-20 -20 -20 -20 -20 -20 -20 -20 -20 -20 -20 -20 -20 -20 -20 -20 -20 -20 -20 -18 -20 -18 -1 -20 -20 -20 -2 4 -7 -20 -20 -20 -20 -20 1 5 -20 -18

GFSNE_prec_radar_060.txt.gz
Reflectivity
18 3 34 29 19 6 -17 -5 6 -10 -18 -17 -8 19 17 28 28 13 7 1 -12 -8 -11 -10 -20 -20 -20 -20 -20 -20 -20 -20 -11 -5 -3 -0 -5 11
16 18 23 40 40 25 -14 -14 8 19 -1 18 26 19 11 16 21 15 -4 -8 -20 -20 -20 -20 -20 -20 -20 -20 -20 -20 -8 -20 -20 -20 7 5 11 13
17 1 3 -5 40 23 29 6 7 20 11 11 20 38 35 21 22 9 -6 3 3 -9 -16 -20 -20 -20 -20 -19 -20 -20 -20 -20 -10 6 16 12 12 11
12 -7 7 -19 16 15 10 35 11 22 35 25 7 28 13 11 -5 1 7 5 -6 -20 -20 -20 -20 -20 -20 -20 -16 -6 -19 -2 -20 2 2 -20 -9 -1
7 -10 8 -2 19 5 25 16 14 34 33 11 4 -17 8 17 7 -17 -19 -20 -20 -20 -20 -20 -20 -20 -20 -20 -20 -20 -20 -20 -20 -20 -16 -11 -8 -20
3 -5 11 19 32 30 11 14 27 15 -9 2 8 7 -13 -20 -20 -20 -20 -20 -20 -20 -20 -20 -20 -20 -20 -20 -20 -20 -20 -20 -20 -20 -12 -4 -0 4
-17 18 30 6 -1 11 19 11 -18 -17 -3 -6 -2 -19 -20 -20 -20 -20 -20 -20 -20 -20 -20 -20 -20 -20 -20 -20 -20 -20 -20 -20 -20 -10 -1 2 7 8
-2 11 -1 7 15 -8 -20 -20 -20 -6 -11 -18 -11 -20 -20 -20 -20 -20 -20 -20 -17 -20 -20 -20 -20 -20 -20 -20 -20 -20 -20 -20 -20 -7 -1 2 1 9
17 -15 -9 -14 -20 -20 -18 -14 -14 -20 -20 -20 -20 -20 -20 -20 -20 -17 -6 -20 -11 -20 -20 -20 -20 -20 -20 -20 -20 -20 -20 -20 -20 -20 -2 3 3 -12
-20 -20 -17 -15 -6 -5 -14 -20 -20 -20 -20 -20 -20 -20 -20 -20 -19 -12 -0 -13 -20 -20 -20 -20 -20 -20 -20 -20 -20 -20 -20 -20 -20 -20 -20 -5 -20 -5
4 0 -17 -18 -20 -20 -20 -3 -20 -20 -20 -20 -20 -20 -20 -20 -20 -20 -20 -6 -20 -20 -20 -20 -20 -20 -20 -20 -20 -20 -20 -20 -20 -20 -20 -20 -2 -3
-20 -20 -20 -20 -20 -16 -9 -20 -20 -20 -20 -20 -20 -20 -20 -20 -20 -20 -20 -8 -4 -12 -20 -20 -20 -8 -20 -20 -20 -20 -20 -20 -20 -20 -20 -20 -7 -20
-20 -20 -20 -20 -20 -20 -20 -20 -20 -15 -20 -20 -20 -20 -20 -20 -20 -20 -20 -20 -13 -10 -20 -1 -14 -17 -3 -4 -20 -20 -20 -20 -20 -20 -20 -20 -14 1
-20 -20 -20 -20 -20 -20 -20 -20 -3 -10 -20 -20 -20 -20 -20 -20 -20 -20 -20 -20 -20 -11 -20 3 -6 -10 1 -20 -20 -20 -20 -20 -20 -20 -1 -15 -8 -4
-20 -20 -20 -20 -20 -20 -20 -20 -20 -20 -20 -20 -20 -20 -20 -20 -20 -20 -5 -2 -4 -20 -20 -17 -1 -20 -17 -20 -20 -20 -20 -20 -20 -6 1 4 4 2
-20 -20 -20 -20 -20 -20 -20 -20 -20 -20 -20 -20 -20 -20 -20 -20 -20 -20 -11 -20 -20 -20 -20 -20 -16 1 -20 -20 5 -20 -18 2 -20 -18 2 3 -0 -11
-20 -20 -20 -20 -20 -20 -20 -20 -20 -20 -20 -20 -20 -20 -20 -20 -20 -20 -20 -14 -2 -20 -20 -20 -6 -8 -11 -14 -19 -20 -20 -18 1 -5 -7 -20 -20 -10
-20 -20 -20 -20 -20 -20 -20 -20 -20 -20 -20 -20 -20 -16 -10 -15 -20 -20 3 6 1 -20 -20 -19 -4 -17 -1 -5 -20 -20 -20 -1 -5 3 6 5 -3 -20
-20 -20 -20 -20 -20 -20 -20 -20 -20 -20 -20 -20 -7 -20 -19 -20 -4 -20 -20 4 2 -0 -0 -2 1 7 8 5 -20 -16 7 5 3 1 1 3 1 -20
-20 -20 -20 -20 -20 -20 -20 -20 -16 -20 -20 -20 -18 -20 -18 -9 -18 -20 -20 -8 4 3 2 0 5 10 12 8 2 -20 -20 -20 3 2 -20 -8 -13 -20
-20 -20 -20 -20 -20 -20 -20 -20 -20 -20 -17 -20 -19 -20 -20 -3 -20 -20 -20 -20 -0 -4 -20 -20 -12 -0 -13 -7 5 -8 -20 -20 -12 -3 -9 -17 -20 -20
-20 -20 -20 -20 -20 -20 -20 -20 -9 -20 -8 -20 -20 -14 -20 -7 -12 -20 -20 -20 -20 -20 -20 -19 -13 -17 1 8 -1 4 -9 -20 -14 -20 -20 -4 8 8
-20 -20 -20 -20 -20 -20 -20 -20 -20 -10 -20 -20 -20 -14 -20 -20 -20 -20 -20 -20 -20 -20 -16 3 4 -7 7 7 5 -7 -4 -20 -20 -20 8 17 -1 -20

GFSNE_prec_radar_063.txt.gz
Reflectivity
24 19 10 17 24 19 31 18 31 35 27 34 27 15 17 24 17 12 10 21 29 13 3 -20 -20 -20 -20 -20 -20 -20 -20 -20 -20 -20 -20 -15 -20 0
26 23 15 7 22 17 -3 17 10 29 30 20 -3 10 17 24 -3 13 16 -10 14 1 -11 -7 -20 -20 -20 -20 -20 -20 -20 -4 -6 -4 2 -14 9 16
-0 18 16 3 9 36 35 17 39 10 10 25 27 9 19 14 9 13 -1 -14 -20 -20 2 -9 -20 -20 -20 -20 -15 -20 -14 -19 -7 -20 -20 -16 7 6
9 13 11 21 20 13 1 4 -7 20 10 4 10 8 -17 -15 -20 -20 -20 -16 -18 -17 -18 -20 -20 -20 -20 -20 -20 -20 -20 -20 -9 -20 -0 2 6 10
11 15 18 19 14 24 -14 30 -7 11 29 28 9 -20 -20 -20 -20 -20 -13 -18 -20 -20 -20 -20 -20 -20 -20 -20 -20 -20 -20 -20 -6 -11 -7 -17 -20 -17
3 7 -8 -3 3 13 -15 3 -1 13 13 1 -20 -20 -20 -20 -20 -20 -20 -20 -20 -20 -20 -20 -20 -20 -20 -20 -20 -20 -20 -20 -20 -20 -20 -20 -13 -0
-2 4 2 20 5 -20 -18 -20 -20 -20 -20 -20 -20 -14 -20 -20 -20 -20 -20 -20 -20 -20 -20 -20 -20 -20 -20 -20 -20 -20 -20 -20 -20 -20 -5 -1 -13 5
13 27 16 20 10 -19 -20 -20 -20 -20 -20 -3 -20 -20 -20 -20 -20 -20 -20 -20 -20 -20 -20 -20 -20 -20 -20 -20 -20 -20 -20 -20 -20 -10 -2 0 0 -16
13 10 9 18 20 13 -20 -20 -13 -2 -17 -20 -19 -20 -20 -20 -20 -20 -20 -20 -20 -20 -20 -20 -20 -20 -20 -20 -20 -20 -20 -20 -20 -20 -20 -20 -3 1
20 16 -10 -20 -19 -13 -7 -20 -20 -20 -20 -20 -20 -20 -20 -20 -20 -20 -7 -11 -20 -20 -20 -20 -20 -20 -20 -20 -20 -20 -20 -20 -20 -20 -20 -15 -1 0
6 -10 -20 -20 -19 -19 -20 -20 -20 -20 -20 -20 -20 -20 -20 -20 -18 -20 -20 -20 -20 -20 -20 -20 -20 -20 -20 -20 -20 -20 -20 -20 -20 -20 -20 -20 -9 -2
-20 -20 -20 -20 -20 -20 -20 -20 -20 -20 -20 -20 -20 -20 -20 -20 -20 -20 -20 -5 -20 -20 -20 -20 -20 -19 -20 -20 -20 -20 -20 -20 -20 -20 -20 -20 -6 -20
-20 -20 -20 -20 -20 -20 -20 -20 -20 -20 -20 -20 -20 -20 -20 -20 -20 -20 -20 -20 -20 -20 -20 -19 -20 -20 -8 -20 -20 -20 -20 -20 -20 -20 -20 -20 -13 -12
-20 -20 -20 -20 -20 -20 -20 -20 -20 -20 -20 -20 -20 -20 -20 -20 -15 -20 -20 -20 -20 -20 -20 -20 -19 -20 -20 -20 -20 -20 -20 -20 -20 -20 -20 -20 -8 -5
-20 -20 -20 -20 -20 -20 -20 -20 -20 -20 -20 -20 -20 -15 -20 -20 -20 -20 -20 -20 -20 -20 -20 -20 -20 -20 -20 -20 -20 -20 -20 -20 -20 -20 -20 -8 -20 -20
-20 -20 -20 -20 -20 -20 -20 -20 -20 -20 -20 -20 -20 -20 -20 -20 -20 -20 -20 -20 -20 -20 -20 -10 -20 -18 -19 -20 -19 -20 -20 -19 -20 -20 -20 -20 -20 -20
-20 -20 -20 -20 -20 -20 -20 -20 -20 -20 -20 -20 -20 -20 -20 -20 -20 -20 -20 -20 -20 -20 -20 -20 -20 -20 -18 -20 -19 -20 -20 -20 -20 -20 -18 -20 -14 -20
-20 -20 -20 -20 -20 -20 -20 -20 -20 -20 -20 -20 -20 -20 -20 -20 -20 -20 -20 -10 -2 -9 -20 -20 -20 -20 -20 -20 -20 -20 -20 -7 -20 -9 3 3 -20 -1
-20 -20 -20 -20 -20 -20 -20 -20 -20 -20 -20 -20 -20 -20 -20 -20 -10 -10 -20 -20 -18 -3 -20 -20 -19 2 -17 -20 -20 -13 -20 -20 -20 -20 -20 -20 -20 -20
-20 -20 -20 -20 -20 -20 -20 -20 -20 -20 -20 -20 -20 -20 -20 -20 -20 -20 -20 -17 -20 -20 -20 -9 -20 -20 3 3 -8 -20 -20 -20 -20 -20 -20 -20 -20 -20
-20 -20 -20 -20 -20 -20 -20 -20 -20 -20 -17 -20 -20 -20 -20 -20 -20 -20 -20 -11 4 -20 -19 -20 -20 -3 -19 -19 2 -20 -20 -20 -17 -20 -20 -11 -18 -18
-20 -20 -20 -20 -20 -20 -20 -20 -20 -20 -20 -20 -20 -13 -14 -20 -20 -20 -20 -20 -20 -20 -20 -20 -20 -20 -8 4 -20 -20 -20 -20 -20 -20 -20 2 8 9
-20 -20 -20 -20 -20 -20 -20 -17 -20 -20 -20 -20 -20 -20 -20 -20 -20 -20 -20 -20 -18 -19 -20 -20 -20 -12 -18 -20 -11 -4 1 -20 -20 -20 -2 12 -11 -20

GFSNE_prec_radar_069.txt.gz
Reflectivity
-19 -20 -20 19 -14 -9 25 29 25 28 17 10 17 19 12 20 36 27 34 38 28 28 28 26 -12 -10 -12 -20 -20 -20 -20 -20 -20 -20 -20 -20 -3 -18
-20 -20 -16 11 12 13 17 3 15 31 27 16 12 25 26 26 28 33 31 29 18 12 6 2 -11 -20 -20 -20 -20 -20 -20 -20 -13 -1 -20 7 -2 11
-20 -20 7 8 3 13 10 24 14 -4 13 36 28 37 24 30 28 31 21 2 1 19 -18 -20 -20 -20 -20 -20 -20 -20 -15 -3 -5 0 -20 -20 -12 -1
4 8 10 4 5 19 -12 13 20 23 26 28 41 31 23 19 3 17 13 -11 5 -20 -20 -20 -20 -20 -20 -20 -20 -20 -19 -3 0 0 -1 10 -12 -20
-0 -8 11 -1 -20 -20 -5 -7 18 8 18 31 14 6 -20 -5 3 -20 -19 -2 -20 -20 -20 -20 -20 -20 -20 -20 -20 -8 -19 -20 -20 -9 -20 -20 -13 -20
-14 -18 3 -19 -20 -20 4 17 16 17 -1 8 -9 -20 -20 -20 -20 -20 -20 -20 -20 -20 -20 -20 -20 -20 -20 -20 -20 -20 -20 -20 -20 -20 -20 -20 -20 -20
-17 9 -4 16 6 19 11 22 17 8 12 8 -20 -19 -20 -20 -20 -20 -20 -20 -20 -20 -20 -20 -20 -20 -20 -20 -20 -20 -20 -20 -20 -20 -20 -17 -5 -0
-0 -7 3 -3 3 18 16 19 26 5 -3 -3 -10 -20 -20 -20 -20 -20 -20 -20 -20 -20 -20 -20 -20 -20 -20 -20 -20 -20 -20 -20 -20 -20 -20 -6 -20 -20
-20 -20 -20 -20 -20 -17 -20 -20 -6 -9 -13 -20 -20 -20 -20 -20 -20 -20 -20 -20 -20 -20 -20 -20 -20 -20 -20 -20 -20 -20 -20 -20 -20 -20 -2 -11 4 7
-20 -20 -20 -20 -20 -20 -20 -20 -20 -20 -20 -20 -20 -20 -20 -20 -20 -20 -20 -20 -20 -20 -20 -20 -20 -20 -20 -20 -20 -20 -20 -20 -20 -20 -20 -20 -7 0
-20 -20 -20 -20 -20 -20 -20 -20 -20 -20 -20 -20 -20 -20 -20 -20 -20 -20 -20 -20 -20 -20 -20 -20 -20 -20 -20 -20 -20 -20 -20 -20 -20 -20 -20 -20 -18 -10
-20 -20 -20 -20 -20 -20 -20 -20 -20 -20 -20 -20 -20 -20 -20 -20 -20 -20 -20 -20 -20 -20 -20 -20 -20 -19 -20 -20 -20 -20 -20 -20 -20 -20 -20 -20 -6 -19
-20 -20 -20 -20 -20 -20 -20 -20 -20 -20 -20 -20 -20 -20 -20 -20 -20 -20 -20 -20 -20 -20 -20 -20 -20 -20 -20 -20 -20 -20 -20 -20 -20 -20 -20 -20 -20 -6
-20 -20 -20 -20 -20 -20 -20 -20 -20 -20 -20 -20 -20 -20 -20 -20 -20 -20 -20 -20 -20 -20 -20 -20 -18 -20 -19 -20 -20 -20 -20 -20 -20 -20 -20 -20 -20 -20
-20 -20 -20 -20 -20 -20 -20 -20 -20 -20 -20 -20 -20 -20 -20 -20 -20 -20 -20 -20 -20 -20 -20 -20 -20 -20 -20 -19 -20 -20 -20 -20 -20 -20 -20 -20 -20 -20
-20 -20 -20 -20 -20 -20 -20 -20 -20 -20 -20 -20 -20 -20 -20 -20 -20 -20 -20 -20 -20 -20 -20 -20 -20 -20 -20 -19 -20 -20 -20 -19 -20 -20 -20 -20 -20 -20
-20 -20 -20 -20 -20 -20 -20 -20 -20 -20 -20 -20 -20 -20 -20 -20 -20 -20 -20 -20 -14 -20 -20 -20 -20 -20 -20 -20 -20 -20 -20 -20 -20 -20 -20 -20 -20 -20
-20 -20 -20 -20 -20 -20 -20 -20 -20 -20 -20 -20 -20 -20 -20 -20 -20 -20 -20 -20 -20 -20 -20 -20 -20 -20 -20 -20 -20 -20 -20 -20 -20 -20 -20 -20 -20 -20
-20 -20 -20 -20 -20 -20 -20 -20 -20 -20 -20 -20 -20 -20 -20 -20 -19 -20 -20 -20 -20 -20 -20 -20 -20 -20 -19 -20 -20 -20 -20 -20 -20 -20 -20 -20 -20 -20
-20 -20 -20 -20 -20 -20 -20 -20 -20 -20 -20 -20 -20 -20 -20 -20 -20 -20 -20 -20 -20 -20 -20 -20 -16 -20 -20 -20 -16 -20 -20 -20 -20 -20 -20 -20 -20 -20
-20 -20 -20 -20 -20 -20 -20 -20 -20 -20 -15 -20 -20 -20 -20 -20 -20 -20 -20 -11 -4 -20 -20 -20 -20 -20 -20 -20 -19 -20 -20 -20 -20 -20 -20 -20 -20 -18
-20 -20 -20 -20 -20 -20 -20 -20 -20 -17 -20 -20 -20 -20 -20 -20 -20 -20 -20 -20 -20 -20 -20 -20 -20 -20 -20 -18 -20 -20 -20 -20 -20 -20 -20 -20 -8 7
-20 -20 -20 -20 -20 -20 -20 -20 -20 -20 -20 -20 -20 -20 -20 -20 -20 -20 -20 -20 -20 -20 -20 -20 -20 -20 -20 -20 -20 -20 -20 -20 -20 -20 -20 -20 -20 -20

GFSNE_prec_radar_072.txt.gz
Reflectivity
-20 -20 -20 -20 -20 13 -14 1 24 8 -14 -10 -0 -1 4 22 25 30 31 26 29 23 32 25 25 28 9 10 -17 -20 -20 -20 -20 -20 -20 -20 -20 -20
-20 -20 -20 -20 -9 -19 8 0 7 11 7 -8 -20 14 5 36 29 29 25 31 27 33 30 23 17 13 5 -10 -17 -20 -20 -20 -20 -20 -3 -20 -16 2
-20 -9 -12 -20 -20 -20 2 2 5 -3 -20 -20 -20 11 10 10 25 24 29 33 29 22 18 16 -0 -10 -20 -20 -20 -20 -20 -20 -17 -20 -20 -10 -14 -16
-20 -20 -10 -15 7 6 9 11 7 -10 -20 -20 9 -8 -3 27 31 23 22 20 21 24 20 -11 -8 -20 -20 -20 -20 -20 -20 -20 -20 -20 -20 -20 -18 -8
-20 -20 -20 -20 -10 -7 -16 -20 -20 -20 -15 -20 13 28 33 25 25 18 15 25 -6 -12 -19 -20 -20 -20 -20 -20 -20 -9 -19 -20 -20 -20 -20 -20 -20 -20
-19 -20 -20 -20 -20 -20 -20 -19 8 -3 18 9 8 27 -4 -15 -17 -20 5 -11 -20 -20 -20 -20 -20 -20 -20 -20 -20 -20 -20 -20 -20 -20 -20 -20 -14 -13
-20 -20 -20 -4 -5 -19 -7 -10 -20 -20 -16 -16 -14 -14 -20 -11 -15 -20 -20 -20 -20 -20 -20 -20 -20 -20 -20 -20 -20 -20 -20 -20 -20 -20 -20 -8 -10 -12
-20 -20 -20 -20 -20 -8 -6 -17 -9 -20 -20 -20 -20 -20 -20 -20 -20 -20 -20 -20 -20 -20 -20 -20 -20 -20 -20 -20 -20 -20 -20 -20 -20 -20 -3 -4 -20 -7
-20 -20 -20 -20 -20 -20 -20 -20 -20 -20 -20 -20 -20 -20 -20 -20 -20 -20 -20 -20 -20 -20 -20 -20 -20 -20 -20 -20 -20 -20 -20 -20 -20 -20 -20 -20 -13 -20
-20 -20 -20 -20 -20 -20 -20 -20 -20 -20 -20 -20 -20 -20 -20 -20 -20 -20 -20 -20 -20 -20 -20 -20 -20 -20 -20 -20 -20 -20 -20 -20 -20 -20 -20 -20 -20 -0
-20 -20 -20 -20 -20 -20 -20 -20 -20 -20 -20 -20 -20 -20 -20 -6 -20 -20 -20 -20 -20 -20 -20 -20 -20 -20 -20 -20 -20 -20 -20 -20 -20 -20 -20 -20 -20 -20
-20 -20 -20 -20 -20 -20 -20 -20 -20 -20 -20 -20 -20 -20 -20 -20 -20 -20 -20 -20 -20 -20 -20 -20 -20 -20 -20 -20 -20 -20 -20 -20 -20 -20 -20 -20 -19 -17
-20 -20 -20 -20 -20 -20 -20 -20 -20 -20 -20 -20 -20 -20 -20 -20 -20 -20 -20 -20 -20 -20 -20 -20 -20 -20 -20 -20 -20 -20 -20 -20 -20 -20 -20 -20 -20 -20
-20 -20 -20 -20 -20 -20 -20 -20 -20 -20 -20 -20 -20 -20 -20 -20 -20 -20 -20 -20 -20 -20 -20 -20 -19 -20 -20 -20 -20 -20 -20 -20 -20 -20 -20 -20 -20 -20
-20 -20 -20 -20 -20 -20 -20 -20 -20 -20 -20 -20 -20 -20 -20 -20 -20 -20 -20 -20 -20 -20 -18 -20 -20 -20 -20 -19 -20 -20 -20 -20 -20 -20 -20 -20 -20 -20
-20 -20 -20 -20 -20 -20 -20 -20 -20 -20 -20 -20 -20 -20 -20 -20 -20 -20 -20 -20 -20 -20 -18 -20 -20 -19 -17 -20 -20 -20 -20 -7 -20 -20 -20 -20 -20 -20
-20 -20 -20 -20 -20 -20 -20 -20 -20 -20 -20 -20 -20 -20 -20 -20 -20 -20 -20 -20 -20 -20 -20 -20 -20 -20 -20 -20 -20 -20 -20 -20 -20 -20 -20 -20 -20 -20
-20 -20 -20 -20 -20 -20 -20 -20 -20 -20 -20 -20 -20 -20 -20 -20 -20 -20 -20 -20 -20 -20 -20 -20 -20 -20 -20 -20 -20 -20 -20 -20 -20 -20 -20 -20 -20 -20
-20 -20 -20 -20 -20 -20 -20 -20 -20 -20 -20 -20 -20 -20 -20 -20 -19 -20 -20 -20 -20 -20 -20 -20 -20 -20 -20 -20 -20 -20 -20 -20 -20 -20 -20 -20 -20 -20
-20 -20 -20 -20 -20 -20 -20 -20 -20 -20 -20 -20 -20 -20 -20 -20 -20 -20 -20 -20 -20 -20 -20 -20 -20 -20 -20 -20 -20 -20 -20 -20 -20 -20 -20 -20 -20 -20
-20 -20 -20 -20 -20 -20 -20 -20 -20 -20 -18 -20 -20 -20 -20 -20 -20 -20 -20 -20 -11 -20 -20 -20 -20 -20 -20 -7 -14 -20 -20 -20 -20 -20 -20 -20 -20 -20
-20 -20 -20 -20 -20 -20 -20 -20 -20 -20 -20 -20 -20 -20 -20 -20 -20 -20 -20 -20 -20 -20 -20 -20 -20 -20 -20 -20 -20 -20 -20 -20 -20 -20 -20 -20 -20 -20
-20 -20 -20 -20 -20 -20 -20 -20 -20 -20 -20 -20 -20 -20 -20 -20 -20 -20 -20 -20 -20 -20 -20 -20 -20 -20 -20 -20 -12 -20 -20 -20 -20 -20 -20 -20 -20 -20

GFSNE_prec_radar_075.txt.gz
Reflectivity
-20 -20 7 -7 -20 -20 -18 -20 -20 -5 -20 -17 -20 -20 -16 5 -19 -1 -19 24 23 24 22 35 31 33 28 28 22 31 24 -4 -9 -8 -4 -13 4 -7
-20 -19 -12 -20 -20 -20 -16 -5 -16 -2 -15 -13 -20 -19 -13 -14 8 -2 -2 18 24 25 33 35 35 27 23 23 19 17 -7 -4 -20 -20 -20 -20 -20 -20
-20 -20 -20 -20 -20 -20 -20 -13 -3 -17 -8 -20 -20 -17 -20 -20 -17 -10 24 9 13 30 18 25 27 25 26 12 11 -13 -20 -20 -20 -20 -20 -20 -20 -20
-20 -20 -20 -20 -20 -20 2 10 -19 -20 -20 -19 -20 -20 -15 -0 29 27 4 5 12 15 18 26 28 10 10 -11 -12 -20 -16 -20 -20 -20 -20 -20 -20 -7
-20 -20 -20 -20 -20 -20 -20 -20 -20 -20 -20 -20 -20 -8 -3 26 26 6 15 15 14 20 3 2 1 -15 -20 -20 -20 -20 -8 -20 -20 -20 -20 -20 -20 -7
-20 -20 -20 -20 -20 -20 -20 -20 -20 -20 -20 -20 -19 -2 0 3 -13 -19 -10 -16 -20 -20 -20 -20 -20 -20 -20 -20 -20 -20 -20 -20 -20 -20 -20 -20 -20 -11
-20 -20 -20 3 8 -20 -20 -20 -20 -20 -20 -20 -20 -20 -20 -20 -20 -20 -20 -20 -20 -20 -20 -20 -20 -20 -20 -20 -20 -20 -20 -20 -20 -20 -17 -16 -19 -0
-20 -20 -20 -20 -20 -10 -20 -20 -20 -20 -20 -20 -20 -20 -20 -20 -20 -20 -20 -20 -20 -20 -20 -20 -20 -20 -20 -20 -20 -20 -20 -20 -20 -20 -20 -14 -0 8
-20 -20 -20 -20 -20 -20 -20 -20 -20 -20 -20 -20 -20 -20 -20 -20 -20 -20 -20 -20 -20 -20 -20 -20 -20 -20 -20 -20 -20 -20 -20 -20 -20 -20 -20 -20 -20 -20
-20 -20 -20 -20 -20 -20 -20 -20 -20 -20 -20 -20 -20 -20 -20 -20 -20 -20 -20 -20 -20 -20 -20 -20 -20 -20 -20 -20 -20 -20 -20 -20 -20 -20 -20 -20 -20 -20
-20 -20 -20 -20 -20 -20 -20 -20 -20 -20 -20 -20 -20 -20 -20 -20 -20 -20 -20 -20 -20 -20 -20 -20 -20 -20 -20 -20 -20 -20 -20 -20 -20 -20 -20 -20 -20 -20
-20 -20 -20 -20 -20 -20 -20 -20 -20 -20 -20 -20 -20 -20 -20 -20 -20 -20 -20 -20 -20 -20 -20 -20 -20 -20 -20 -20 -20 -20 -20 -20 -20 -20 -20 -20 -13 -20
-20 -20 -20 -20 -20 -20 -20 -20 -20 -20 -20 -20 -20 -20 -20 -20 -20 -20 -20 -20 -20 -20 -20 -20 -20 -20 -20 -20 -20 -20 -20 -20 -20 -20 -20 -20 -20 -20
-20 -20 -20 -20 -20 -20 -20 -20 -20 -20 -20 -20 -20 -20 -20 -20 -20 -20 -20 -20 -20 -20 -20 -20 -20 -20 -20 -20 -20 -20 -20 -20 -20 -20 -20 -20 -20 -20
-20 -20 -20 -20 -20 -20 -20 -20 -20 -20 -20 -20 -20 -20 -20 -20 -20 -20 -20 -20 -20 -20 -20 -20 -20 -20 -18 -19 -20 -20 -20 -20 -20 -20 -20 -20 -20 -20
-20 -20 -20 -20 -20 -20 -20 -20 -20 -20 -20 -20 -20 -20 -20 -20 -20 -20 -20 -20 -20 -20 -20 -20 -20 -20 -19 -20 -20 -20 -20 -20 -20 -20 -20 -20 -20 -20
-20 -20 -20 -20 -20 -20 -20 -20 -20 -20 -20 -20 -20 -20 -20 -20 -20 -20 -20 -20 -20 -20 -20 -20 -20 -20 -20 -18 -18 -20 -20 -20 -20 -20 -20 -20 -20 -20
-20 -20 -20 -20 -20 -20 -20 -20 -20 -20 -20 -20 -20 -20 -20 -20 -20 -20 -20 -20 -20 -20 -20 -20 -20 -20 -20 -20 -20 -20 -20 -20 -20 -20 -20 -20 -20 -20
-20 -20 -20 -20 -20 -20 -20 -20 -20 -20 -20 -20 -20 -20 -20 -20 -19 -20 -20 -20 -20 -20 -20 -20 -20 -20 -20 -20 -20 -20 -20 -20 -20 -20 -20 -20 -20 -20
-20 -20 -20 -20 -20 -20 -20 -20 -20 -20 -20 -20 -20 -20 -20 -20 -20 -20 -20 -20 -20 -20 -20 -20 -20 -20 -20 -20 -20 -20 -20 -20 -20 -20 -20 -20 -20 -20
-20 -20 -20 -20 -20 -20 -20 -20 -20 -20 -20 -20 -20 -20 -20 -20 -20 -20 -20 -11 -10 -20 -20 -20 -20 -20 -20 -19 -20 -20 -20 -20 -20 -20 -20 -20 -20 -20
-20 -20 -20 -20 -20 -20 -20 -20 -20 -20 -20 -20 -20 -20 -20 -20 -20 -20 -20 -20 -20 -20 -20 -20 -20 -20 -20 -20 -20 -20 -20 -20 -20 -20 -20 -17 -20 -20
-20 -20 -20 -20 -20 -20 -20 -20 -20 -20 -20 -20 -20 -20 -20 -20 -20 -20 -20 -20 -20 -20 -20 -20 -20 -20 -20 -20 -20 -20 -20 -20 -20 -20 -20 -20 -20 -20

GFSNE_prec_radar_078.txt.gz
Reflectivity
-20 -20 -20 -20 -2 -4 -18 -20 -14 8 -12 -20 -20 -20 -20 -20 -17 -20 -20 -4 20 22 24 26 22 21 23 22 30 22 22 27 30 31 28 19 16 -9
-20 -20 -15 1 -20 -20 -20 -20 -20 0 -10 -20 -20 -20 -20 -20 -17 -17 -10 12 14 24 24 12 15 24 32 30 24 10 19 19 9 12 7 -8 -1 -6
-14 -20 -20 -20 -17 -19 -20 -20 -20 -20 -20 -20 -20 -20 -20 -20 -20 -19 8 -7 15 24 20 14 11 17 25 26 14 15 2 5 11 4 -12 -7 -5 -14
-20 -20 -20 -20 -20 -20 -20 -20 -20 -20 -20 -20 -20 -20 -20 -20 -20 -20 -16 -19 -8 21 13 -2 10 9 13 -10 -3 -19 -17 -18 -17 -20 -20 -20 -20 -4
-20 -20 -20 -20 -20 -20 -20 -20 -20 -20 -20 -20 -20 -20 -20 -20 -20 -20 -19 -20 -20 16 -8 -5 1 -1 -14 -19 -20 -20 -20 -18 -20 -20 -20 -11 -13 3
-20 -20 -20 -20 -20 -20 -20 -20 -20 -20 -20 -20 -20 -20 -20 -20 -20 -20 -20 -20 -20 -20 -20 -16 -10 -9 -20 -20 -20 -20 -20 -18 -20 -20 -20 -20 -20 -18
-20 -20 -20 -4 4 -10 -20 -20 -20 -20 -20 -20 -20 -20 -20 -20 -20 -20 -20 -20 -20 -20 -20 -20 -20 -20 -20 -20 -20 -20 -20 -20 -20 -20 -20 -8 5 -14
-20 -20 -20 -20 -20 -20 -20 -20 -20 -20 -20 -20 -20 -20 -20 -20 -20 -20 -20 -20 -20 -20 -20 -20 -20 -20 -20 -20 -20 -20 -20 -20 -20 -20 -20 -20 -20 10
-20 -20 -20 -20 -20 -20 -20 -20 -20 -20 -20 -20 -20 -20 -20 -20 -20 -20 -20 -20 -20 -20 -20 -20 -20 -20 -20 -20 -20 -20 -20 -20 -20 -20 -20 -20 -19 -20
-20 -20 -20 -20 -20 -20 -20 -20 -20 -20 -20 -20 -20 -20 -20 -20 -20 -20 -20 -20 -20 -20 -20 -20 -20 -20 -20 -20 -20 -20 -20 -20 -20 -20 -20 -20 -20 -20
-20 -20 -20 -20 -20 -20 -20 -20 -20 -20 -20 -20 -20 -20 -20 -20 -20 -20 -20 -20 -20 -20 -20 -20 -20 -20 -20 -20 -20 5 -1 -20 -20 -20 -20 -20 -20 -20
-20 -20 -20 -20 -20 -20 -20 -20 -20 -20 -20 -20 -20 -20 -20 -20 -20 -20 -20 -20 -20 -20 -20 -20 -20 -20 -20 -20 -20 -20 -20 -20 -20 -20 -20 -20 -20 -20
-20 -20 -20 -20 -20 -20 -20 -20 -20 -20 -20 -20 -20 -20 -20 -20 -20 -20 -20 -20 -20 -20 -20 -20 -20 -20 -12 -20 -20 -20 -20 -20 -20 -20 -20 -20 -20 -20
-20 -20 -20 -20 -20 -20 -20 -20 -20 -20 -20 -20 -20 -20 -20 -20 -20 -20 -20 -20 -20 -20 -20 -20 -19 -20 -20 -20 -20 -20 -20 -20 -20 -20 -20 -20 -20 -20
-20 -20 -20 -20 -20 -20 -20 -20 -20 -20 -20 -20 -20 -20 -20 -20 -20 -20 -20 -20 -20 -20 -20 -20 -20 -20 -20 -20 -20 -20 -19 -20 -20 -20 -20 -20 -20 -20
-20 -20 -20 -20 -20 -20 -20 -20 -20 -20 -20 -20 -20 -20 -20 -20 -20 -20 -20 -20 -20 -20 -20 -20 -20 -20 -20 -20 -20 -20 -20 -20 -20 -20 -20 -20 -20 -20
-20 -20 -20 -20 -20 -20 -20 -20 -20 -20 -20 -20 -20 -20 -20 -20 -20 -20 -20 -20 -20 -20 -20 -20 -20 -20 -20 -20 -20 -20 -20 -20 -20 -20 -20 -20 -20 -20
-20 -20 -20 -20 -20 -20 -20 -20 -20 -20 -20 -20 -20 -20 -20 -20 -20 -20 -20 -20 -20 -20 -20 -20 -20 -20 -20 -20 -20 -20 -20 -20 -20 -20 -20 -20 -20 -20
-20 -20 -20 -20 -20 -20 -20 -20 -20 -20 -20 -20 -20 -20 -20 -20 -5 -20 -20 -20 -20 -20 -20 -20 -20 -20 -20 -20 -20 -20 -20 -20 -20 -20 -20 -20 -20 -20
-20 -20 -20 -20 -20 -20 -20 -20 -20 -20 -20 -20 -20 -20 -20 -20 -20 -20 -20 -20 -20 -20 -20 -20 -20 -20 -20 -20 -20 -20 -20 -20 -20 -20 -20 -20 -20 -20
-20 -20 -20 -20 -20 -20 -20 -20 -20 -20 -20 -20 -20 -20 -20 -20 -20 -20 -20 -11 -10 -20 -20 -20 -20 -20 -15 -17 -20 -20 -20 -20 -20 -20 -20 -20 -20 -20
-20 -20 -20 -20 -20 -20 -20 -20 -20 -20 -20 -20 -20 -20 -20 -20 -20 -20 -20 -20 -20 -20 -20 -20 -20 -20 -20 -20 -20 -20 -20 -20 -20 -20 -20 -20 -20 -20
-20 -20 -20 -20 -20 -20 -20 -20 -20 -20 -20 -20 -20 -20 -20 -20 -20 -20 -20 -20 -20 -20 -20 -20 -20 -20 -20 -20 -20 -20 -20 -20 -20 -20 -20 3 -7 -20

GFSNE_prec_radar_081.txt.gz
Reflectivity
-20 -20 -20 -20 -20 -20 -6 0 12 -4 -20 -20 -20 -20 -20 -19 -2 -20 -2 -17 -20 -1 12 0 -6 6 17 29 24 26 27 15 23 27 24 24 23 22
-20 -20 -20 -20 -20 -20 -20 -20 -20 -20 -20 -20 -20 -20 -20 -20 -13 -20 -16 -11 -2 10 3 2 -6 8 3 14 4 18 19 23 22 22 22 27 25 26
-20 -20 -20 -20 -20 -20 -20 -20 -20 -20 -20 -20 -20 -20 -20 -20 -20 -20 -7 -20 -13 -13 -0 6 10 4 -14 7 1 12 19 15 15 17 18 10 -1 9
-20 -20 -20 -20 -20 -20 -20 -20 -20 -20 -20 -20 -20 -20 -20 -20 -20 -20 -20 -20 -20 -7 -20 -20 -20 -20 -20 -20 -20 -20 -20 -19 -19 -20 -19 -20 -20 -20
-20 -20 -20 -20 -20 -20 -20 -20 -20 -20 -20 -20 -20 -20 -20 -10 -9 -19 -20 -20 -20 -5 -20 -10 -20 -20 -20 -2 -20 -20 -19 -20 -20 -20 -20 -20 -20 -20
-20 -20 -20 -20 -20 -20 -20 -20 -20 -20 -20 -20 -20 -20 -20 -20 -20 -20 -20 -20 -20 -20 -20 -20 -20 -20 -20 -20 -20 -20 -20 -20 -20 -20 -20 -20 -20 -20
-20 -20 -20 -20 -20 -20 -20 -20 -20 -20 -20 -20 -20 -20 -20 -20 -20 -20 -20 -20 -20 -20 -20 -20 -20 -20 -20 -20 -20 -20 -20 -20 -20 -20 -20 -20 -20 -20
-20 -20 -20 -20 -20 -20 -20 -20 -20 -20 -20 -20 -20 -20 -20 -20 -20 -20 -20 -20 -20 -20 -20 -20 -20 -20 -20 -20 -20 -20 -20 -20 -20 -20 -20 -20 -20 -20
-20 -20 -20 -20 -20 -20 -20 -20 -20 -20 -20 -20 -20 -20 -20 -20 -20 -20 -20 -20 -20 -20 -20 -20 -20 -20 -20 -20 -20 -20 -20 -20 -20 -20 -20 -20 -20 -20
-20 -20 -20 -20 -20 -20 -20 -20 -20 -20 -20 -20 -20 -20 -20 -20 -20 -20 -20 -20 -20 -20 -20 -20 -20 -20 -20 -20 -20 -20 -20 -10 -10 -19 -20 -20 -20 -20
-20 -20 -20 -20 -20 -20 -20 -20 -20 -20 -20 -20 -20 -20 -20 -20 -20 -20 -20 -20 -20 -20 -20 -20 -20 -20 -20 -20 -20 -2 7 -6 -20 -20 -20 -20 -20 -20
-20 -20 -20 -20 -20 -20 -20 -20 -20 -20 -20 -20 -20 -20 -20 -20 -20 -20 -20 -20 -20 -20 -20 -20 -20 -20 -20 -20 -20 -20 -20 -20 -20 -20 -20 -20 -20 -20
-20 -20 -20 -20 -20 -20 -20 -20 -20 -20 -20 -20 -20 -20 -20 -20 -20 -20 -20 -20 -20 -20 -14 2 -0 -20 -20 -20 -20 -20 -20 -20 -20 -20 -20 -20 -20 -20
-20 -20 -20 -20 -20 -20 -20 -20 -20 -20 -20 -20 -20 -20 -20 -20 -20 -20 -20 -20 -20 -20 -20 -20 5 3 0 -9 -20 -20 -20 -20 -20 -20 -20 -20 -20 -20
-20 -20 -20 -20 -20 -20 -20 -20 -20 -20 -20 -20 -20 -20 -20 -20 -20 -20 -20 -20 -3 -3 -1 -20 -11 5 6 1 -11 -11 -6 -20 -20 -20 -20 -20 -20 -20
-20 -20 -20 -20 -20 -20 -20 -20 -20 -20 -20 -20 -20 -20 -20 -20 -18 -4 -20 -4 0 -20 -20 -20 -20 -20 2 -1 2 -5 -20 -10 -20 -20 -20 -20 -20 -20
-20 -20 -20 -20 -20 -20 -20 -20 -20 -20 -20 -20 -20 -20 -20 -20 -20 -6 -20 -11 1 -20 -20 -20 -20 -20 -20 -20 -13 -20 -20 -20 -20 -20 -5 -20 -20 -20
-20 -20 -20 -20 -20 -20 -20 -20 -20 -20 -20 -20 -20 -20 -20 -20 -20 -20 -20 -5 -0 -15 -20 -20 -20 -20 -20 -20 -20 -20 -20 -20 -20 -20 -20 -18 -20 -20
-20 -20 -20 -20 -20 -20 -20 -20 -20 -20 -20 -20 -20 -20 -20 -20 -5 -2 -2 -19 -20 -20 -20 -20 -20 -20 -20 -20 -20 -20 -20 -20 -20 -20 -20 -19 -20 -20
-20 -20 -20 -20 -20 -20 -20 -20 -20 -20 -20 -20 -20 -20 -20 -20 -6 -5 -16 -20 -20 -20 -20 -20 -20 -20 -20 -20 -17 -20 -20 -20 -20 -20 -20 -20 -20 -20
-20 -20 -20 -20 -20 -20 -20 -20 -20 -20 -20 -20 -20 -20 -20 -20 -20 -20 -20 -4 -4 -12 -20 -20 -20 -20 -20 -20 -20 -20 -20 -20 -20 -20 -20 -20 -20 -20
-20 -20 -20 -20 -20 -20 -20 -20 -20 -20 -20 -20 -20 -20 -20 -20 -20 -20 -20 -20 -20 -20 -20 -20 -20 -20 -20 -20 -20 -20 -20 -20 -20 -20 -20 -19 -4 -15
-20 -20 -20 -20 -20 -20 -20 -20 -20 -20 -20 -20 -20 -20 -20 -20 -20 -20 -20 -20 -20 -20 -20 -20 -20 -20 -20 -20 -12 -20 -20 -20 -20 -20 -20 -20 -20 -20

GFSNE_prec_radar_084.txt.gz
Reflectivity
-20 -20 -20 -20 -20 -20 -11 -10 -4 -17 -20 -20 -20 -20 -20 -17 -0 -20 -20 7 -15 17 5 7 -1 18 21 26 -17 4 27 28 18 21 18 15 17 14
-20 -20 -20 -20 -20 -20 -20 -20 -20 -10 1 -20 -20 -20 -20 -20 -19 -20 -16 -8 4 15 14 -2 -19 5 13 3 15 12 -18 18 26 21 11 5 7 -16
-20 -20 -20 -20 -20 -20 -20 -20 -20 -20 -20 -20 -20 -20 -20 -20 -20 -20 -20 -20 -20 -15 7 -20 -20 -20 -20 -20 -19 -2 -20 -20 -20 -17 8 -9 7 9
-20 -20 -20 -20 -20 -20 -20 -20 -20 -20 -20 -20 -20 -20 -20 -20 -20 -20 -20 -20 -20 -0 -20 -20 -11 -20 -20 -20 -20 -13 -20 -20 -20 -20 -20 -20 -20 -20
-20 -20 -20 -20 -20 -20 -20 -20 -20 -20 -20 -20 -20 -20 -20 -20 -20 -20 -20 -20 -20 -20 -11 -20 -20 -2 -20 -20 -20 -20 -20 -20 -20 -20 -20 -20 -20 -20
-20 -20 -20 -20 -20 -20 -20 -20 -20 -20 -20 -20 -20 -20 -20 -20 -20 -20 -20 -20 -20 -20 -20 -20 -20 -20 -20 -20 -20 -20 -20 -20 -20 -20 -20 -20 -20 -20
-20 -20 -20 -20 -20 -20 -20 -20 -20 -20 -20 -20 -20 -20 -20 -20 -20 -20 -20 -20 -20 -20 -20 -20 -20 -20 -20 -20 -20 -20 -20 -20 -20 -20 -20 -20 -20 -6
-20 -20 -20 -20 -20 -20 -20 -20 -20 -20 -20 -20 -20 -20 -20 -20 -20 -20 -20 -20 -20 -20 -20 -20 -20 -20 -20 -20 -20 -20 -20 -20 -20 -20 -20 -15 9 10
-20 -20 -20 -20 -20 -20 -20 -20 -20 -20 -20 -20 -20 -20 -20 -20 -20 -20 -20 -20 -20 -20 -20 -20 -20 -20 -20 -20 -20 -20 -20 -20 -20 -20 -20 -19 -5 5
-20 -20 -20 -20 -20 -20 -20 -20 -20 -20 -20 -20 -20 -20 -20 -20 -20 -20 -20 -20 -20 -20 -20 -20 -20 -20 -20 -20 -20 -20 -20 -20 -20 -20 -20 -20 -20 -20
-20 -20 -20 -20 -20 -20 -20 -20 -20 -20 -20 -20 -20 -20 -20 -20 -20 -20 -20 -20 -20 -20 -20 -20 -20 -20 -20 -20 -20 -20 -20 -20 -20 -20 -20 -20 -20 -20
-20 -20 -20 -20 -20 -20 -20 -20 -20 -20 -20 -20 -20 -20 -20 -20 -20 -20 -20 -20 -20 -20 -20 -20 -20 -20 -20 -20 -20 -20 -20 -20 -20 -20 -20 -20 -20 -20
-20 -20 -20 -20 -20 -20 -20 -20 -20 -20 -20 -20 -20 -20 -20 -20 -20 -20 -20 -20 -15 -15 -20 -11 -20 -17 -11 -20 -20 -20 -20 -20 -20 -20 -20 -20 -20 -20
-20 -20 -20 -20 -20 -20 -20 -20 -20 -20 -20 -20 -20 -20 -20 -20 -20 -20 -20 -20 -20 -9 -14 -4 3 -4 -20 -7 -17 -20 -20 -20 -15 -3 -20 -20 -20 -20
-20 -20 -20 -20 -20 -20 -20 -20 -20 -20 -20 -20 -20 -20 -20 -20 -20 -20 -20 -20 -20 -14 -2 -2 -2 2 4 -2 -11 -20 -20 -20 -13 1 -18 -20 -20 -20
-20 -20 -20 -20 -20 -20 -20 -20 -20 -20 -20 -20 -20 -20 -20 -20 -20 -14 -9 -20 -14 -20 3 -20 -20 -2 -5 -0 3 0 -11 -7 -19 -20 -7 -17 -20 -20
-20 -20 -20 -20 -20 -20 -20 -20 -20 -20 -20 -20 -20 -20 -20 -20 -15 -20 -20 -20 -14 -15 -20 -20 -11 -3 -19 -10 -1 -20 -20 -20 -16 -20 -20 -20 -20 -20
-20 -20 -20 -20 -20 -20 -20 -20 -20 -20 -20 -20 -20 -20 -20 -20 -6 -18 -20 -20 -19 -18 -20 -20 -20 -6 -20 -20 -20 -20 -20 -20 -11 -6 -20 -1 -20 -20
-20 -20 -20 -20 -20 -20 -20 -20 -20 -20 -20 -20 -20 -20 -20 -20 -20 -14 -20 -20 -20 -20 -20 -20 -20 -20 -4 -20 -20 -20 -20 -20 -6 -16 -19 -2 -4 -20
-20 -20 -20 -20 -20 -20 -20 -20 -20 -20 -20 -20 -20 -20 -20 -20 -20 -20 -20 -8 -4 -7 -9 -4 -19 -20 -17 -4 -16 -20 -20 -20 -20 -20 -20 -9 -15 -20
-20 -20 -20 -20 -20 -20 -20 -20 -20 -20 -20 -20 -20 -20 -20 -20 -20 -20 -20 -20 -20 -20 -20 -20 -12 -1 -3 7 -8 -20 -20 -20 -20 -14 -20 -1 -20 -18
-20 -20 -20 -20 -20 -20 -20 -20 -20 -20 -20 -20 -20 -20 -20 -20 -20 -20 -20 -20 -20 -20 -20 -20 -13 -16 -3 -4 -15 -20 -20 -20 -20 -20 -20 -19 -2 -16
-20 -20 -20 -20 -20 -20 -20 -20 -20 -20 -20 -20 -20 -20 -20 -20 -20 -20 -20 -20 -20 -20 -10 -5 -20 -4 -4 0 -13 -20 -19 -20 -20 -20 -20 -20 -20 -20

GFSNE_prec_radar_087.txt.gz
Reflectivity
-20 -20 -20 -20 -20 9 -20 -20 -20 -19 -17 -20 -20 -20 -20 -20 -2 -20 -20 10 6 12 7 13 9 9 13 14 4 5 6 14 3 19 29 21 18 6
-20 -5 5 -19 -20 -20 -20 -20 -20 -15 -0 -20 -20 -20 -20 -20 -20 -20 -15 11 7 11 -0 11 13 -16 -1 9 17 16 5 -15 -4 -3 6 13 11 1
-20 -20 -20 -20 -20 -20 -20 -20 -20 -20 -20 -20 -20 -20 -20 -20 -20 -20 -11 -20 -17 10 6 12 7 -17 -19 -20 3 2 -20 -20 -20 -20 -3 9 10 10
-20 -20 -20 -20 -20 -20 -20 -20 -20 -20 -20 -20 -20 -20 -20 -20 -20 -20 -20 -20 -20 -19 12 10 -20 -20 -20 2 -20 -12 -20 -20 -20 -20 -20 -13 -19 -20
-20 -20 -20 -20 -20 -20 -20 -20 -20 -20 -20 -20 -20 -20 -20 -20 -20 -20 -20 -20 -20 -20 -20 -20 -20 -20 -20 -19 -15 -20 -20 -20 -20 -20 -20 -20 -20 -20
-20 -20 -20 -20 -20 -20 -20 -20 -20 -20 -20 -20 -20 -20 -20 -20 -20 -20 -20 -20 -20 -20 -20 -20 -20 -20 -20 -20 -20 -20 -20 -20 -20 -20 -20 -20 -20 -20
-20 -20 -20 -20 -20 -20 -20 -20 -20 -20 -20 -20 -20 -20 -20 -20 -20 -20 -20 -20 -20 -20 -20 -20 -20 -20 -20 -20 -20 -20 -20 -20 -20 -20 -20 -20 -20 -20
-20 -20 -20 -20 -20 -20 -20 -20 -20 -20 -20 -20 -20 -20 -20 -20 -20 -20 -20 -20 -20 -20 -20 -20 -20 -20 -20 -20 -20 -20 -20 -20 -20 -20 -20 -20 1 11
-20 -20 -20 -20 -20 -20 -20 -20 -20 -20 -20 -20 -20 -20 -20 -20 -20 -20 -20 -20 -20 -20 -20 -20 -20 -20 -20 -20 -20 -20 -20 -20 -20 -20 -20 -20 -20 -10
-20 -20 -20 -20 -20 -20 -20 -20 -20 -20 -20 -20 -20 -20 -20 -20 -20 -20 -20 -20 -20 -20 -20 -20 -20 -20 -20 -20 -20 -20 -20 -20 -20 -20 -20 -20 -7 -8
-20 -20 -20 -20 -20 -20 -20 -20 -20 -20 -20 -20 -20 -20 -20 -20 -20 -20 -20 -20 -20 -20 -20 -20 -20 -20 -20 -20 -20 -20 -20 -20 -20 -20 -20 -20 -20 -20
-20 -20 -20 -20 -20 -20 -20 -20 -20 -20 -20 -20 -20 -20 -20 -20 -20 -20 -20 -20 -20 -20 -20 -20 -20 -20 -20 -20 -20 -20 -20 -20 -20 -20 -20 -20 -20 -20
-20 -20 -20 -20 -20 -20 -20 -20 -20 -20 -20 -20 -20 -20 -20 -20 -20 -20 -20 -20 -20 -20 -20 -20 -20 -20 -20 -20 -20 -20 -20 -20 -20 -20 -20 -20 -20 -20
-20 -20 -20 -20 -20 -20 -20 -20 -20 -20 -20 -20 -20 -20 -20 -20 -20 -20 -20 -20 -20 -20 -20 -20 -17 -2 -8 -20 -20 -20 -20 -20 -20 -20 -20 -10 -17 -20
-20 -20 -20 -20 -20 -20 -20 -20 -20 -20 -20 -20 -20 -20 -20 -20 -20 -20 -12 -9 -20 -20 -7 -20 -20 -3 -3 -4 -13 -20 -19 -20 -20 -20 -20 -20 -20 -20
-20 -20 -20 -20 -20 -20 -20 -20 -20 -20 -20 -20 -20 -20 -20 -20 -20 -20 -20 -20 -20 -20 -19 -12 -20 -20 -20 -3 -20 -20 -20 -10 -20 -20 -20 -20 -20 -20
-20 -20 -20 -20 -20 -20 -20 -20 -20 -20 -20 -20 -20 -20 -20 -20 -20 -20 -20 -20 -16 -20 -20 -20 -20 -20 -20 -20 -20 -20 -20 -20 -20 -20 -20 -20 -20 -20
-20 -20 -20 -20 -20 -20 -20 -20 -20 -20 -20 -20 -20 -20 -20 -20 -20 -20 -19 -20 -7 -20 -20 -20 -18 -17 -17 -20 -20 -20 -20 -20 -20 -19 -20 -20 -20 -20
-20 -20 -20 -20 -20 -20 -20 -20 -20 -20 -20 -20 -20 -20 -20 -20 -20 -20 -20 -20 -20 -20 -7 -4 -20 -20 -20 -20 -20 -20 -20 -20 -16 -20 -20 -16 -20 -20
-20 -20 -20 -20 -20 -20 -20 -20 -20 -20 -20 -20 -20 -20 -20 -20 -20 -20 -20 -20 -20 -20 -20 -3 -7 -18 -20 -20 -18 -20 -3 -20 -20 -20 -20 -20 -20 -20
-20 -20 -20 -20 -20 -20 -20 -20 -20 -20 -20 -20 -20 -20 -20 -20 -20 -20 -20 -20 -20 -20 -20 -20 -20 -9 -16 -3 -12 -20 -20 -20 -20 -20 -20 -12 -16 -20
-20 -20 -20 -20 -20 -20 -20 -20 -20 -20 -20 -20 -20 -20 -20 -20 -20 -20 -20 -20 -20 -20 -20 -20 -20 -20 -20 -20 -20 -20 -20 -20 -20 -17 -10 -20 -20 -20
-20 -20 -20 -20 -20 -20 -20 -20 -20 -20 -20 -20 -20 -20 -20 -20 -20 -20 -20 -20 -20 -20 -20 -20 -20 -12 -20 -20 -19 -20 -20 -20 -20 -20 -20 -20 -20 -20

GFSNE_prec_radar_090.txt.gz
Reflectivity
-20 -20 -17 -15 -20 -20 -13 -18 -17 -13 -20 -20 -20 -20 -20 -20 -20 -20 -20 5 10 -2 7 7 14 4 2 6 13 14 12 15 12 20 18 -20 -19 17
-20 2 -20 1 4 -15 -20 -20 -19 -20 -20 -20 -20 -20 -20 -20 -20 -20 -16 8 13 10 10 12 9 -4 -12 10 10 13 13 12 18 6 -18 -12 -3 1
-20 -20 -20 -20 -20 -20 -20 -20 -20 -20 -20 -19 -20 -20 -20 -20 -20 -20 -16 -20 -9 -10 12 10 -3 -19 -20 -20 -20 -20 -14 1 -10 -20 -20 -13 -0 2
-20 -20 -20 -20 -20 -20 -20 -20 -20 -20 -20 -20 -20 -20 -20 -20 -20 -20 -20 -20 -20 -20 -4 -20 -20 -20 -20 -20 -20 -20 -11 -20 -20 -20 -20 -20 -20 3
-20 -20 -20 -20 -20 -20 -20 -20 -20 -20 -20 -20 -20 -20 -20 -20 -20 -20 -20 -20 -20 -20 -20 -20 -20 -20 -20 5 -11 -20 -20 -20 -20 -20 -20 -20 -20 -20
-20 -20 -20 -20 -20 -20 -20 -20 -20 -20 -20 -20 -20 -20 -20 -20 -20 -20 -20 -20 -20 -20 -20 -20 -20 -20 -20 -20 -20 -20 -20 -20 -20 -20 -20 -20 -20 -20
-20 -20 -20 -20 -20 -20 -20 -20 -20 -20 -20 -20 -20 -20 -20 -20 -20 -20 -20 -20 -20 -20 -20 -20 -20 -20 -20 -20 -20 -20 -20 -20 -20 -20 -20 -20 -20 -20
8 -20 -20 -20 -20 -20 -20 -20 -20 -20 -20 -20 -20 -20 -20 -20 -20 -20 -20 -20 -20 -20 -20 -20 -20 -20 -20 -20 -20 -20 -20 -20 -20 -20 -20 -20 -20 -20
-20 -20 -20 -20 -20 -20 -20 -20 -20 -20 -20 -20 -20 -20 -20 -20 -20 -20 -20 -20 -20 -20 -20 -20 -20 -20 -20 -20 -20 -20 -20 -20 -20 -20 -20 -20 -20 -20
-20 -20 -20 -20 -20 -20 -20 -20 -20 -20 -20 -20 -20 -20 -20 -20 -20 -20 -20 -20 -20 -20 -20 -20 -20 -20 -20 -20 -20 -20 -20 -20 -20 -20 -20 -20 -20 -20
-20 -20 -20 -20 -20 -20 -20 -20 -20 -20 -20 -20 -20 -20 -20 -20 -20 -20 -20 -20 -20 -20 -20 -20 -20 -20 -20 -20 -20 -20 -20 -20 -20 -20 -20 -20 -20 -16
-20 -20 -20 -20 -20 -20 -20 -20 -20 -20 -20 -20 -20 -20 -20 -20 -20 -20 -20 -20 -20 -20 -20 -20 -20 -20 -20 -20 -20 -20 -20 -20 -20 -20 -20 -20 -20 -20
-20 -20 -20 -20 -20 -20 -20 -20 -20 -20 -20 -20 -20 -20 -20 -20 -20 -20 -20 -20 -20 -20 -20 -20 -20 -20 -20 -20 -20 -20 -20 -20 -20 -20 -20 -20 -20 -12
-20 -20 -20 -20 -20 -20 -20 -20 -20 -20 -20 -20 -20 -20 -20 -20 -20 -20 -20 -20 -20 -20 -20 -20 -20 -20 -20 -20 -20 -20 -20 -20 -20 -20 -20 -12 -2 5
-20 -20 -20 -20 -20 -20 -20 -20 -20 -20 -20 -20 -20 -20 -20 -20 -20 -20 -20 -20 -20 -20 -20 -20 -20 -20 -20 -20 -20 -20 -20 -20 -20 -20 -20 -20 -20 -20
-20 -20 -20 -20 -20 -20 -20 -20 -20 -20 -20 -20 -20 -20 -20 -20 -20 -20 -20 -20 -20 -20 -20 -19 -20 -20 -20 -20 -16 -20 -20 -9 -20 -20 -20 -20 -20 -20
-20 -20 -20 -20 -20 -20 -20 -20 -20 -20 -20 -20 -20 -20 -20 -20 -20 -20 -20 -20 -20 -20 -20 -20 -20 -20 -20 -20 -20 -20 -20 -20 -20 -20 -20 -20 -20 -20
-20 -20 -20 -20 -20 -20 -20 -20 -20 -20 -20 -20 -20 -20 -20 -20 -20 -20 -20 -20 -20 -20 -20 -20 -20 -14 -20 -20 -20 -20 -20 -20 -20 -20 -20 -20 -20 -20
-20 -20 -20 -20 -20 -20 -20 -20 -20 -20 -20 -20 -20 -20 -20 -20 -20 -20 -20 -20 -20 -20 -20 -20 -20 -20 -20 -20 -20 -20 -20 -20 -20 -20 -20 -20 -20 -20
-20 -20 -20 -20 -20 -20 -20 -20 -20 -20 -20 -20 -20 -20 -20 -20 -20 -20 -20 -20 -20 -20 -20 -20 -20 -20 -20 -20 -20 -20 -20 -20 -20 -20 -20 -20 -20 -20
-20 -20 -20 -20 -20 -20 -20 -20 -20 -20 -20 -20 -20 -20 -20 -20 -20 -20 -20 -20 -20 -20 -20 -20 -20 -20 -20 -19 -20 -20 -20 -20 -20 -18 -20 -20 -20 -20
-20 -20 -20 -20 -20 -20 -20 -20 -20 -20 -20 -20 -20 -20 -20 -20 -20 -20 -20 -20 -20 -20 -20 -20 -20 -20 -20 -20 -20 -20 -20 -20 -20 -20 -20 -18 -20 -18
-20 -20 -20 -20 -20 -20 -20 -20 -20 -20 -20 -20 -20 -20 -20 -20 -20 -20 -20 -20 -20 -20 -20 -20 -20 -20 -20 -20 -19 -20 -20 -20 -20 -20 -20 -20 -20 -20

GFSNE_prec_radar_093.txt.gz
Reflectivity
-20 -20 -20 -20 -20 -20 -20 -20 -20 -20 -20 -14 -20 -20 -20 -20 -1 -20 -20 2 7 -7 -18 3 10 12 12 13 11 16 12 6 13 10 8 -18 9 6
-20 -20 -20 -20 -20 -20 -19 -18 -17 -20 -17 -19 -20 -20 -20 -20 -5 -20 -20 9 2 2 4 11 11 11 8 16 9 -6 5 -7 9 -7 -20 6 2 -6
-20 -20 -20 -20 -19 -20 -20 -20 -3 -20 -20 -20 -20 -15 -20 -20 -20 -20 -20 -20 -12 -5 11 11 10 -9 -7 -12 -3 5 7 3 7 7 -18 -14 -20 -15
-20 -20 -20 -20 -20 -20 -20 -20 -20 -20 -20 -20 -20 -20 -20 -20 -20 -20 -20 -20 -20 -10 9 7 6 -20 -20 -20 -20 -20 -20 -20 -20 -15 -6 -7 -20 -14
-20 -20 -20 -20 -20 -20 -20 -20 -20 -20 -20 -20 -20 -20 -20 -20 -20 -20 -20 -20 -20 -20 -20 -20 -20 -20 -5 9 -2 -20 -20 -20 -20 -20 -20 -20 -20 -20
-20 -20 -20 -20 -20 -20 -20 -20 -20 -20 -20 -20 -20 -20 -20 -20 -20 -20 -20 -20 -20 -20 -20 -20 -20 -20 -20 -20 -20 -20 -20 -20 -20 -20 -20 -20 -20 -20
-20 -20 -20 6 9 -20 -20 -20 -20 -20 -20 -20 -20 -20 -20 -20 -20 -20 -20 -20 -20 -20 -20 -20 -20 -20 -20 -20 -20 -20 -20 -20 -20 -20 -20 -20 -20 -20
9 -19 -10 6 -20 -20 -20 -20 -20 -20 -20 -20 -20 -20 -20 -20 -20 -20 -20 -20 -20 -20 -20 -20 -20 -20 -20 -20 -20 -20 -20 -20 -20 -20 -20 -20 -20 -20
-3 -9 -20 -20 -20 -20 -20 -20 -20 -20 -20 -20 -20 -20 -20 -20 -20 -20 -20 -20 -20 -20 -20 -20 -20 -20 -20 -20 -20 -20 -20 -20 -20 -20 -20 -20 -20 -20
-4 -20 -20 -20 -20 -20 -20 -20 -20 -20 -20 -20 -20 -20 -20 -20 -20 -20 -20 -20 -20 -20 -20 -20 -20 -20 -20 -20 -20 -20 -20 -20 -20 -20 -20 -20 -20 -20
-20 -20 -20 -20 -20 -20 -20 -20 -20 -17 -20 -20 -20 -20 -20 -20 -20 -20 -20 -20 -20 -20 -20 -20 -20 -20 -20 -20 -20 -20 -20 -20 -20 -20 -20 -20 -20 -20
-20 -20 -20 -20 -20 -20 -20 -12 3 -20 -20 -20 -20 -20 -20 -20 -20 -20 -20 -20 -20 -20 -20 -20 -20 -20 -20 -20 -20 -20 -20 -20 -20 -20 -20 -20 -20 -20
-20 -20 -20 -20 -20 -20 -1 -14 -20 -20 -20 -20 -20 -20 -20 -20 -20 -20 -20 -20 -20 -20 -20 -20 -20 -20 -20 -20 -20 -20 -20 -20 -20 -20 -20 -20 -20 -20
-16 -20 -20 -17 1 3 -20 -20 -20 -20 -20 -20 -20 -20 -20 -20 -20 -20 -20 -20 -20 -20 -20 -20 -20 -20 -20 -20 -20 -20 -20 -20 -20 -20 -20 -20 -12 -0
12 -8 2 4 0 -19 -20 -20 -20 -20 -20 -20 -20 -20 -20 -20 -20 -20 -20 -20 -20 -20 -20 -20 -20 -20 -20 -20 -20 -20 -20 -20 -20 -20 -20 -18 -20 -20
16 10 5 -5 -20 -20 -20 -20 -20 -20 -20 -20 -20 -20 -20 -20 -20 -20 -20 -20 -20 -20 -20 -20 -20 -20 -20 -20 -20 -20 -20 -20 -20 -20 -20 -20 -20 -20
-20 -20 -20 -20 -20 -20 -20 -20 -20 -20 -20 -20 -20 -20 -20 -20 -20 -20 -20 -20 -20 -20 -20 -20 -20 -20 -20 -20 -20 -20 -20 -20 -20 -20 -20 -20 -20 -20
-10 -20 -20 -20 -20 -20 -20 -20 -20 -20 -20 -20 -20 -20 -20 -20 -20 -20 -20 -20 -20 -20 -20 -20 -20 -20 -20 -20 -20 -20 -20 -20 -20 -20 -20 -20 -20 -20
-20 -20 -20 -20 -20 -20 -20 -20 -20 -20 -20 -20 -20 -20 -20 -20 -20 -20 -20 -20 -20 -20 -20 -20 -20 -20 -20 -20 -20 -20 -20 -20 -20 -20 -20 -20 -20 -20
-20 -20 -20 -20 -20 -20 -20 -20 -20 -20 -20 -20 -20 -20 -20 -20 -20 -20 -20 -20 -20 -20 -20 -20 -20 -20 -20 -20 -20 -20 -20 -20 -20 -20 -20 -20 -20 -20
-20 -20 -20 -20 -20 -20 -20 -20 -20 -20 -20 -20 -20 -20 -20 -20 -20 -20 -20 -20 -20 -20 -20 -20 -20 -20 -20 -20 -20 -20 -20 -20 -20 -20 -20 -20 -20 -20
-7 -20 -13 -20 -20 -20 -20 -20 -20 -20 -20 -20 -20 -20 -20 -20 -20 -20 -20 -20 -20 -20 -20 -20 -20 -20 -20 -20 -20 -20 -20 -20 -20 -20 -20 -20 -18 -11
-3 -20 -20 -20 -20 -20 -20 -20 -20 -20 -14 -20 -20 -20 -20 -20 -20 -20 -20 -20 -20 -20 -20 -20 -20 -20 -20 -20 -20 -20 -20 -20 -20 -20 -20 -20 -20 -20

GFSNE_prec_radar_096.txt.gz
Reflectivity
-20 -20 -20 -20 -11 -11 7 -20 -6 7 11 -10 -15 -2 -20 -20 -19 -20 -20 -1 13 -1 -4 -7 1 -6 8 15 16 11 19 29 19 26 16 6 1 2
-20 -20 -20 -20 -9 -19 -20 -2 -20 -20 -20 -20 -20 -20 -20 -20 -20 -20 -20 7 4 6 -20 -20 -19 -17 8 11 15 16 18 8 20 16 6 5 14 -20
-20 -20 -20 -20 -20 -20 -20 -20 -5 -20 -7 -20 -20 -3 -15 -20 -14 -20 -20 -20 -16 -9 -19 -20 -20 -6 -3 12 11 12 -3 12 9 -1 0 -19 -10 -1
-20 -20 -20 -20 -20 -20 -20 -5 -18 -20 -20 -20 2 13 -20 -4 -20 -20 -20 -20 -20 4 -20 -20 -20 -3 -20 -20 -19 -19 2 10 8 12 -16 9 -12 -20
-20 -20 -20 -20 -20 -20 -20 4 -13 -20 -20 -20 -20 -20 -20 -4 -20 -20 -20 -20 -20 -20 -20 -20 -20 -8 3 5 -20 -20 -20 -20 -20 -20 -20 -20 -20 -20
-20 -20 -20 -20 -20 -20 -20 -20 -20 -20 -20 -20 -20 -20 -10 -20 -20 -20 -20 -20 -20 -20 -20 -20 -20 -20 -20 -20 -20 -20 -20 -20 -20 -20 -20 -20 -20 -20
-20 -20 -20 2 12 1 -19 -20 -20 -20 -20 -20 -20 -20 -20 -20 -20 -20 -20 -20 -20 -20 -20 -20 -20 -20 -20 -20 -20 -20 -20 -20 -20 -20 -20 -20 -20 -20
-20 -20 -20 4 9 13 -17 -20 -20 -20 -20 -20 -20 -20 -20 -20 -20 -20 -20 -20 -20 -20 -20 -20 -20 -20 -20 -20 -20 -20 -20 -20 -20 -20 -20 -20 -20 -20
-19 -19 -7 -16 2 -20 -20 -20 -20 -20 -20 -20 -20 -20 -20 -20 -20 -20 -20 -20 -20 -20 -20 -20 -20 -20 -20 -20 -20 -20 -20 -20 -20 -20 -20 -20 -20 -20
-20 -20 -20 -20 -20 -20 -20 -20 -20 -20 -20 -20 -20 -20 -20 -20 -20 -20 -20 -20 -20 -20 -20 -20 -20 -20 -20 -20 -20 -20 -20 -20 -20 -20 -20 -20 -20 -20
-20 -20 -15 -20 -20 -20 -20 -20 -20 -20 -20 -20 -20 -20 -20 -20 -20 -20 -20 -20 -20 -20 -20 -20 -20 -20 -20 -20 -20 -20 -20 -18 -20 -20 -20 -20 -20 -20
-20 -20 -20 -20 -20 -20 -20 -15 3 -3 -7 -17 -9 -20 -20 -20 -20 -20 -20 -20 -20 -20 -20 -20 -20 -20 -20 -20 -20 -20 -20 -20 -20 -20 -20 -20 -20 -20
-20 -20 -20 -20 -12 -20 -20 -13 -14 -17 -11 -13 -13 -20 -20 -20 -20 -20 -20 -20 -20 -20 -20 -20 -20 -20 -20 -20 -20 -20 -20 -20 -20 -20 -20 -20 -20 -20
-20 -20 -8 -1 4 -20 -20 -20 -8 5 -7 -18 -20 -20 -20 -20 -20 -20 -20 -20 -20 -20 -20 -20 -20 -20 -20 -20 -20 -20 -20 -20 -20 -20 -20 -20 -20 -7
-20 -2 -16 -6 3 -13 -17 -2 -4 -1 -14 -20 -20 -20 -20 -20 -20 -20 -20 -20 -20 -20 -20 -20 -20 -20 -20 -20 -20 -20 -20 -20 -20 -20 -20 -20 -20 -20
-5 2 8 3 4 8 6 -0 -20 -20 -20 -20 -20 -20 -20 -20 -20 -20 -20 -20 -20 -20 -20 -20 -20 -20 -20 -20 -20 -20 -20 -20 -20 -20 -20 -20 -20 -20
-20 -19 -19 -20 -20 -20 -20 -20 -20 -20 -20 -20 -20 -20 -20 -20 -20 -20 -20 -20 -20 -20 -20 -20 -20 -20 -20 -20 -20 -20 -20 -20 -20 -20 -20 -20 -20 -20
-20 -20 -20 -20 -20 -20 -20 -20 -20 -20 -20 -20 -20 -20 -20 -20 -20 -20 -20 -20 -20 -20 -20 -20 -20 -20 -20 -20 -20 -20 -20 -20 -20 -20 -20 -20 -20 -20
-20 -20 -20 -20 -20 -20 -20 -20 -20 -20 -20 -20 -20 -20 -20 -20 -20 -20 -20 -20 -20 -20 -20 -20 -20 -20 -20 -20 -20 -20 -20 -20 -20 -20 -20 -20 -20 -20
-20 -20 -20 -20 -20 -20 -20 -20 -20 -20 -20 -20 -20 -20 -20 -20 -20 -20 -20 -20 -20 -20 -20 -20 -20 -20 -20 -20 -20 -20 -20 -20 -20 -20 -20 -20 -20 -20
-20 -20 -20 -20 -20 -20 -20 -20 -20 -20 -20 -20 -20 -20 -20 -20 -20 -20 -20 -20 -20 -20 -20 -20 -20 -20 -20 -20 -20 -20 -20 -20 -20 -20 -20 -20 -20 -20
-9 -19 -1 -13 -20 -20 -20 -20 -20 -20 -20 -20 -20 -20 -20 -20 -20 -20 -20 -20 -20 -20 -20 -20 -20 -20 -20 -20 -20 -20 -20 -20 -20 -20 -20 -20 -20 -20
6 5 9 3 -7 -5 -17 -20 -20 -20 -20 -13 -11 -19 -20 -20 -20 -20 -20 -20 -20 -20 -20 -20 -20 -20 -20 -20 -20 -20 -20 -20 -20 -20 -20 -20 -20 -20

GFSNE_prec_radar_099.txt.gz
Reflectivity
-20 -20 -20 -20 -20 -20 -20 0 14 12 3 -20 -16 -17 -7 -6 13 -16 -20 -20 9 3 -1 2 7 7 12 16 18 10 5 18 26 8 17 3 5 11
-20 -20 -8 -20 -20 -20 -19 -6 1 4 -12 -14 10 2 0 -12 9 -16 -20 -20 -4 10 -2 -4 5 5 13 16 3 14 13 20 18 16 15 23 17 1
-17 -20 -19 -1 -12 -20 -20 -10 -17 -20 9 -18 -19 -14 10 -20 -20 -19 -17 -20 -14 9 11 -9 -16 -12 6 11 -11 3 -7 9 18 16 9 17 9 -0
-20 -20 -20 -20 -20 -20 -20 -20 -20 -17 3 16 1 10 -20 -20 3 -20 -20 -20 -20 10 -2 8 -6 -20 -20 -7 -5 -4 -10 -5 -9 -20 -2 -20 -5 -20
-20 -20 -20 -20 -20 -20 -20 -20 -20 -8 11 -2 -7 -16 2 -8 -20 -20 -20 -20 -20 -20 -20 -20 -20 -14 -11 -20 -20 -13 -20 -20 -18 -18 -7 -5 -16 -20
-20 -20 -20 -20 -20 -20 -20 -20 -13 -3 -11 -20 -19 -19 -20 -20 -20 -20 -20 -20 -20 -20 -20 -20 -20 -20 -11 -20 -20 -20 -20 -20 -20 -20 -20 -20 -20 -20
-20 -20 -20 -7 11 5 -16 -20 -20 -20 -20 -12 -20 -20 -20 -20 -20 -20 -20 -20 -20 -20 -20 -20 -20 -20 -20 -20 -20 -20 -20 -20 -20 -20 -20 -20 -20 -20
-20 -20 -20 -6 4 11 12 13 7 -20 -20 -20 1 -20 -20 -20 -20 -20 -20 -20 -20 -20 -20 -20 -20 -20 -20 -20 -20 -20 -20 -20 -20 -20 -20 -20 -20 -20
-20 -20 -20 -20 -11 -11 15 12 -7 -20 -20 -20 -20 -20 -20 -20 -20 -20 -20 -20 -20 -20 -20 -20 -20 -20 -20 -20 -20 -20 -20 -20 -20 -20 -20 -20 -20 -20
-20 -20 -20 -19 1 5 0 -20 -20 -20 -20 -18 -20 -20 -20 -20 -20 -20 -20 -20 -20 -20 -20 -20 -20 -20 -20 -20 -20 -20 -20 -20 -20 -20 -20 -20 -20 -20
-20 -20 -16 -6 14 11 -20 -20 -20 -20 -20 -20 -20 -20 -20 -20 -20 -20 -20 -20 -20 -20 -20 -20 -20 -20 -20 -20 -20 -4 -12 4 -20 -20 -20 -20 -20 -20
-20 -20 -2 -14 -20 -20 -20 -20 -20 -20 -20 -8 -11 -20 -20 -20 -20 -20 -20 -20 -20 -20 -20 -20 -20 -20 -20 -20 -20 -20 -20 -20 -20 -20 -20 -20 -20 -20
-20 -20 -20 -20 -20 -20 -20 -20 -15 -16 -18 -2 5 1 -18 -20 -20 -20 -20 -20 -20 -20 -20 -20 -20 -20 -20 -20 -20 -20 -20 -20 -20 -20 -20 -20 -20 -20
-20 -20 -20 -20 -20 -9 -18 -12 0 -9 3 -4 -18 -15 -20 -20 -20 -20 -20 -20 -20 -20 -20 -20 -20 -20 -20 -20 -20 -20 -20 -20 -20 -20 -20 -20 -20 -20
-20 -20 -20 -20 -20 -20 -20 -20 -20 -20 -20 -13 -20 -20 -20 -20 -20 -20 -20 -20 -20 -20 -20 -20 -20 -20 -20 -20 -20 -20 -20 -20 -20 -20 -20 -20 -20 -20
-20 -20 -20 -11 -20 -20 -20 -20 -20 -20 -20 -20 -20 -18 -8 -14 -20 -20 -20 -20 -20 -20 -20 -20 -20 -20 -20 -20 -20 -20 -20 -20 -20 -20 -20 -20 -20 -20
-20 -20 -20 -20 -20 -20 -20 -20 -20 -20 -20 -15 -4 -16 -20 -20 -20 -20 -20 -20 -20 -20 -20 -20 -20 -20 -20 -20 -20 -20 -20 -20 -20 -20 -20 -20 -20 -20
-20 -20 -20 -20 -20 -20 -20 -20 -20 -20 -19 -20 -20 -20 -20 -20 -20 -20 -20 -20 -20 -20 -20 -20 -20 -20 -20 -20 -20 -20 -20 -20 -20 -20 -20 -20 -20 -20
-20 -20 -20 -20 -20 -20 -20 -20 -20 -20 -20 -20 -20 -20 -20 -20 -20 -20 -20 -20 -20 -20 -20 -20 -20 -20 -20 -20 -20 -20 -20 -20 -20 -20 -20 -20 -20 -20
-20 -20 -20 -20 -20 -20 -20 -20 -20 -20 -20 -20 -20 -20 -20 -20 -20 -20 -20 -20 -20 -20 -20 -20 -20 -20 -20 -20 -20 -20 -20 -20 -20 -20 -20 -20 -20 -20
-19 -20 -20 -20 -20 -20 -20 -20 -20 -20 -20 -20 -20 -20 -20 -20 -20 -20 -20 -20 -20 -20 -20 -20 -20 -20 -20 -20 -20 -20 -20 -20 -20 -20 -20 -20 -20 -20
-17 -20 -20 -20 -20 -20 -20 -20 -20 -20 -20 -20 -20 -20 -20 -20 -20 -5 -12 -20 -20 -20 -20 -13 -20 -20 -20 -20 -20 -20 -20 -20 -20 -20 -20 -20 -20 -20
-6 2 -10 -7 -20 -17 -13 -9 -18 -17 -2 -7 2 -1 -2 -7 -8 -20 -20 -20 -20 -20 -20 -2 -4 -20 -20 -20 -20 -20 -20 -20 -20 -20 -20 -20 -20 -20

GFSNE_prec_radar_102.txt.gz
Reflectivity
-20 -20 -20 -20 -20 -20 -20 -20 -7 5 -12 -20 -20 -19 -3 -20 11 -17 -20 -20 -20 -20 -20 2 3 -20 7 5 14 13 13 -10 18 -13 -15 6 -8 2
-20 -20 -20 -20 -20 -20 -20 -20 -20 5 10 -18 11 -9 -20 -9 8 11 -20 -18 -20 -20 -7 -20 -20 -20 11 14 12 18 19 25 26 17 13 -8 -10 -19
-20 -20 -20 -20 -20 -20 -20 -20 -20 -20 -15 -6 -10 -20 6 -2 4 -11 -6 -20 -20 -5 -10 -4 -20 -20 9 17 11 18 10 27 26 27 23 15 17 4
-20 -20 -20 -20 -20 -20 -20 -20 -20 -20 -20 -20 -18 10 -0 0 11 -19 -20 -20 -20 -17 8 5 -1 -20 -20 9 9 6 12 11 13 13 -8 9 -6 8
-20 -20 -20 -20 -20 -20 -20 -20 -20 -20 -20 -20 -20 -19 12 -5 3 -2 -4 -20 -20 8 8 6 -8 6 -14 -18 -19 -0 1 -20 -20 -20 -10 -7 -20 1
-20 -20 -20 -20 -20 -20 -20 -20 -20 -20 -14 -20 2 10 9 6 8 -10 -20 -20 -20 -20 -20 -20 -20 -16 -15 -20 -20 -20 -16 -20 -20 -20 -20 -20 -20 -20
-20 -20 -20 -20 -20 -20 -20 -20 -20 -20 1 7 11 12 2 3 -20 -20 -20 -20 -20 -20 -20 -20 -20 -20 -20 -20 -20 -20 -20 -20 -20 -20 -20 -20 -20 -20
-20 -20 -20 -5 -7 8 2 8 5 -20 9 -2 11 16 3 12 7 -3 -20 -20 -20 -20 -20 -20 -20 -20 -20 -20 -20 -20 -20 -20 -20 -20 -20 -20 -20 -20
-20 -20 -20 -20 -8 -20 9 11 4 10 -12 -20 -20 -4 -20 -20 -20 -20 -19 -2 -20 -20 -20 -20 -20 -20 -20 -20 -20 -20 -20 -20 -20 -20 -20 -20 -20 -20
-20 -20 -20 -20 -9 -13 -20 -20 -16 7 -8 -14 -20 -20 -20 -20 1 17 10 -19 -20 -20 -20 -20 -20 -20 -20 -20 -20 -20 -20 -20 -20 -20 -20 -20 -20 -20
-20 -20 -20 -20 9 8 -19 -1 4 -13 6 -1 -20 -20 -20 -20 -20 -20 -20 -20 -20 -9 1 -18 -20 -20 -20 -20 -20 -20 -20 -20 -20 -20 -20 -20 -20 -20
-20 -20 9 2 -0 9 -18 -20 -20 -20 -20 -20 -20 -20 -20 -12 -20 -5 3 -5 8 -17 -17 -20 -20 -20 -20 -20 -20 -20 -20 -20 -20 -20 -20 -20 -20 -20
-20 -20 -20 -20 -20 -20 -20 -20 -20 -20 -20 -20 -20 -20 -20 -20 -20 -17 1 4 -16 -20 -20 -20 -20 -20 -20 -20 -20 -20 -20 -20 -20 -20 -20 -20 -20 -20
-20 -20 -20 -20 -20 -20 -20 -20 -20 -20 -20 -20 -20 -20 -20 -20 -9 -6 -19 -20 -20 -20 -20 -20 -18 -20 -20 -20 -20 -20 -20 -20 -20 -20 -20 -20 -20 -20
-20 -20 -20 -20 -20 -20 -20 -20 -20 -20 -20 -20 -20 -20 -20 -7 -14 -20 -20 -20 -17 -17 -20 -20 -20 -20 -20 -20 -20 -20 -20 -20 -20 -20 -20 -20 -20 -20
-20 -20 -20 -20 -20 -20 -20 -20 -20 -20 -20 -20 -20 -20 -20 -20 -20 -20 -20 -15 -20 -20 -20 -20 -20 -20 -20 -20 -20 -20 -20 -20 -20 -20 -20 -20 -20 -20
-20 -20 -20 -20 -20 -20 -20 -20 -20 -20 -20 -20 -20 -20 -20 -20 -20 -20 -20 -20 -20 -20 -20 -20 -20 -20 -20 -20 -20 -20 -20 -20 -20 -20 -20 -20 -20 -20
-20 -20 -20 -20 -20 -20 -20 -20 -20 -20 -20 -20 -20 -20 -20 -20 -20 -18 -20 -20 -20 -20 -20 -20 -20 -20 -20 -20 -20 -20 -20 -20 -20 -20 -20 -20 -20 -20
-20 -20 -20 -20 -20 -20 -20 -20 -20 -20 -20 -20 -20 -20 -20 -20 -20 -20 -20 -20 -20 -20 -20 -20 -20 -20 -20 -20 -20 -20 -20 -20 -20 -20 -20 -20 -20 -20
-20 -20 -20 -20 -20 -20 -20 -20 -20 -20 -20 -20 -20 -20 -20 -20 -20 -20 -20 -20 -20 -20 -20 -20 -20 -20 -20 -18 1 -16 -20 -20 -20 -20 -20 -20 -20 -20
-20 -20 -20 -20 -20 -20 -20 -20 -20 -20 -20 -16 -15 -19 -20 -20 -20 -20 -20 -20 -20 -20 -20 -20 -20 -20 -20 -20 -18 1 -20 -20 -20 -20 -20 -20 -20 -20
-14 -8 -13 -11 -20 -20 -20 -20 -20 -20 -20 -20 -20 -18 -20 -20 -20 -16 -14 -20 -20 -20 -20 -18 -20 -20 -20 -20 -14 -16 -20 -20 -20 -20 -20 -20 -20 -20
-5 -12 -16 -15 -14 -3 -5 -20 -20 -20 -19 -20 -20 -20 -17 -18 -8 -19 -20 -20 -20 -20 -20 -4 -10 -20 -20 -20 -20 -20 -20 -19 -20 -20 -20 -20 -20 -20

GFSNE_prec_radar_105.txt.gz
Reflectivity
-20 -20 -20 -20 -20 -20 -20 -20 -18 -20 -20 -20 -20 -20 -20 4 13 -18 -20 13 15 -14 -20 -20 -19 -20 -20 2 14 -14 6 -3 11 -20 -15 10 31 20
-20 -20 -20 -20 -20 -20 -20 -20 3 1 -6 -20 -20 -20 -20 -20 9 -11 -20 -1 -8 -20 -20 -20 -20 -20 -19 17 13 6 9 17 1 9 15 15 -17 -16
-20 -20 -20 -20 -20 -20 -20 -20 -20 -20 -9 -20 -20 -20 -20 -20 -20 -19 -1 -15 4 -4 -20 -20 -20 -20 -20 12 14 17 12 23 26 20 5 1 -7 -20
-20 -20 -20 -20 -20 -20 -20 -20 -20 -20 -20 -20 -20 -12 -20 -20 -20 17 5 -17 -19 12 -10 -20 -20 3 -20 2 2 18 15 15 6 11 16 27 16 13
-20 -20 -20 -20 -20 -20 -20 -20 -20 -20 -20 -20 -20 -20 -20 -20 -19 -1 -5 -2 -4 15 7 -20 -14 -19 -20 -20 -14 2 -15 7 21 24 19 16 13 5
-20 -20 -20 -20 -20 -20 -20 -20 -20 -20 -20 -20 -5 -20 -20 -20 -13 3 8 -19 2 -19 3 -20 -20 -20 -20 -20 -20 -8 -20 -20 -20 -20 -10 -2 -13 -20
-20 -20 -20 -20 -20 -20 -20 -20 -20 -20 -20 -20 -20 -12 8 7 10 12 8 0 0 -20 -20 -20 -20 -20 -20 -20 -20 -20 -10 -20 -20 -20 -20 -20 -20 -20
-20 -20 -20 -20 -15 -18 -4 4 2 -20 -20 -20 5 -7 6 7 12 12 3 -10 -12 -20 -20 -20 -20 -7 -14 -8 -20 -20 -20 -20 -20 -20 -20 -20 -20 -20
-20 -20 -20 -20 -2 -20 4 9 7 -11 4 -20 -4 3 -14 12 -3 6 -0 6 -20 -20 2 12 -17 -20 -20 -20 -20 -13 -20 -20 -20 -20 -20 -20 -20 -20
-20 -20 -20 -20 -17 -19 -20 -20 -20 -15 -2 -19 -20 -17 -20 -20 -20 -20 -20 -20 -9 13 15 -19 -20 -20 -20 -20 -17 -20 -20 -20 -20 -20 -20 -20 -20 -20
-20 -20 -20 -20 -20 -20 -20 -20 -20 -19 9 10 10 9 -5 -20 -20 -20 -20 -19 -2 -18 -3 -20 -20 -20 -19 -7 -20 -20 -20 -20 -20 -20 -20 -20 -20 -20
-20 -20 -19 -20 -20 -20 -20 -20 -20 -20 -20 -20 -20 -20 -20 -20 -20 -20 -20 -20 -20 -3 -1 2 -2 2 -4 -20 -20 -20 -20 -17 -20 -20 -20 -20 -20 -20
-20 -20 -20 -17 -20 -20 -20 -20 -20 -20 -20 -20 -20 -20 -20 -20 -20 -20 -20 -20 -20 -20 -13 -16 -20 -18 -10 -18 -20 -20 -20 -20 -20 -20 -20 -20 -20 -20
-20 -20 -20 -20 -20 -20 -20 -20 -20 -20 -20 -20 -20 -20 -20 -20 -20 -20 -20 -20 -20 -20 -20 -20 -20 -5 -9 -8 -20 -20 -20 -20 -20 -20 -20 -20 -20 -20
-20 -20 -20 -20 -20 -20 -20 -20 -20 -20 -20 -20 -20 -20 -20 -20 -20 -20 -20 -20 -20 -20 -20 -20 -20 -9 2 2 -16 -20 -20 -20 -20 -20 -20 -20 -20 -20
1 -20 -15 -20 -20 -20 -20 -20 -20 -20 -20 -20 -20 -20 -20 -20 -20 -20 -20 -20 -20 -20 -20 -20 -20 -20 -20 -12 -9 -20 -20 -20 -20 -20 -20 -20 -20 -20
-0 -20 -20 -20 -20 -20 -20 -20 -20 -20 -20 -20 -20 -20 -20 -20 -20 -20 -20 -20 -20 -20 -20 -20 -20 -20 -20 -20 -20 -20 -20 -20 -20 -20 -20 -20 -20 -20
-20 -20 -20 -20 -20 -20 -20 -20 -20 -20 -20 -20 -20 -20 -20 -20 -20 -20 -20 -20 -20 -20 -20 -20 -20 -20 -20 -20 -20 -20 -20 -20 -20 -20 -20 -20 -20 -20
-20 -20 -20 -20 -20 -20 -20 -20 -20 -20 -20 -20 -20 -20 -20 -20 -20 -20 -20 -20 -20 -20 -20 -20 -20 -20 -20 -20 -20 -20 -20 -20 -20 -20 -20 -20 -20 -20
-20 -20 -20 -20 -20 -20 -20 -20 -20 -20 -20 -20 -20 -20 -20 -20 -20 -18 -20 -20 -20 -20 -20 -20 -20 -20 -20 -20 -20 1 2 -15 -20 -20 -20 -20 -20 -20
-20 -17 -15 -20 -20 -20 -20 -20 -20 -20 -20 -20 -20 -20 -20 -20 -20 -20 -20 -20 -20 -20 -20 -20 -20 -20 -20 -20 -18 8 3 -17 -20 -20 -20 -20 -20 -20
-18 -10 -9 -15 -14 -16 -19 -20 -20 -20 -20 -20 -20 -20 -20 -20 -20 -20 -20 -20 -20 -20 -20 -20 -20 -20 -20 -20 -3 2 -5 -20 -20 -20 -20 -20 -20 -20
-9 -9 -15 -8 -2 -3 -13 -12 -13 -18 -19 -20 -20 -20 -20 -20 -20 -20 -20 -20 -20 -20 -20 -13 -20 -20 -20 -20 -20 -20 -13 -7 -20 -20 -20 -20 -20 -20

GFSNE_prec_radar_108.txt.gz
Reflectivity
7 -6 -20 -20 -20 -20 -20 -19 -20 -20 -20 -5 -20 -20 -20 -20 -19 -20 3 8 -13 -14 13 5 -20 -10 -2 -20 5 12 -20 -20 -20 -13 15 20 27 25
-20 -20 -20 -20 -20 -20 -20 -20 -13 -20 -15 -15 -20 -20 -20 -20 -20 -20 -20 5 -8 8 -14 -20 -20 -10 -20 -13 16 12 -18 -8 -20 -20 -20 24 31 19
-20 -20 -20 -20 -20 -20 -20 -20 -10 -14 -12 -17 -20 -20 -20 -20 -20 -20 -17 -10 -6 12 -1 -20 -20 -20 -20 -20 5 17 15 -6 27 8 17 21 13 9
-20 -20 -20 -20 -20 -20 -20 -20 -7 -15 6 6 -20 -20 -20 -20 -20 -20 -13 -12 2 17 -1 -20 -20 -20 -20 -16 8 16 21 18 26 25 22 23 5 19
-20 -20 -20 -20 -20 -20 -20 -20 -20 -20 -20 0 -20 -20 -2 -20 -20 -20 -20 -0 6 15 9 3 -20 -20 -20 -20 -5 15 21 29 25 26 16 21 21 19
-20 -20 -20 -20 -20 -20 -20 -20 -20 -20 -20 -14 -20 -20 -20 -20 -20 -20 -20 -6 8 3 14 5 -20 -20 -20 -20 -20 -8 7 -20 -12 -6 15 18 28 22
-20 -20 -20 -20 -20 -20 -20 -20 -20 -20 -20 -20 -20 -20 -20 -20 -20 -20 -17 -5 -8 -10 6 -20 -20 -20 -20 -20 -20 -20 -20 -20 -9 -5 10 9 2 -8
-20 -20 -20 -20 -20 -20 -20 -20 -20 -20 -20 -20 -20 -20 -20 -16 -13 -6 -2 -15 -11 -20 -20 -20 -20 -20 -20 -20 -20 -20 -12 -1 -7 -20 -20 -20 -20 -20
-20 -20 -20 -20 -20 -20 -20 -20 -20 -10 5 -17 -20 -20 -10 3 -7 -1 12 8 -11 1 -20 -20 -20 -20 -5 16 12 -0 -19 -20 -20 -20 -20 -20 -20 -20
-20 -20 -20 -20 -20 -20 -20 -20 -20 -20 -18 -20 -20 -20 -20 -20 -7 6 -17 5 -20 -17 -20 -20 -19 -5 9 -1 -20 -20 -20 -20 -18 -20 -20 -20 -20 -20
-20 -20 -20 -20 -20 -18 -20 -20 -20 -20 -12 6 -19 9 11 10 3 -20 -20 -20 -20 -20 -20 -19 -2 1 -3 -20 -20 -20 -19 -7 1 -20 -20 -20 -20 -20
-20 -20 -17 -8 5 -20 -20 -20 -20 -20 -20 -20 -20 -20 -3 -6 -16 -20 -20 -20 -20 -20 -20 -20 -17 -4 -2 -3 -20 -20 -20 -9 -20 -20 -20 -20 -20 -20
-20 -20 -20 -20 -2 -7 -20 -20 -20 -20 -20 -20 -20 -20 -20 -20 -20 -20 -20 -20 -12 -20 -20 -20 -20 -20 -20 -18 -8 -20 -20 -20 -20 -20 -20 -20 -20 -20
-20 -20 -20 -20 -20 -20 -20 -20 -20 -20 -20 -20 -20 -20 -20 -20 -20 -20 -20 -20 -20 -3 -20 3 -20 -20 -20 -20 -20 -20 -20 -20 -20 -20 -20 -20 -20 -20
-20 -20 -20 -20 -20 -20 -20 -20 -20 -20 -20 -20 -20 -20 -20 -20 -20 -20 -20 -20 -20 -20 -20 -20 -6 -20 -20 -20 -20 -20 -20 -20 -20 -20 -20 -20 -20 -20
-20 -19 -20 -20 -20 -20 -20 -20 -20 -20 -20 -20 -20 -20 -20 -20 -20 -20 -20 -20 -20 -20 -20 -20 -20 -20 -20 -20 -20 -20 -10 -14 -20 -20 -20 -20 -20 -20
-20 -20 -20 -20 -20 -20 -20 -20 -20 -20 -20 -20 -20 -20 -20 -20 -20 -20 -20 -20 -20 -20 -20 -20 -20 -20 -20 -20 -20 -20 -20 -20 -20 -20 -20 -20 -20 -20
-20 -20 -20 -20 -20 -20 -20 -20 -20 -20 -20 -20 -20 -20 -20 -20 -20 -20 -20 -20 -20 -20 -20 -20 -20 -20 -20 -20 -20 -20 -20 -20 -20 -20 -20 -20 -20 -20
-20 -20 -20 -20 -20 -20 -20 -20 -20 -20 -20 -20 -20 -20 -20 -20 -20 -20 -20 -20 -20 -20 -20 -20 -20 -20 -20 -20 -20 -20 -20 -20 -20 -20 -20 -20 -20 -20
-20 -20 -20 -20 -20 -20 -20 -20 -20 -20 -20 -20 -20 -20 -20 -20 -20 -20 -20 -20 -20 -20 -20 -20 -20 -20 -20 -20 -20 -8 -16 -20 -20 -20 -20 -20 -20 -20
-20 -20 -20 -20 -20 -20 -20 -20 -20 -20 -20 -20 -20 -20 -20 -20 -20 -20 -20 -20 -20 -20 -20 -20 -20 -20 -20 -20 -20 3 -3 -12 -20 -20 -20 -20 -20 -20
-1 2 -20 -20 -3 -0 -3 -8 -16 -20 -20 -20 -20 -20 -20 -20 -20 -20 -20 -20 -20 -20 -20 -20 -20 -20 -1 -20 -18 -1 -8 -19 -20 -20 -20 -20 -20 -20
-12 -16 -2 11 6 -2 -1 -3 -4 -10 -12 -4 -1 -9 -20 -20 -19 -20 -20 -20 -20 -20 -20 -20 -20 -9 -20 -20 -20 -20 -14 -20 -20 -20 -20 -20 -20 -20

GFSNE_prec_radar_111.txt.gz
Reflectivity
0 2 -20 -20 -10 -20 -20 -20 -20 -20 -20 -20 1 -20 -20 -20 -20 -20 -20 13 -14 8 6 -19 4 -3 -13 -20 -12 13 8 -20 -4 7 -14 -16 26 26
-19 -20 -20 -20 -20 -20 -20 -20 -20 -20 -20 -20 -20 -20 -20 -20 -12 -20 -13 8 -20 -2 -18 3 2 -20 -20 -20 -9 6 15 2 11 -20 8 -0 12 26
-20 -20 -20 -20 -20 -20 -20 -20 -20 -20 -20 -20 -20 -20 -20 -20 -20 -19 -10 -20 -20 -2 6 8 -10 -20 -20 -20 -20 12 15 4 -18 14 10 11 26 38
-20 -20 -20 -20 -20 -20 -20 -20 -20 -20 -19 -20 -20 -20 -20 -20 -20 -20 -20 -20 -14 11 6 3 -20 -20 -20 -20 -20 12 16 19 -4 25 22 26 -3 18
-20 -20 -20 -20 -20 -20 -20 -20 -20 -20 -20 -1 -15 -20 -20 -20 -20 -20 -8 -20 -18 1 10 1 -20 -20 -20 -20 -13 14 16 25 26 18 20 19 23 8
-20 -20 -20 -20 -20 -20 -20 -20 -20 -20 -20 -20 -7 -20 -20 -20 -20 -20 -20 -20 -17 -4 11 7 -11 -20 -20 -20 -20 4 12 22 25 23 24 20 29 24
-20 -20 -20 -20 -20 -20 -20 -20 -20 -20 -20 -20 -8 -20 -20 -20 -20 -20 -20 -20 -20 3 -3 -13 -20 -20 -20 -20 -20 -20 -1 16 9 28 20 41 16 8
-20 -20 -20 -20 -20 -20 -20 -20 -20 -20 -20 -5 -20 -20 -20 -20 -19 11 -4 -10 -17 -20 -20 -20 -20 -20 -20 -20 -20 -20 -20 -20 -20 -20 -20 5 12 13
-20 -20 -20 -20 -20 -20 -20 -20 -20 -20 -20 -20 -20 -20 -20 -20 -19 -9 10 3 -5 -9 -20 -20 -20 -20 -20 -20 -20 8 6 -12 -14 -20 -3 2 2 -13
-20 -20 -20 -20 -20 -20 -20 -20 -20 -20 -20 -20 -20 -20 -20 -5 -10 -14 3 12 9 -1 -10 -20 -20 -20 -20 -20 -20 -20 -7 14 5 -12 -19 -12 -17 -20
-20 -20 -20 -20 -20 -20 -20 -20 -20 -20 -20 -5 3 8 10 11 8 -12 -18 -20 -20 -20 -20 -20 -20 -20 -20 -20 -20 11 4 -20 -19 -11 -20 -20 -20 -20
-20 -20 -20 -20 -20 -20 -20 -20 -20 -20 -20 -20 -20 -1 2 2 6 -11 -20 -20 -15 -20 -20 -20 -20 -20 -20 -20 -20 -6 -9 -20 -20 -20 -20 -20 -20 -20
-20 -20 -20 -20 -17 -15 -9 -20 -20 -20 -20 -20 -20 -20 -20 -20 -20 -20 -20 -20 -20 -20 -20 -20 -20 -20 -20 -20 -20 -20 -20 -20 -20 -20 -20 -20 -20 -20
-20 -20 -20 -20 -20 -20 -20 -20 -20 -20 -20 -20 -20 -20 -20 -20 -20 -20 -20 -20 -20 -20 -20 -20 -20 -20 -20 -20 -20 -20 -20 -20 -20 -20 -20 -20 -20 -20
-20 -20 -20 -20 -20 -20 -20 -20 -20 -20 -20 -20 -20 -20 -20 -20 -20 -20 -20 -20 -20 -20 -20 -20 -20 -20 -20 -20 -20 -20 -20 -20 -20 -20 -20 -20 -20 -20
10 -20 -20 -20 -20 -20 -20 -20 -20 -20 -20 -20 -20 -20 -20 -20 -20 -20 -20 -20 -20 -20 -20 -20 -20 -20 -20 -20 -20 -20 -20 -20 -20 -20 -20 -20 -20 -20
6 -20 -20 -20 -20 -20 -20 -20 -20 -20 -20 -20 -20 -20 -20 -20 -20 -20 -20 -20 -20 -20 -20 -20 -20 -20 -20 -20 -20 -20 -20 -20 -20 -20 -20 -20 -20 -20
-15 -20 -20 -20 -20 -20 -20 -20 -20 -20 -20 -20 -20 -20 -20 -20 -20 -20 -20 -20 -20 -20 -20 -20 -20 -20 -20 -20 -20 -20 -20 -20 -20 -20 -20 -20 -20 -20
-15 -20 -20 -20 -20 -20 -20 -20 -20 -20 -20 -20 -20 -20 -20 -20 -20 -20 -20 -20 -20 -20 -20 -20 -20 -20 -20 -20 -20 -20 -20 -20 -20 -20 -20 -20 -20 -20
-20 -20 -20 -20 -20 -20 -20 -20 -20 -20 -20 -20 -20 -20 -20 -20 -20 -20 -20 -20 -20 -20 -20 -20 -20 -20 -20 -20 -20 -7 -20 -20 -20 -20 -20 -20 -20 -20
-13 -20 -18 -20 -20 -20 -20 -20 -20 -20 -20 -20 -20 -20 -20 -20 -20 -20 -20 -20 -20 -20 -20 -20 -20 -20 -20 -20 -20 -19 -20 -20 -20 -20 -20 -20 -20 -20
-7 -9 -5 -2 -3 -5 -0 0 -6 -17 -20 -20 -20 -20 -20 -20 -20 -20 -20 -20 -20 -20 -20 -20 -20 -20 -20 -20 -20 -18 -20 -20 -20 -20 -20 -20 -20 -20
-2 -4 -3 -4 -4 19 15 16 9 -1 -0 2 -5 -5 -9 -14 -17 -20 -20 -20 -20 -20 -20 -20 -20 -20 -20 -20 -20 -20 -20 -20 -20 -20 -20 -20 -20 -20

GFSNE_prec_radar_114.txt.gz
Reflectivity
-6 -20 -14 24 14 3 -20 -20 -20 -20 -20 -20 -20 -20 -20 -20 -20 -20 -20 -16 -20 10 6 -17 -1 -20 -20 -20 -17 -14 -3 -0 6 -14 -3 -20 -20 10
-5 18 8 -16 -20 -20 -20 -20 -20 -20 -20 -20 -20 -20 -20 -20 -20 -20 -20 5 -6 11 -18 -20 -20 -20 -20 -20 -20 -20 -20 12 -20 -11 -8 14 -14 -20
9 4 -20 -20 -20 -20 -20 -20 -20 -20 -20 -20 -20 -20 -20 -20 -20 -20 -20 -20 -17 11 6 -20 -20 -19 -20 -20 -20 -20 -15 11 -5 -20 -1 -19 -20 -17
-20 -20 -20 -20 -20 -20 -20 -20 -20 -20 -20 -20 -20 -20 -15 -20 -20 -20 -20 -20 -6 8 8 -16 -20 -17 -20 -20 -20 -7 4 18 12 -20 -20 20 9 27
-20 -20 -20 -20 -20 -20 -20 -20 -20 -20 -20 -20 -20 -20 -20 -20 -20 -20 -20 -20 -20 -9 -8 3 -15 -10 -20 -20 -20 -5 10 22 20 5 24 21 15 22
-19 -20 -20 -20 -20 -20 -20 -20 -20 -20 -20 -20 -20 -20 -20 -20 -20 -20 -20 -20 -20 -20 -11 -13 8 3 -20 -20 -20 -18 3 15 26 20 18 18 25 16
-20 -20 -20 -20 -20 -20 -20 -20 -20 -20 -20 -20 -20 -20 -20 -20 -20 -20 -20 -20 -20 -20 -20 -9 -9 -19 -20 -20 -20 -20 12 18 10 23 20 26 25 28
-20 -20 -20 -20 -20 -20 -20 -20 -20 -20 -20 -20 -20 -20 -20 -20 -20 -20 -20 -20 -20 -20 -20 -20 -20 -20 -20 -20 -20 -20 2 -5 11 16 20 26 22 31
-20 -20 -20 -20 -20 -20 -20 -20 -20 -20 -20 -20 -20 -20 -20 -20 -20 -20 -13 -20 -20 -13 -20 -20 -20 -20 -20 -20 -20 -20 -20 -20 -13 3 9 34 13 8
-20 -20 -20 -20 -20 -20 -20 -20 -20 -20 -20 -20 -20 -20 -20 -20 -14 -20 -14 -9 -7 6 7 -19 -20 -20 -20 -20 -20 -20 -20 -20 -20 -20 -20 -20 -11 6
-20 -20 -20 -20 -20 -20 -20 -20 -20 -20 -20 -20 -20 -20 -20 -20 -20 -20 -20 -12 11 6 -18 -20 -20 -20 -20 -20 -20 -20 -20 -20 -20 -20 -20 -20 -20 -20
-20 -20 -20 -20 -20 -20 -20 -20 -20 -20 -20 -20 -20 -20 -20 -20 -20 -20 -20 -20 -12 -20 -20 -20 -20 -20 -20 -20 -20 -20 -20 -20 -20 -20 -20 -20 -20 -20
-20 -20 -20 -20 -20 -20 -20 -20 -20 -20 -20 -20 -20 -20 -20 -20 -20 -20 -20 -20 -20 -20 -20 -20 -20 -20 -20 -20 -20 -20 -20 -20 -20 -20 -20 -20 -20 -20
-20 -20 -20 -20 -20 -20 -20 -20 -20 -20 -20 -20 -20 -20 -20 -20 -20 -20 -20 -20 -20 -20 -20 -20 -20 -20 -20 -20 -20 -20 -20 -20 -20 -20 -20 -20 -20 -20
-20 -20 -20 -20 -20 -20 -20 -20 -20 -20 -20 -20 -20 -20 -20 -20 -20 -20 -20 -20 -20 -20 -20 -20 -20 -20 -20 -20 -20 -20 -20 -20 -20 -20 -20 -20 -20 -20
-20 -20 -20 -20 -20 -20 -20 -20 -20 -20 -20 -20 -20 -20 -20 -20 -20 -20 -20 -20 -20 -20 -20 -20 -20 -20 -20 -20 -20 -20 -20 -20 -20 -20 -20 -20 -20 -20
-20 -20 -20 -20 -20 -20 -20 -20 -20 -20 -20 -20 -20 -20 -20 -20 -20 -20 -20 -20 -20 -20 -20 -20 -20 -20 -20 -20 -20 -20 -20 -20 -20 -20 -20 -20 -20 -20
-15 4 -20 -20 -20 -20 -20 -20 -20 -20 -20 -20 -20 -20 -20 -20 -20 -20 -20 -20 -20 -20 -20 -20 -20 -20 -20 -20 -20 -20 -20 -20 -20 -20 -20 -20 -20 -20
-20 -20 -20 -20 -20 -20 -20 -20 -20 -20 -20 -20 -20 -20 -20 -20 -20 -20 -20 -20 -20 -20 -20 -20 -19 -20 -20 -20 -20 -20 -14 -20 -20 -20 -20 -20 -20 -20
0 -20 -20 -20 -20 -20 -20 -20 -20 -20 -20 -20 -20 -20 -20 -20 -20 -20 -20 -20 -20 -20 -20 -20 -20 -19 -20 -2 1 -3 -20 -20 -20 -20 -20 -20 -20 -20
-20 -13 -9 -14 -10 -14 -20 -20 -20 -20 -20 -20 -20 -20 -20 -20 -20 -20 -20 -20 -20 -20 -20 -20 -20 -20 -20 -20 -14 -1 -19 -20 -20 -20 -20 -20 -20 -20
15 -12 -6 -6 -2 -2 -1 -5 -20 -17 -19 -20 -20 -20 -20 -20 -20 -20 -20 -20 -20 -20 -20 -20 -20 -20 -20 -20 -20 -20 -20 -20 -20 -20 -20 -20 -20 -20
24 -5 4 5 5 14 1 2 7 1 -1 -3 -7 -17 -16 -19 -20 -20 -20 -20 -20 -20 -20 -20 -20 -20 -20 -20 -20 -20 -20 -20 -20 -20 -20 -20 -20 -20

GFSNE_prec_radar_117.txt.gz
Reflectivity
28 31 15 -16 5 -9 -17 17 9 -12 -20 -20 -20 -20 -20 -20 -20 -20 -20 -20 -2 -14 -13 -15 1 -16 -20 -20 -20 -20 -20 11 14 15 16 9 12 -20
23 18 20 -6 2 6 9 -9 -20 -20 -20 -20 -20 -20 -20 -20 -20 -20 -20 -20 -0 -16 -20 -20 -20 -20 -20 -20 -20 -20 10 -2 16 12 -19 14 -5 -17
11 -7 -9 13 -4 -19 -20 -20 -20 -20 -20 -20 -20 -20 -20 -20 -20 -20 -20 -20 -20 -20 -20 -20 3 -20 -13 -20 -20 -20 -5 -2 9 4 -20 -20 -13 -6
8 -20 4 -18 -20 -20 -20 -20 -20 -20 -20 -20 -20 -20 -20 -20 -20 -20 -20 -20 -20 -20 -20 -20 -17 -11 -20 -20 -20 -20 -20 -19 6 -6 4 -20 -20 -20
4 -13 -15 -20 -0 7 -20 -20 -20 -20 -20 -20 -20 -20 -20 -20 -20 -20 -20 -20 -20 -9 -20 -18 -12 -18 -11 -20 -20 -20 -9 -1 23 19 -20 -14 -20 -4
21 -20 -20 -20 -20 -20 -20 -20 -20 -20 -20 -20 -20 -20 -20 -20 -20 -20 -20 -20 -20 -20 -4 -10 -18 -15 -20 -20 -20 -20 -12 10 25 27 18 9 -12 10
-4 -20 -20 -20 -20 -20 -20 -20 -20 -20 -20 -20 -20 -20 -20 -20 -20 -20 -20 -20 -20 -20 -20 -20 -20 -20 -18 -1 -20 -20 -20 -16 24 29 15 24 24 26
-20 -20 -20 -20 -20 -20 -20 -20 -20 -20 -20 -20 -20 -20 -20 -20 -20 -20 -20 -20 -20 -20 -20 -20 -20 -20 -20 -20 -20 -20 -20 5 4 13 14 18 33 37
14 -20 -20 -20 -20 -20 -20 -20 -20 -20 -20 -20 -20 -20 -20 -20 -20 -20 -20 -20 -20 -20 -20 -20 -20 -20 -20 -20 -20 -20 -20 -20 0 8 32 20 16 25
-20 -20 -20 -20 -20 -20 -20 -20 -20 -20 -20 -20 -20 -20 -20 -20 -20 -20 -20 -20 -20 -20 -20 -20 -20 -20 -20 -20 -20 -20 -20 -20 -20 -20 1 20 -3 8
-20 -20 -20 -20 -20 -20 -20 -20 -20 -20 -20 -20 -20 -20 -20 -20 -20 -20 -20 -20 -20 -20 -11 -9 -20 -20 -20 -20 -20 -20 -20 -20 -20 -20 -20 -20 -17 -19
-20 -20 -20 -20 -20 -20 -20 -20 -20 -20 -20 -20 -20 -20 -20 -20 -20 -20 -20 -20 -19 -2 -20 -20 -20 -20 -20 -20 -20 -20 -20 -20 -20 -20 -20 -20 -20 -20
-20 -20 -20 -20 -20 -20 -20 -20 -20 -20 -20 -20 -20 -20 -20 -20 -20 -20 -20 -20 -20 -20 -17 -20 -20 -20 -20 -20 -20 -20 -20 -20 -20 -20 -20 -20 -20 -20
-20 -20 -20 -20 -20 -20 -20 -20 -20 -20 -20 -20 -20 -20 -20 -20 -20 -20 -20 -20 -20 -20 -20 -20 -20 -20 -20 -20 -20 -20 -20 -20 -20 -20 -20 -20 -20 -20
-20 -20 -18 -19 -20 -20 -20 -20 -20 -20 -20 -20 -20 -20 -20 -20 -20 -20 -20 -20 -20 -20 -20 -20 -20 -20 -20 -20 -20 -20 -20 -20 -20 -20 -20 -20 -20 -20
-20 -16 -17 -20 -20 -20 -20 -20 -20 -20 -20 -20 -20 -20 -20 -20 -20 -20 -20 -20 -20 -20 -20 -20 -20 -20 -20 -20 -20 -20 -20 -20 -20 -20 -20 -20 -20 -20
14 -16 -20 -20 -20 -20 -20 -20 -20 -20 -20 -20 -20 -20 -20 -20 -20 -20 -20 -20 -20 -20 -20 -20 -20 -20 -20 -20 -20 -20 -20 -20 -20 -20 -20 -20 -15 -4
-13 -13 18 8 -20 -20 -20 -20 -20 -20 -20 -20 -20 -20 -20 -20 -20 -20 -20 -20 -20 -20 -20 -20 -20 -20 -20 -20 -20 -20 -20 -20 -20 -19 -20 -20 -20 -20
-3 18 27 22 -20 -20 -20 -20 -20 -20 -20 -20 -20 -20 -20 -20 -20 -20 -20 -20 -20 -20 -20 -20 -20 -20 -20 -20 -4 -7 -20 -20 -20 -20 -20 -20 -20 -20
12 28 36 25 22 -12 -20 -20 -20 -20 -20 -20 -20 -20 -20 -20 -20 -20 -20 -20 -20 -20 -20 -20 -20 -20 -20 -20 -20 -2 -20 -20 -20 -20 -20 -20 -20 -20
30 34 29 16 -13 -20 -20 -20 -20 -20 -20 -20 -20 -20 -20 -20 -20 -20 -20 -20 -20 -20 -20 -20 -20 -20 -20 -20 -20 -20 -20 -20 -20 -20 -20 -20 -20 -20
28 23 15 -20 -20 -20 -20 -20 -20 -16 -20 -20 -20 -20 -20 -20 -20 -20 -20 -20 -20 -20 -20 -20 -20 -20 -20 -20 -20 -20 -20 -20 -20 -20 -20 -20 -20 -20
32 26 18 -7 -14 -10 -14 -20 -20 -20 -20 -20 -20 -20 -20 -20 -20 -20 -19 -20 -19 -16 -20 -20 -20 -20 -20 -20 -20 -20 -20 -20 -20 -20 -20 -20 -20 -20

GFSNE_prec_radar_120.txt.gz
Reflectivity
16 -16 -20 19 18 30 21 17 -5 15 -17 -0 -20 -20 -20 -20 -20 -20 -20 -20 -20 -20 -6 -4 -20 -20 -20 -20 -20 -20 -20 16 13 16 16 16 17 10
-14 -5 1 9 34 27 27 22 -17 -15 -17 -20 -20 -20 -20 -20 -20 -20 -20 -20 -20 -18 2 -20 -20 -20 -20 -20 -20 -20 -20 10 2 16 9 7 -6 -4
-10 -2 27 22 31 25 5 11 -8 -15 -14 -20 -17 -20 -20 -20 -20 -20 -20 -20 -20 -20 -6 -20 -20 -20 -20 -20 -20 -20 -20 -12 -0 7 8 -7 -3 -20
34 29 35 26 14 -7 -18 -20 -20 -20 -20 -20 -20 -20 -20 -20 -20 -20 -20 -20 -20 -20 -20 -20 -20 -20 -20 -20 -20 -20 -20 10 -9 -6 -15 -20 -20 10
28 29 16 -8 -17 8 -6 -11 -20 -20 -20 -20 -20 -20 -20 -20 -20 -20 -20 -20 -20 -20 -20 -20 -16 -6 -19 -20 -20 -20 -20 -20 13 3 19 -20 -20 -20
7 -20 25 20 9 -12 -11 6 -20 -20 -20 -20 -20 -20 -20 -20 -20 -20 -20 -20 -20 -20 -20 -16 -14 -6 -20 -20 -20 -20 -20 -9 15 18 25 14 -0 -9
7 14 -3 21 -11 -20 -20 -20 -20 -20 -20 -20 -20 -20 -20 -20 -20 -20 -20 -20 -20 -20 -20 -20 -20 -20 -17 -8 -20 -20 -20 -20 9 23 27 22 7 5
-19 -16 0 13 12 -5 -20 -20 -20 -20 -20 -20 -20 -20 -20 -20 -20 -20 -20 -20 -20 -20 -20 -20 -20 -20 -20 -20 -3 -20 -20 -20 -13 21 13 10 28 24
-7 -1 -7 11 9 4 -20 -20 -20 -20 -20 -20 -20 -20 -20 -20 -20 -20 -20 -20 -20 -20 -20 -20 -20 -20 -20 -17 -20 -20 -20 -20 -15 23 17 3 23 27
-19 -20 -6 20 19 -20 -20 -20 -20 -20 -20 -20 -20 -20 -20 -20 -20 -20 -20 -20 -20 -20 -20 -20 -20 -20 -20 -20 -20 -20 -20 -20 -20 -20 5 22 25 24
10 -16 19 5 -20 -20 -20 -20 -20 -20 -20 -20 -20 -20 -20 -20 -20 -20 -20 -20 -20 -20 -20 -20 -20 -20 -20 -20 -20 -20 -20 -20 -20 -20 -20 -20 18 34
-12 -20 -18 -20 -20 -20 -20 -20 -20 -20 -20 -20 -20 -20 -20 -20 -20 -20 -20 -20 -20 -20 -20 -20 -20 -20 -20 -20 -20 -20 -20 -20 -20 -20 -20 -20 -20 -20
-20 -20 -20 -14 -20 -20 -20 -20 -20 -20 -20 -20 -20 -20 -20 -20 -20 -20 -20 -20 -20 -20 -20 -19 -20 -20 -20 -20 -20 -20 -20 -20 -20 -20 -20 -20 -20 -20
-20 -20 -11 10 -14 -20 -20 -20 -20 -20 -20 -20 -20 -20 -20 -20 -20 -20 -20 -20 -20 -20 -20 -20 -20 -20 -20 -20 -20 -20 -20 -20 -20 -20 -20 -20 -20 -20
-20 7 12 -0 8 -20 -20 -20 -20 -20 -20 -20 -20 -20 -20 -20 -20 -20 -20 -20 -20 -20 -20 -20 -20 -20 -20 -20 -20 -20 -20 -20 -20 -20 -20 -20 -20 -20
-1 -11 5 15 6 -20 -17 -20 -20 -20 -20 -20 -20 -20 -20 -20 -20 -20 -20 -20 -20 -20 -20 -18 -20 -20 -20 -20 -20 -20 -20 -20 -20 -20 -20 -20 -20 -20
9 1 -7 -20 -17 -14 -20 -20 -20 -20 -20 -20 -20 -20 -20 -20 -20 -20 -20 -20 -20 -20 -20 -20 -20 -20 -20 -20 -20 -20 -20 -20 -20 -20 -20 -20 -20 -20
0 -12 -14 -13 -9 -19 -10 -20 -20 -20 -20 -20 -20 -20 -20 -20 -20 -20 -20 -20 -20 -20 -20 -20 -20 -20 -20 -20 -20 -20 -20 -20 -20 -20 -20 -20 -20 -20
4 -20 -20 -10 -12 12 5 -3 3 -20 -20 -20 -20 -20 -20 -20 -20 -20 -20 -20 -20 -20 -20 -20 -20 -20 -20 -20 -20 -20 -20 -20 -20 -20 -20 -20 -20 -20
12 -6 -2 10 23 28 23 9 -13 -20 -20 -20 -20 -20 -20 -20 -20 -20 -20 -20 -20 -20 -20 -20 -20 -20 -20 -20 -20 -20 -20 -20 -20 -20 -20 -20 -20 -20
26 25 30 33 34 31 31 33 3 -20 -20 -20 -20 -20 -20 -20 -20 -20 -20 -20 -20 -20 -20 -20 -20 -20 -20 -20 -20 -20 -20 -20 -20 -20 -20 -20 -20 -20
27 32 33 35 36 36 35 24 -19 -20 -20 -20 -20 -20 -20 -20 -20 -20 -20 -20 -20 -20 -20 -20 -20 -20 -20 -20 -20 -20 -20 -20 -20 -20 -20 -20 -20 -20
29 31 30 34 33 27 31 9 -14 -20 -20 -20 -20 -20 -20 -20 -20 -20 -20 -20 -20 -20 -20 -20 -20 -20 -20 -20 -20 -20 -20 -20 -20 -20 -20 -20 -20 -20

GFSNE_prec_radar_123.txt.gz
Reflectivity
16 16 15 10 -20 -17 -20 -10 15 14 19 10 -3 -20 -20 -20 -20 -20 -20 -20 -20 -19 -19 -20 -20 -20 -20 -20 -20 -20 -20 -20 10 12 15 19 16 14
13 9 -18 -20 -20 -5 -18 11 32 29 16 35 -20 -20 -20 -20 -20 -20 -20 -20 -20 -20 10 9 -20 -20 -20 -20 -20 -20 -20 -20 -3 3 15 13 8 13
17 -9 -20 23 -5 12 -12 19 34 33 24 -1 -14 -20 -20 -20 -20 -20 -20 -20 -20 -20 -4 11 7 -18 -20 -20 -20 -20 -20 -20 -14 2 13 11 -3 -16
2 -11 -19 5 41 36 25 26 31 20 7 0 -20 -20 -20 -20 -20 -20 -20 -20 -20 -20 -19 10 8 -12 -20 -20 -20 -20 -20 -20 2 -1 9 -19 -20 -20
-1 -20 -12 22 29 31 35 35 20 1 -19 -4 8 5 -8 -20 -20 -20 -20 -20 -20 -20 -20 1 -18 -2 -20 -20 -20 -20 -20 -20 10 10 16 -14 -20 -20
16 11 36 22 23 24 28 21 6 -10 -12 -7 -20 -20 -20 -20 -20 -20 -20 -20 -20 -20 -20 -20 -20 -20 -20 -20 -20 -20 -20 -20 -1 14 16 -7 -4 12
19 32 26 24 30 29 20 11 -3 -17 -3 -17 -20 -20 -20 -20 -20 -20 -20 -20 -20 -20 -20 -20 -20 -20 -20 -18 -20 -20 -20 -20 0 21 15 21 12 9
29 7 15 20 20 20 18 -17 -20 -16 -20 -20 -20 -20 -20 -20 -20 -20 -20 -20 -20 -20 -20 -20 -20 -20 -20 -20 -20 -20 -20 -20 -16 22 15 21 11 20
-20 -3 -1 -15 10 -11 2 -20 -5 -20 -20 -20 -20 -13 -20 -20 -20 -20 -20 -20 -20 -20 -20 -20 -20 -20 -20 -20 -20 -20 -20 -20 -20 7 2 6 23 10
-2 -19 -14 0 13 10 -20 2 4 -3 -2 -20 -20 -20 -20 -20 -20 -20 -20 -20 -20 -20 -20 -20 -20 -20 -20 -20 -20 -20 -20 -20 -20 -15 21 16 25 31
16 4 -12 -2 -9 -11 3 26 11 -12 -14 -20 -20 -20 -20 -20 -20 -20 -20 -20 -20 -20 -20 -20 -20 -20 -20 -20 -20 -20 -20 -20 -20 -20 -20 -11 27 24
-7 -9 16 13 20 15 12 7 6 9 -9 -20 -20 -20 -20 -20 -20 -20 -20 -20 -20 -20 -20 -20 -20 -20 -20 -20 -20 -20 -20 -20 -20 -20 -20 -20 -20 -16
12 14 6 7 14 5 2 -14 -19 -17 -18 -20 -20 -20 -20 -20 -20 -20 -20 -20 -17 -16 -19 -20 -20 -20 -20 -20 -20 -20 -20 -20 -20 -20 -20 -20 -20 -20
3 4 5 -10 -20 9 -7 -5 -18 -20 -20 -20 -20 -20 -20 -20 -20 -20 -20 -20 -20 -20 -20 -20 -20 -20 -20 -20 -20 -20 -20 -20 -20 -20 -20 -20 -20 -20
6 -1 -2 -5 -19 -16 -14 -6 -5 -9 -20 -20 -20 -20 -20 -20 -20 -20 -20 -20 -20 -20 -20 -20 -20 -20 -20 -20 -20 -20 -20 -20 -20 -20 -20 -20 -20 -20
12 13 3 0 -11 4 14 -4 -7 -20 -20 -20 -20 -20 -20 -20 -20 -20 -20 -20 -20 -20 -20 -17 -20 -20 -20 -20 -20 -20 -20 -20 -20 -20 -20 -20 -20 -20
10 9 -11 -18 -7 -11 -9 -7 -18 -20 -17 -20 -20 -20 -20 -20 -20 -20 -20 -20 -20 -20 -20 -20 -20 -20 -20 -20 -20 -20 -20 -20 -20 -20 -20 -20 -20 -20
8 -12 -15 -15 -10 -9 -4 -20 -13 -17 -20 -20 -20 -20 -20 -20 -20 -20 -20 -20 -20 -20 -20 -20 -20 -20 -20 -20 -20 -20 -20 -20 -20 -20 -20 -20 -20 -20
8 -17 -20 -20 -20 -7 -7 -4 -6 -7 -4 -2 -20 -20 -20 -20 -20 -20 -20 -20 -20 -20 -20 -20 -20 -20 -20 -20 -20 -20 -20 -20 -20 -20 -20 -20 -20 -20
10 -3 -10 -10 -17 -15 -17 -1 1 -5 -19 -19 1 -4 -20 -20 -20 -20 -20 -20 -20 -20 -20 -20 -20 -20 -20 -20 -20 -20 -20 -20 -20 -20 -20 -20 -20 -20
32 19 38 30 23 37 29 25 30 18 -4 -2 -13 -20 -20 -20 -20 -20 -20 -20 -20 -20 -20 -20 -20 -20 -20 -20 -20 -20 -20 -20 -20 -20 -20 -20 -20 -20
34 31 34 30 35 31 31 35 34 28 14 12 -20 -20 -20 -20 -20 -20 -20 -20 -20 -20 -20 -20 -20 -20 -20 -20 -20 -20 -20 -20 -20 -20 -20 -20 -20 -20
34 32 31 30 31 30 29 28 29 26 19 17 -4 -20 -20 -20 -20 -20 -20 -20 -20 -20 -20 -20 -20 -20 -20 -20 -20 -20 -20 -20 -20 -20 -20 -20 -20 -20

GFSNE_prec_radar_126.txt.gz
Reflectivity
35 11 26 30 20 27 -17 10 -20 -20 -4 -20 3 16 19 26 2 -17 -20 -20 -20 -20 -18 -1 -20 -20 -20 -20 -20 -20 -20 -20 -20 -3 14 17 12 17
29 23 20 23 28 18 16 -18 18 -20 14 -12 19 31 28 2 -4 -20 -20 -20 -20 -20 -15 11 9 1 -20 -20 -20 -20 -20 -20 -20 -2 1 12 11 20
24 9 23 27 23 -9 -18 -4 17 9 18 1 12 26 32 -12 -6 -20 -20 -20 -20 -20 -20 -20 11 8 -17 -20 -20 -20 -20 -20 -20 -20 2 9 6 6
16 -10 9 21 -12 -7 -11 19 4 16 29 24 26 28 -6 -20 -20 -20 -20 -1 -3 -20 -20 -3 -7 1 3 -20 -20 -20 -20 -20 -20 -20 4 11 -5 -20
15 26 24 23 24 10 -20 -7 31 24 31 28 23 -20 -14 13 8 15 -4 -20 -20 -20 -20 -20 -20 -20 10 -20 -20 -20 -20 -20 -20 -20 -1 12 -20 -20
27 32 25 14 11 -16 24 6 21 30 32 30 -2 -11 -3 1 -2 -4 -6 -20 -20 -20 -20 -20 -20 -18 -20 -20 -20 -20 -20 -20 -11 -20 2 15 12 -20
31 13 13 14 28 23 21 7 23 23 26 -2 8 -14 -19 -18 -10 -20 -20 -20 -20 -20 -20 -20 -20 -20 -20 -20 -20 -20 -20 -20 -20 -9 14 2 12 -8
28 27 24 20 23 36 23 28 36 20 18 27 -20 -0 -20 -20 -20 -20 -20 -20 -20 -3 -20 -20 -20 -20 -20 -20 -20 -20 -20 -20 -11 6 5 23 -5 9
27 28 21 22 30 29 16 5 23 25 -4 -16 -15 -20 -20 -20 -15 -6 -16 -15 -20 -20 -20 -20 -20 -20 -20 -20 -20 -20 -20 -20 -17 9 18 21 12 -3
29 29 31 30 29 18 13 7 14 8 -4 10 19 -6 -20 -20 -20 -20 -20 -20 -20 -20 -20 -20 -20 -20 -20 -20 -20 -20 -20 -20 -20 1 7 19 17 17
18 12 16 22 6 2 -12 25 31 31 16 28 25 -13 -20 -20 -12 -20 -20 -20 -20 -20 -20 -20 -20 -20 -20 -20 -20 -20 -20 -20 -20 -19 10 30 22 26
16 15 15 25 19 14 26 25 10 27 28 13 0 -18 -18 -20 -20 -19 -20 -20 -20 -20 -20 -20 -20 -20 -20 -20 -20 -20 -20 -20 -20 -20 -20 -3 20 16
8 -4 2 15 15 26 14 35 36 20 16 5 -5 -13 -7 5 2 -2 -7 -20 -20 -20 -20 -20 -20 -20 -20 -20 -20 -20 -20 -20 -20 -20 -20 -20 3 -1
-0 -2 -5 -7 5 17 26 35 30 21 15 11 7 3 0 0 -5 -20 -20 -20 -20 -20 -20 -20 -20 -20 -20 -20 -20 -20 -20 -20 -20 -20 -20 -20 -20 -16
-18 9 9 0 -3 3 -2 -0 1 11 18 9 -2 -7 -20 -20 -20 -20 -20 -20 -20 -20 -20 -20 -20 -20 -20 -20 -20 -20 -20 -20 -20 -20 -20 -20 -20 -20
-8 6 5 6 26 27 23 14 27 34 15 -20 -20 -8 -20 -20 -20 -20 -20 -20 -20 -20 -20 -17 -20 -20 -20 -20 -20 -20 -20 -20 -20 -20 -20 -20 -20 -20
9 -13 -7 -11 -16 -14 6 22 24 28 21 19 17 -20 -16 11 -20 -20 -20 -20 -20 -20 -20 -20 -20 -20 -20 -20 -20 -20 -20 -20 -20 -20 -20 -20 -20 -20
8 5 -8 -12 -3 16 25 24 18 21 10 29 -1 -20 -18 -20 -20 -20 -20 -20 -20 -20 -20 -20 -20 -20 -20 -20 -20 -20 -20 -20 -20 -20 -20 -20 -20 -20
18 5 -2 -2 12 16 12 5 6 24 29 28 3 16 -16 5 12 -20 -20 -20 -20 -20 -20 -20 -20 -20 -20 -20 -20 -20 -20 -20 -20 -20 -20 -20 -20 -20
19 2 -0 9 13 -0 23 27 18 27 26 30 15 -13 7 5 -10 -20 -20 -20 -20 -20 -20 -20 -20 -20 -20 -20 -20 -20 -20 -20 -20 -20 -20 -20 -20 -20
17 25 16 6 30 30 24 32 32 16 14 13 16 5 4 3 1 -20 -20 -20 -20 -20 -20 -20 -20 -20 -20 -20 -20 -20 -20 -20 -20 -20 -20 -20 -20 -20
25 22 34 24 32 35 35 39 35 34 29 20 17 15 11 12 13 -14 -20 -20 -20 -20 -20 -20 -20 -20 -20 -20 -20 -20 -20 -20 -20 -20 -20 -20 -20 -20
25 30 29 21 26 34 34 32 19 27 25 17 18 19 14 15 13 -20 -20 -20 -20 -20 -20 -20 -20 -20 -20 -20 -20 -20 -20 -20 -20 -20 -20 -20 -20 -20